[[{"header":{"parameterUnit":"m.s-1","parameterCategory":1,"la1":30.6,"la2":29.2853,"lo1":-89.7004,"lo2":-87.6739,"dy":0.0162,"dx":0.0183,"nx":112,"ny":82,"refTime":"2023-04-25T18:00:00:Z","depth":0,"parameterNumber":2,"parameterNumberName":"U-component_of_WINDS"},"data":[0.0,0.0,0.0,0.0,0.0,0.0,0.0,0.0,0.0,0.0,0.0,0.0,0.0,0.0,0.0,0.0,0.0,0.0,0.0,0.0,0.0,0.0,0.0,0.0,0.0,0.0,0.0,0.0,0.0,0.0,0.0,0.0,0.0,0.0,0.0,0.0,0.0,0.0,0.0,0.0,0.0,0.0,0.0,0.0,0.0,0.0,0.0,0.0,0.0,0.0,0.0,0.0,0.0,0.0,0.0,0.0,0.0,0.0,0.0,0.0,0.0,0.0,0.0,0.0,0.0,0.0,0.0,0.0,0.0,0.0,0.0,0.0,0.0,0.0,0.0,0.0,0.0,0.0,0.0,0.0,0.0,0.0,0.0,0.0,0.0,0.0,0.0,0.0,0.0,0.0,-2.0416,-2.1052,-2.0989,-2.086,-2.081,-2.086,-2.1023,-2.1355,0.0,0.0,0.0,0.0,0.0,0.0,0.0,0.0,0.0,0.0,0.0,0.0,0.0,0.0,0.0,0.0,0.0,0.0,0.0,0.0,0.0,0.0,0.0,0.0,0.0,0.0,0.0,0.0,0.0,0.0,0.0,0.0,0.0,0.0,0.0,0.0,0.0,0.0,0.0,0.0,0.0,0.0,0.0,0.0,0.0,0.0,0.0,0.0,0.0,0.0,0.0,0.0,0.0,0.0,0.0,0.0,0.0,0.0,0.0,0.0,0.0,0.0,0.0,0.0,0.0,0.0,0.0,0.0,0.0,0.0,0.0,0.0,0.0,0.0,0.0,0.0,0.0,0.0,0.0,0.0,0.0,0.0,0.0,0.0,0.0,0.0,0.0,0.0,0.0,0.0,0.0,0.0,0.0,0.0,0.0,0.0,0.0,0.0,0.0,0.0,0.0,0.0,0.0,0.0,-2.1558,-2.21,-2.1649,-2.1308,-2.1293,-2.1308,-2.1293,-2.123,0.0,0.0,0.0,0.0,0.0,0.0,0.0,0.0,0.0,0.0,0.0,0.0,0.0,0.0,0.0,0.0,0.0,0.0,0.0,0.0,0.0,0.0,0.0,0.0,0.0,0.0,0.0,0.0,0.0,0.0,0.0,0.0,0.0,0.0,0.0,0.0,0.0,0.0,0.0,0.0,0.0,0.0,0.0,0.0,0.0,0.0,0.0,0.0,0.0,0.0,0.0,0.0,0.0,0.0,0.0,0.0,0.0,0.0,0.0,0.0,0.0,0.0,0.0,0.0,0.0,0.0,0.0,0.0,0.0,0.0,0.0,0.0,0.0,0.0,0.0,0.0,0.0,0.0,0.0,0.0,0.0,0.0,0.0,0.0,0.0,0.0,0.0,0.0,0.0,0.0,0.0,0.0,0.0,0.0,0.0,0.0,0.0,0.0,0.0,0.0,0.0,0.0,0.0,-2.0345,-2.1083,-2.115,-2.0902,-2.073,-2.0697,-2.0697,-2.0795,-2.0958,-2.1793,0.0,0.0,0.0,0.0,0.0,0.0,0.0,0.0,0.0,0.0,0.0,0.0,0.0,0.0,0.0,0.0,0.0,0.0,0.0,0.0,0.0,0.0,0.0,0.0,0.0,0.0,0.0,0.0,0.0,0.0,0.0,0.0,0.0,0.0,0.0,0.0,0.0,0.0,0.0,0.0,0.0,0.0,0.0,0.0,0.0,0.0,0.0,0.0,0.0,0.0,0.0,0.0,0.0,0.0,0.0,0.0,0.0,0.0,0.0,0.0,0.0,0.0,0.0,0.0,0.0,0.0,0.0,0.0,0.0,0.0,0.0,0.0,0.0,0.0,0.0,0.0,0.0,0.0,0.0,0.0,0.0,0.0,0.0,0.0,0.0,0.0,0.0,0.0,0.0,0.0,0.0,0.0,0.0,0.0,0.0,0.0,0.0,0.0,0.0,0.0,0.0,0.0,-2.0163,-2.0508,-2.0472,-2.0385,-2.0326,-2.0273,-2.0272,-2.0376,-2.0646,-2.1182,0.0,0.0,0.0,0.0,0.0,0.0,0.0,0.0,0.0,0.0,0.0,0.0,0.0,0.0,0.0,0.0,0.0,0.0,0.0,0.0,0.0,0.0,0.0,0.0,0.0,0.0,0.0,0.0,0.0,0.0,0.0,0.0,0.0,0.0,0.0,0.0,0.0,0.0,0.0,0.0,0.0,0.0,0.0,0.0,0.0,0.0,0.0,0.0,0.0,0.0,0.0,0.0,0.0,0.0,0.0,0.0,0.0,0.0,0.0,0.0,0.0,0.0,0.0,0.0,0.0,0.0,0.0,0.0,0.0,0.0,0.0,0.0,0.0,0.0,0.0,0.0,0.0,0.0,0.0,0.0,0.0,0.0,0.0,0.0,0.0,0.0,0.0,0.0,0.0,0.0,0.0,0.0,0.0,0.0,0.0,0.0,0.0,0.0,0.0,0.0,0.0,0.0,-2.0502,-2.0576,-2.149,-2.1089,-2.0761,-2.0761,-2.0761,-2.0613,-2.026,-2.0289,0.0,0.0,0.0,0.0,0.0,0.0,0.0,0.0,0.0,0.0,0.0,0.0,0.0,0.0,0.0,0.0,0.0,0.0,0.0,0.0,0.0,0.0,0.0,0.0,0.0,0.0,0.0,0.0,0.0,0.0,0.0,0.0,0.0,0.0,0.0,0.0,0.0,0.0,0.0,0.0,0.0,0.0,0.0,0.0,0.0,0.0,0.0,0.0,0.0,0.0,0.0,0.0,0.0,0.0,0.0,0.0,0.0,0.0,0.0,0.0,0.0,0.0,0.0,0.0,0.0,0.0,0.0,0.0,0.0,0.0,0.0,0.0,0.0,0.0,0.0,0.0,0.0,0.0,0.0,0.0,0.0,0.0,0.0,0.0,0.0,0.0,0.0,0.0,0.0,0.0,0.0,0.0,0.0,0.0,0.0,0.0,0.0,0.0,0.0,0.0,0.0,0.0,-1.9773,-2.0015,0.0,-2.0218,-2.0118,-2.0118,-2.0118,-1.9997,-1.9785,0.0,0.0,0.0,0.0,0.0,0.0,0.0,0.0,0.0,0.0,0.0,0.0,0.0,0.0,0.0,0.0,0.0,0.0,0.0,0.0,0.0,0.0,0.0,0.0,0.0,0.0,0.0,0.0,0.0,0.0,0.0,0.0,0.0,0.0,0.0,0.0,0.0,0.0,0.0,0.0,0.0,0.0,0.0,0.0,0.0,0.0,0.0,0.0,0.0,0.0,0.0,0.0,0.0,0.0,0.0,0.0,0.0,0.0,0.0,0.0,0.0,0.0,0.0,0.0,0.0,0.0,0.0,0.0,0.0,0.0,0.0,0.0,0.0,0.0,0.0,0.0,0.0,0.0,0.0,0.0,0.0,0.0,0.0,0.0,0.0,0.0,0.0,0.0,0.0,0.0,0.0,0.0,0.0,0.0,0.0,0.0,0.0,0.0,0.0,0.0,0.0,0.0,-1.8988,-1.9417,-1.9672,0.0,-1.9863,-2.0019,-2.0019,-2.0198,-2.0299,-2.0191,0.0,0.0,0.0,0.0,0.0,0.0,0.0,0.0,0.0,0.0,0.0,0.0,0.0,0.0,0.0,0.0,0.0,0.0,0.0,0.0,0.0,0.0,0.0,0.0,0.0,0.0,0.0,0.0,0.0,0.0,0.0,0.0,0.0,0.0,0.0,0.0,0.0,0.0,0.0,0.0,0.0,0.0,0.0,0.0,0.0,0.0,0.0,0.0,0.0,0.0,0.0,0.0,0.0,0.0,0.0,0.0,0.0,0.0,0.0,0.0,0.0,0.0,0.0,0.0,0.0,0.0,0.0,0.0,0.0,0.0,0.0,0.0,0.0,0.0,0.0,0.0,0.0,0.0,0.0,0.0,0.0,0.0,0.0,0.0,0.0,0.0,0.0,0.0,0.0,0.0,0.0,0.0,0.0,0.0,0.0,0.0,0.0,0.0,0.0,0.0,0.0,0.0,-1.9335,-1.9578,-1.9705,-1.9705,-2.0299,-2.0703,-2.0703,-2.1321,-2.1695,0.0,0.0,0.0,0.0,0.0,0.0,0.0,0.0,0.0,0.0,0.0,0.0,0.0,0.0,0.0,0.0,0.0,0.0,0.0,0.0,0.0,0.0,0.0,0.0,0.0,0.0,0.0,0.0,0.0,0.0,0.0,0.0,0.0,0.0,0.0,0.0,0.0,0.0,0.0,0.0,0.0,0.0,0.0,0.0,0.0,0.0,0.0,0.0,0.0,0.0,0.0,0.0,0.0,0.0,0.0,0.0,0.0,0.0,0.0,0.0,0.0,0.0,0.0,0.0,0.0,0.0,0.0,0.0,0.0,0.0,0.0,0.0,0.0,0.0,0.0,0.0,0.0,0.0,0.0,0.0,0.0,0.0,0.0,0.0,0.0,0.0,0.0,0.0,0.0,0.0,0.0,0.0,0.0,0.0,0.0,0.0,0.0,0.0,0.0,0.0,0.0,0.0,0.0,-1.9602,-2.0175,-2.0497,-2.035,-2.0503,-2.0619,-2.0619,-2.1038,-2.1208,-2.1064,0.0,0.0,0.0,0.0,0.0,0.0,0.0,0.0,0.0,0.0,0.0,0.0,0.0,0.0,0.0,0.0,0.0,0.0,0.0,0.0,0.0,0.0,0.0,0.0,0.0,0.0,0.0,0.0,0.0,0.0,0.0,0.0,0.0,0.0,0.0,0.0,0.0,0.0,0.0,0.0,0.0,0.0,0.0,0.0,0.0,0.0,0.0,0.0,0.0,0.0,0.0,0.0,0.0,0.0,0.0,0.0,0.0,0.0,0.0,0.0,0.0,0.0,0.0,0.0,0.0,0.0,0.0,0.0,0.0,0.0,0.0,0.0,0.0,0.0,0.0,0.0,0.0,0.0,0.0,0.0,0.0,0.0,0.0,0.0,0.0,0.0,0.0,0.0,0.0,0.0,0.0,0.0,0.0,0.0,0.0,0.0,0.0,0.0,0.0,0.0,0.0,0.0,-2.0188,-2.0544,-2.0809,-2.0872,-2.0976,-2.1083,-2.1268,-2.1711,-2.197,-2.1913,0.0,0.0,0.0,0.0,0.0,0.0,0.0,0.0,0.0,0.0,0.0,0.0,0.0,0.0,0.0,0.0,0.0,0.0,0.0,0.0,0.0,0.0,0.0,0.0,0.0,0.0,0.0,0.0,0.0,0.0,0.0,0.0,0.0,0.0,0.0,0.0,0.0,0.0,0.0,0.0,0.0,0.0,0.0,0.0,0.0,0.0,0.0,0.0,0.0,0.0,0.0,0.0,0.0,0.0,0.0,0.0,0.0,0.0,0.0,0.0,0.0,0.0,0.0,0.0,0.0,0.0,0.0,0.0,0.0,0.0,0.0,0.0,0.0,0.0,0.0,0.0,0.0,0.0,0.0,0.0,0.0,0.0,0.0,0.0,0.0,0.0,0.0,0.0,0.0,0.0,0.0,0.0,0.0,0.0,0.0,0.0,0.0,0.0,0.0,0.0,0.0,0.0,-2.0965,-2.089,-2.0918,-2.1377,-2.1642,-2.1925,-2.2284,-2.2914,-2.3348,-2.353,0.0,0.0,0.0,0.0,0.0,0.0,0.0,0.0,0.0,0.0,0.0,0.0,0.0,0.0,0.0,0.0,0.0,0.0,0.0,0.0,0.0,0.0,0.0,0.0,0.0,0.0,0.0,0.0,0.0,0.0,0.0,0.0,0.0,0.0,0.0,0.0,0.0,0.0,0.0,0.0,0.0,0.0,0.0,0.0,0.0,0.0,0.0,0.0,0.0,0.0,0.0,0.0,0.0,0.0,0.0,0.0,0.0,0.0,0.0,0.0,-1.9626,0.0,0.0,0.0,0.0,0.0,0.0,0.0,0.0,0.0,0.0,0.0,0.0,0.0,0.0,0.0,0.0,0.0,0.0,0.0,0.0,0.0,0.0,0.0,0.0,0.0,0.0,0.0,0.0,0.0,0.0,0.0,0.0,0.0,0.0,0.0,0.0,0.0,0.0,0.0,0.0,0.0,-2.1215,-2.1684,-2.2073,-2.2238,-2.2308,-2.2357,-2.2448,-2.2884,-2.3172,-2.3194,-2.3216,0.0,0.0,0.0,0.0,0.0,0.0,0.0,0.0,0.0,0.0,0.0,0.0,0.0,0.0,0.0,0.0,0.0,0.0,0.0,0.0,0.0,0.0,0.0,0.0,0.0,0.0,0.0,0.0,0.0,0.0,0.0,0.0,0.0,0.0,0.0,0.0,0.0,0.0,0.0,0.0,0.0,0.0,0.0,0.0,0.0,0.0,0.0,0.0,0.0,0.0,0.0,0.0,0.0,0.0,0.0,0.0,0.0,0.0,0.0,0.0,-2.1135,0.0,0.0,0.0,0.0,0.0,0.0,0.0,0.0,0.0,0.0,0.0,0.0,0.0,0.0,0.0,0.0,0.0,0.0,0.0,0.0,0.0,0.0,0.0,0.0,0.0,0.0,0.0,0.0,0.0,0.0,0.0,0.0,0.0,0.0,0.0,0.0,0.0,0.0,0.0,0.0,-2.2032,-2.2158,-2.2493,-2.3293,-2.3053,-2.3112,-2.3804,-2.3741,-2.3724,-2.3799,-2.3496,0.0,0.0,0.0,0.0,0.0,0.0,0.0,0.0,0.0,0.0,0.0,0.0,0.0,0.0,0.0,0.0,0.0,0.0,0.0,0.0,0.0,0.0,0.0,0.0,0.0,0.0,0.0,0.0,0.0,0.0,0.0,0.0,0.0,0.0,0.0,0.0,0.0,0.0,0.0,0.0,0.0,0.0,0.0,0.0,0.0,0.0,0.0,0.0,0.0,0.0,0.0,0.0,0.0,-2.4809,-2.4893,-2.4927,-2.5024,-2.4844,-2.4475,-2.5031,-2.4046,-2.2077,-2.2612,0.0,0.0,0.0,0.0,0.0,0.0,0.0,0.0,0.0,0.0,0.0,0.0,0.0,0.0,0.0,0.0,0.0,0.0,0.0,0.0,0.0,0.0,0.0,0.0,-2.516,-2.5088,0.0,0.0,0.0,0.0,0.0,0.0,0.0,0.0,0.0,0.0,0.0,0.0,-2.2867,-2.2518,-2.2694,-2.4042,-2.3632,-2.374,-2.4899,-2.4502,-2.4304,-2.4582,-2.3926,-2.3437,0.0,0.0,0.0,0.0,0.0,0.0,0.0,0.0,0.0,0.0,0.0,0.0,0.0,0.0,0.0,0.0,0.0,0.0,0.0,0.0,0.0,0.0,0.0,0.0,0.0,0.0,0.0,0.0,0.0,0.0,0.0,0.0,-2.2615,-2.1167,0.0,0.0,0.0,0.0,0.0,0.0,0.0,0.0,0.0,0.0,0.0,0.0,0.0,-2.4941,-2.5063,-2.4471,-2.4256,-2.4449,-2.4697,-2.5023,-2.5423,-2.6176,-2.6851,-2.7423,-2.7238,0.0,-2.2955,-2.2078,0.0,0.0,0.0,0.0,0.0,0.0,0.0,0.0,0.0,0.0,0.0,0.0,0.0,0.0,0.0,0.0,0.0,0.0,0.0,0.0,0.0,0.0,-2.1277,-2.4659,-2.5532,-2.553,0.0,-2.4898,-2.4441,-2.366,-2.354,0.0,0.0,0.0,0.0,0.0,0.0,0.0,-2.2994,-2.3001,-2.3135,-2.3642,-2.3599,-2.3606,-2.382,-2.3746,-2.394,-2.4575,-2.4492,-2.4289,-2.3984,-2.3938,0.0,0.0,0.0,0.0,0.0,0.0,0.0,0.0,0.0,0.0,0.0,0.0,0.0,0.0,0.0,0.0,0.0,0.0,0.0,0.0,0.0,0.0,0.0,0.0,0.0,0.0,0.0,0.0,0.0,-2.2292,-2.2481,-2.0847,-2.1808,-2.2146,0.0,0.0,0.0,0.0,0.0,0.0,0.0,0.0,0.0,-2.3713,-2.508,-2.5585,-2.515,-2.5799,-2.6118,-2.609,-2.6511,-2.6799,-2.6959,-2.7359,-2.7976,-2.8788,-2.8597,-2.7912,-2.6832,-2.5042,-2.3807,-2.3113,0.0,0.0,0.0,0.0,-2.2557,-2.218,-2.1429,-2.103,0.0,-2.0715,0.0,0.0,0.0,0.0,0.0,0.0,0.0,0.0,0.0,0.0,-2.3353,-2.5724,-2.6526,-2.6798,-2.6877,-2.6726,-2.6266,0.0,-2.5299,-2.5321,-2.4476,0.0,0.0,0.0,0.0,-2.3256,-2.3231,-2.315,-2.3451,-2.4407,-2.4305,-2.4405,-2.4999,-2.5052,-2.5093,-2.5158,-2.4814,-2.4529,-2.4338,-2.3886,-2.3405,0.0,0.0,0.0,0.0,0.0,0.0,0.0,0.0,0.0,0.0,0.0,0.0,0.0,0.0,0.0,0.0,0.0,0.0,0.0,0.0,0.0,0.0,0.0,0.0,0.0,0.0,0.0,0.0,-2.276,-2.2942,-2.075,-2.2116,-2.2823,0.0,0.0,0.0,0.0,0.0,0.0,-2.3312,-2.4314,-2.4825,-2.4716,-2.619,-2.673,-2.6172,-2.7644,-2.8313,-2.8111,-2.8523,-2.8699,-2.8667,-2.8584,-2.8962,-2.9719,-2.9556,-2.9723,-2.992,-2.7716,-2.5928,-2.4629,-2.5216,-2.5007,-2.4384,-2.4513,-2.426,-2.3747,-2.2794,-2.2374,-2.2279,-2.2342,0.0,-2.1594,-2.2212,0.0,0.0,0.0,0.0,-1.9476,-2.0919,-2.2998,-2.5087,-2.6501,-2.7342,-2.7822,-2.7923,-2.8114,-2.783,0.0,-2.6559,-2.6598,-2.5617,0.0,0.0,0.0,0.0,-2.3888,-2.3444,-2.3282,-2.3629,-2.4678,-2.4517,-2.4674,-2.5461,-2.5594,-2.5549,-2.5367,-2.4946,-2.4639,-2.4528,-2.3918,-2.3444,-2.3105,0.0,0.0,0.0,0.0,0.0,0.0,0.0,0.0,0.0,0.0,0.0,0.0,0.0,0.0,0.0,0.0,0.0,0.0,0.0,0.0,0.0,0.0,0.0,0.0,0.0,0.0,0.0,0.0,0.0,-2.1526,-2.3216,0.0,0.0,0.0,0.0,-2.449,-2.4683,-2.439,-2.344,-2.4998,-2.6149,-2.6645,-2.828,-2.9379,-2.9828,-3.001,-3.0074,-3.0059,-3.009,-3.0165,-3.0267,-2.9879,-3.0041,-3.0596,-3.0165,-3.0229,-3.0495,-2.8473,-2.7796,-2.7932,-2.6767,-2.6272,-2.606,-2.5072,-2.4307,-2.3646,-2.2519,-2.2039,-2.1908,-2.1786,-2.1588,-2.1419,-2.1529,-2.1492,0.0,0.0,-2.1328,-2.1735,-2.3096,-2.4127,-2.5176,-2.6634,-2.7552,-2.8076,-2.8096,-2.8684,-2.879,0.0,-2.6973,-2.6571,-2.5266,0.0,-2.4766,-2.4009,-2.3919,-2.3839,-2.3595,-2.3573,-2.3603,-2.3663,-2.3656,-2.3671,-2.3723,-2.396,-2.4282,-2.4642,-2.4867,-2.4855,-2.4505,-2.4461,-2.4006,-2.312,-2.3712,0.0,0.0,0.0,0.0,0.0,0.0,0.0,0.0,0.0,0.0,0.0,0.0,0.0,0.0,0.0,0.0,0.0,0.0,0.0,0.0,0.0,0.0,0.0,0.0,0.0,0.0,0.0,0.0,-2.3052,-2.448,0.0,-2.3486,-2.3592,-2.4035,-2.4763,-2.5745,-2.6383,-2.6483,-2.7903,-2.8779,-2.8931,-2.938,-2.9802,-3.0168,-3.0227,-3.032,-3.0394,-3.0475,-3.0553,-3.0594,-3.0427,-3.0757,-3.1401,-3.1308,-3.19,-3.2842,-3.2157,-3.11,-2.9852,-2.9162,-2.8815,-2.8596,-2.7953,-2.7401,-2.6911,-2.6505,-2.6163,-2.5951,-2.5914,-2.5878,-2.5713,-2.4757,-2.4182,-2.3621,-2.2522,-2.2932,-2.3802,-2.4207,-2.5926,-2.7699,-2.8223,-2.8911,-2.9493,-2.956,-2.9799,-2.9725,-2.8735,-2.8876,-2.8919,-2.8062,-2.7908,-2.7332,-2.5637,-2.5382,-2.4952,-2.3743,-2.3595,-2.3694,-2.3948,-2.3992,-2.3992,-2.3992,-2.4475,-2.492,-2.5209,-2.5339,-2.5539,-2.5851,-2.5425,-2.5012,-2.4598,-2.4796,-2.4716,0.0,0.0,0.0,0.0,0.0,0.0,0.0,0.0,0.0,0.0,0.0,0.0,0.0,0.0,0.0,0.0,0.0,0.0,0.0,0.0,0.0,0.0,0.0,0.0,0.0,0.0,-2.5221,-2.3991,-2.5172,-2.5816,-2.5043,-2.4951,-2.544,-2.6733,-2.7797,-2.8537,-2.8916,-2.9932,-3.0551,-3.0631,-3.0534,-3.0642,-3.1004,-3.1036,-3.1113,-3.1268,-3.1367,-3.1431,-3.1473,-3.1431,-3.1699,-3.2225,-3.256,-3.3261,-3.4162,-3.4227,-3.3535,-3.2412,-3.2081,-3.1746,-3.1404,-3.1008,-3.0317,-2.9462,-2.8969,-2.8643,-2.8434,-2.8619,-2.8718,-2.8605,-2.7781,-2.722,-2.6607,-2.5457,-2.5866,-2.6639,-2.6602,-2.8227,-2.9892,-2.9934,-3.0471,-3.1019,-3.1148,-3.1105,-3.0914,-3.0525,-3.0245,-2.9872,-2.9248,-2.9135,-2.8517,-2.6754,-2.6598,-2.6184,-2.4726,-2.4648,-2.4734,-2.4829,-2.4835,-2.472,-2.4549,-2.5009,-2.535,-2.5465,-2.5595,-2.5842,-2.6171,-2.572,-2.5387,-2.5269,-2.549,-2.5541,-2.5402,0.0,0.0,0.0,0.0,0.0,0.0,0.0,0.0,0.0,0.0,0.0,0.0,0.0,0.0,0.0,0.0,0.0,0.0,0.0,0.0,0.0,0.0,0.0,-2.2797,-2.5342,-2.6429,-2.4339,-2.5352,-2.6549,-2.7337,-2.7408,-2.8308,-3.0481,-3.0815,-3.0815,-3.0505,-3.0936,-3.139,-3.1762,-3.186,-3.2155,-3.2659,-3.2611,-3.2679,-3.286,-3.286,-3.2941,-3.3051,-3.2925,-3.2941,-3.3104,-3.3809,-3.418,-3.4341,-3.4305,-3.4855,-3.5692,-3.5287,-3.4788,-3.4275,-3.3926,-3.2717,-3.1042,-2.957,-2.8987,-2.8977,-2.9504,-2.9613,-2.9694,-3.021,-3.0366,-3.0323,-3.0195,-3.0174,-3.0195,-3.0323,-3.0887,-3.1457,-3.1588,-3.2073,-3.2523,-3.2657,-3.2478,-3.2341,-3.2478,-3.0872,-2.9281,-2.8638,-2.8522,-2.8197,-2.7248,-2.7485,0.0,-2.6596,-2.6742,-2.6754,-2.6228,-2.6093,-2.5823,-2.5265,-2.5444,-2.5481,-2.5252,-2.5647,-2.5731,-2.5477,-2.5318,-2.5198,-2.5077,-2.5691,-2.6381,-2.7181,0.0,0.0,0.0,0.0,0.0,0.0,0.0,0.0,0.0,0.0,0.0,0.0,0.0,0.0,0.0,0.0,0.0,0.0,0.0,0.0,0.0,-2.4046,-2.5027,-2.5074,-2.6303,-2.7443,-2.8018,-2.8945,-2.9602,-2.9868,-2.99,-3.0409,-3.1614,-3.1787,-3.2083,-3.2629,-3.3171,-3.353,-3.3577,-3.4071,-3.4366,-3.4409,-3.4392,-3.4444,-3.4545,-3.4545,-3.4562,-3.4596,-3.4562,-3.4562,-3.4578,-3.4306,-3.4484,-3.4914,-3.449,-3.5098,-3.6159,-3.4103,-3.3963,-3.476,-3.3741,-3.2944,-3.2179,-3.0838,-3.0583,-3.0846,-3.0877,-3.1117,-3.1438,-3.1663,-3.1751,-3.1729,-3.1648,-3.1619,-3.1619,-3.1551,-3.1766,-3.1981,-3.2027,-3.2187,-3.2364,-3.2409,-3.2348,-3.2302,-3.2364,-3.1894,-3.1413,-3.1199,-3.1144,-3.077,-2.9642,-2.9585,0.0,-2.8333,-2.8015,-2.7789,-2.7646,-2.7364,-2.6866,-2.6135,-2.6926,-2.7016,-2.5987,-2.6867,-2.7186,-2.6712,-2.6676,-2.6625,-2.6585,-2.6361,-2.6337,0.0,0.0,0.0,0.0,0.0,0.0,0.0,0.0,0.0,0.0,0.0,0.0,0.0,0.0,0.0,0.0,0.0,0.0,0.0,0.0,0.0,0.0,-2.4971,-2.6777,-2.7854,-2.8118,-2.8702,-3.003,-3.0608,-3.1032,-3.146,-3.1799,-3.2321,-3.3165,-3.359,-3.3986,-3.4446,-3.4848,-3.4994,-3.4823,-3.5174,-3.5307,-3.5135,-3.5118,-3.5118,-3.5186,-3.5186,-3.5238,-3.529,-3.5238,-3.5186,0.0,-3.5147,-3.5379,-3.5772,-3.5374,-3.598,0.0,0.0,0.0,0.0,0.0,-3.2962,-3.2702,-3.1802,-3.167,-3.1959,-3.2468,-3.2728,-3.2935,-3.3231,-3.3236,-3.3117,-3.3014,-3.3007,-3.2983,-3.2983,-3.3031,-3.3102,-3.315,-3.3157,-3.3148,-3.3196,-3.3125,-3.3077,-3.3141,-3.3077,0.0,-3.299,-3.2574,-3.195,-3.1046,-3.106,-3.0915,-3.0141,-2.9903,-2.9696,-2.9477,-2.9206,-2.8642,-2.772,-2.8353,0.0,0.0,0.0,-2.817,-2.7527,-2.7117,0.0,0.0,0.0,-2.6484,-2.6669,0.0,0.0,0.0,-2.5572,-2.5031,0.0,0.0,0.0,0.0,0.0,0.0,0.0,0.0,0.0,0.0,0.0,0.0,0.0,0.0,0.0,0.0,-2.6002,-2.8457,-3.0725,-3.0538,-3.0404,-3.1105,-3.1305,-3.1701,-3.2492,-3.3306,-3.4113,-3.4892,-3.5622,-3.5982,-3.5862,0.0,0.0,0.0,0.0,-3.5708,-3.5471,-3.542,-3.542,-3.5471,-3.5471,-3.5523,-3.5644,-3.5523,-3.5471,-3.5525,-3.6131,-3.647,-3.6557,-3.6432,-3.6914,-3.7666,-3.6915,-3.6435,-3.588,-3.3895,-3.3164,-3.311,-3.261,0.0,0.0,-3.3811,-3.4113,-3.4071,-3.4462,-3.4423,-3.4226,-3.4126,-3.4101,-3.4126,-3.425,-3.4275,-3.43,-3.4423,-3.4374,-3.4325,-3.4423,-3.4275,-3.4126,-3.425,-3.4176,-3.4101,-3.4101,-3.3201,-3.2355,-3.1943,-3.2237,-3.2355,-3.1943,-3.2055,-3.1983,-3.1512,0.0,0.0,-2.9751,-2.9904,-2.9766,-2.9083,-2.9098,-2.8792,-2.8015,-2.719,-2.6821,-2.7023,-2.6794,-2.69,-2.735,-2.7257,-2.7231,-2.7205,-2.6087,-2.5481,0.0,0.0,0.0,0.0,0.0,0.0,0.0,0.0,0.0,0.0,0.0,0.0,0.0,0.0,0.0,-2.5284,-2.8645,-3.1412,-3.243,-3.3144,-3.3394,-3.2965,-3.3445,-3.3942,-3.42,-3.502,-3.5608,-3.5828,-3.6102,-3.6227,-3.6197,-3.6846,-3.7025,-3.6642,-3.7421,-3.7599,-3.7149,-3.7291,-3.7291,-3.7149,0.0,0.0,-3.7167,-3.7149,-3.7149,-3.7095,-3.6613,-3.6417,-3.6399,-3.5842,-3.6073,-3.6825,-3.7291,-3.7024,-3.6257,-3.5627,-3.5147,-3.4696,-3.3771,-3.3457,-3.3522,-3.3568,-3.3801,-3.4047,-3.3926,-3.3924,0.0,-3.3949,-3.4025,-3.4101,-3.4126,-3.4151,-3.4151,-3.4176,-3.4151,-3.4151,-3.4176,-3.4126,-3.4101,-3.4126,-3.4126,-3.4101,-3.4101,-3.3924,-3.3729,-3.363,-3.368,-3.3729,-3.3646,-3.337,-3.3166,-3.3064,-3.2678,-3.2126,-3.1235,-3.2128,-3.1945,-3.0068,-2.9574,-2.9096,-2.8576,-2.8361,-2.8303,-2.8346,-2.8037,-2.8009,-2.8248,-2.7598,-2.734,-2.7427,-2.644,-2.5962,0.0,0.0,0.0,0.0,0.0,0.0,0.0,0.0,0.0,0.0,0.0,-2.0816,-2.2363,0.0,-2.5973,-2.7543,-3.0506,-3.3003,-3.4191,-3.4792,-3.4963,-3.4581,-3.4907,-3.5188,-3.5293,-3.6094,-3.6626,-3.6702,-3.7213,-3.7679,-3.8065,-3.8484,-3.8745,-3.8851,-3.9334,-3.9366,-3.8866,-3.8958,-3.8884,-3.8714,-3.8714,-3.8715,-3.8754,-3.8754,-3.8754,-3.8736,-3.8326,-3.7951,-3.7541,-3.6809,-3.672,-3.7095,-3.7488,-3.7059,-3.6094,-3.5186,-3.4698,-3.4458,-3.4079,-3.3962,-3.4049,-3.4276,-3.4411,-3.4448,-3.4176,-3.4293,-3.4481,-3.4352,-3.4609,-3.4935,-3.4935,-3.4935,-3.4935,-3.4935,-3.4935,-3.4935,-3.4935,-3.4935,-3.4935,-3.4935,-3.4935,-3.4822,-3.4468,-3.4404,-3.4327,-3.4124,-3.4101,-3.4101,-3.4101,-3.3797,-3.3607,-3.3607,-3.3314,-3.2866,-3.2144,-3.2346,-3.1925,-3.0578,-2.9972,-2.9557,-2.9302,-2.8911,-2.8709,-2.8709,-2.8525,-2.8497,-2.8596,-2.8197,-2.8053,-2.8068,-2.7272,-2.6736,0.0,0.0,0.0,0.0,0.0,0.0,0.0,-2.2304,-2.2666,-2.4013,-2.3981,-2.41,-2.5249,-2.6688,-2.8203,-2.9832,-3.2241,-3.4398,-3.5726,-3.6083,-3.6192,-3.6192,-3.6096,-3.6069,-3.6129,-3.69,-3.745,-3.7543,-3.8392,-3.9205,-3.9845,-4.0047,-4.0333,-4.0805,-4.084,-4.0616,-4.0124,-4.0161,-4.0047,-3.983,-3.983,-3.9852,-3.9895,-3.9893,-3.9893,-3.9895,-3.9895,-3.9556,-3.8986,-3.8469,-3.8202,-3.8077,-3.8237,-3.7572,-3.637,-3.4874,-3.426,-3.4202,-3.4408,-3.4421,-3.4453,-3.4991,-3.5018,-3.4804,-3.4448,-3.459,-3.4804,-3.4542,-3.5,-3.5587,-3.5587,-3.5683,-3.5794,-3.5794,-3.5794,-3.5794,-3.5794,-3.5794,-3.5794,-3.5794,-3.5794,-3.5603,-3.5027,-3.4777,-3.4536,-3.4088,-3.4025,-3.4025,-3.4025,-3.3822,-3.3758,-3.3886,-3.3798,-3.3583,-3.3263,-3.242,-3.1703,-3.122,-3.0748,-3.0294,-2.9944,-2.9348,-2.9015,-2.9015,-2.9044,-2.9072,-2.9101,-2.9059,-2.9059,-2.9074,-2.8484,-2.7792,-2.0339,-2.1029,-2.2066,-2.1108,-2.2305,-2.3745,0.0,-2.3711,-2.4107,-2.5706,-2.4874,-2.4541,-2.6735,-2.8391,-2.994,-3.1564,-3.4491,-3.6602,-3.6681,-3.7382,-3.792,-3.792,-3.7286,-3.69,-3.6962,-3.7689,-3.8225,-3.8366,-3.9168,-3.9747,-3.9882,-4.0579,-4.0919,-4.0788,-4.0959,-4.0772,-4.0201,-4.0384,-4.0255,-3.9875,-3.9875,-3.9895,-3.9895,-3.9832,-3.9832,-3.9895,-3.9895,-3.9841,-3.9823,-4.0449,-4.0289,-3.9698,-4.0431,-3.9805,-3.8339,-3.7031,-3.6281,-3.5864,-3.5552,-3.5238,-3.4941,-3.4675,-3.4643,-3.4594,-3.3975,-3.3896,-3.3976,-3.3718,-3.4202,-3.4809,-3.4809,-3.5315,-3.5794,-3.5794,-3.5794,-3.5794,-3.5794,-3.5794,-3.5794,-3.5794,-3.5794,-3.5762,-3.5683,-3.5139,-3.4484,-3.3832,-3.3745,-3.3745,-3.3745,-3.372,-3.3934,-3.4505,-3.4569,-3.4814,-3.5382,-3.4166,-3.3174,-3.2684,-3.2493,-3.1679,-3.0147,-3.0107,-3.011,-3.011,-3.0305,-3.0454,-3.0557,-3.0378,-3.0351,-3.0463,-3.0226,-2.9201,-2.3873,-2.4129,-2.4468,-2.4764,-2.5613,-2.647,-2.6794,-2.6793,-2.7191,-2.8711,-2.8467,-2.8574,-3.0518,-3.1382,-3.2491,-3.4615,-3.6093,-3.7142,-3.7561,-3.794,-3.8209,-3.8209,-3.7901,-3.7718,-3.7751,-3.8074,-3.8538,-3.9106,-3.9557,-4.0244,-4.124,-4.1576,-4.1945,-4.2349,-4.2421,-4.2194,-4.1662,-4.1738,-4.1584,-4.1187,-4.1144,-4.1144,-4.1187,-4.11,-4.112,-4.1187,-4.1187,-4.1227,-4.1324,-4.1645,-4.1591,-4.1324,-4.1663,-4.1395,-4.0531,-3.8079,-3.6797,-3.6161,-3.543,-3.5095,-3.4947,-3.4804,-3.4763,-3.4707,-3.4126,-3.4239,-3.451,-3.4075,-3.4535,-3.5117,-3.5117,-3.5324,-3.5574,-3.5574,-3.5574,-3.5574,-3.5574,-3.5574,-3.5574,-3.5574,-3.5574,-3.5574,-3.5574,-3.4943,-3.4355,-3.4096,-3.3846,-3.3694,-3.3694,-3.3617,-3.381,-3.4387,-3.4467,-3.4671,-3.51,-3.4597,-3.4025,-3.3588,-3.3499,-3.3141,-3.2406,-3.2407,-3.2437,-3.2437,-3.192,-3.1673,-3.1749,-3.1007,-3.0721,-3.074,-3.0582,-3.0103,-2.5501,-2.5889,-2.6222,-2.7514,-2.8241,-2.8853,-2.9637,-2.9794,-3.0132,-3.142,-3.1627,-3.2032,-3.3495,-3.387,-3.4635,-3.6685,-3.721,-3.7538,-3.8118,-3.8209,-3.8209,-3.8209,-3.8408,-3.8535,-3.8535,-3.8585,-3.8961,-3.9827,-4.0204,-4.0928,-4.2147,-4.2388,-4.2755,-4.341,-4.3411,-4.3178,-4.2729,-4.2749,-4.2536,-4.2145,-4.2076,-4.2055,-4.2103,-4.203,-4.2136,-4.2381,-4.2402,-4.2611,-4.2947,-4.3161,-4.3126,-4.2947,-4.3179,-4.3001,-4.2329,-3.9826,-3.8179,-3.7055,-3.5669,-3.5197,-3.5164,-3.4965,-3.4899,-3.4804,-3.425,-3.4431,-3.4707,-3.4181,-3.4525,-3.5094,-3.5094,-3.5236,-3.5394,-3.5394,-3.5394,-3.5394,-3.5394,-3.5394,-3.5394,-3.5394,-3.5394,-3.5394,-3.5394,-3.4778,-3.4288,-3.4288,-3.3906,-3.3581,-3.3581,-3.3662,-3.3858,-3.4268,-3.4325,-3.4595,-3.5112,-3.5014,-3.4779,-3.4423,-3.4423,-3.4242,-3.3864,-3.3924,-3.3924,-3.3924,-3.3209,-3.2671,-3.2322,-3.1683,-3.1132,-3.0726,-3.0754,-3.0754,-2.3145,-2.4479,-2.5821,-2.749,-2.8827,-3.0168,-3.1819,-3.2197,-3.2433,-3.3255,-3.3364,-3.3604,-3.4491,-3.5201,-3.5953,-3.6946,-3.7697,-3.8172,-3.8209,-3.8209,-3.8209,-3.8209,-3.888,-3.9351,0.0,-3.9386,-3.9729,-4.0597,-4.1396,-4.1886,-4.2012,-4.2759,-4.3178,-4.3214,-4.334,-4.3196,-4.2803,-4.2862,-4.2689,-4.2287,-4.2145,-4.2103,-4.2103,-4.203,-4.2395,-4.3067,-4.3215,-4.375,-4.4585,-4.5374,-4.5231,-4.4603,-4.5392,-4.4785,-4.3401,-4.2851,-4.1346,-3.9261,-3.6815,-3.5976,-3.5843,-3.5131,-3.4899,-3.4804,-3.425,-3.4117,-3.4032,-3.3482,-3.3814,-3.432,-3.432,-3.4857,-3.5394,-3.5394,-3.5394,-3.5394,-3.5394,-3.5394,-3.5394,-3.5394,-3.5394,-3.5394,-3.5394,-3.4778,-3.4288,-3.4288,-3.3735,-3.3293,-3.3293,-3.3889,-3.4273,-3.4288,-3.4428,-3.4998,-3.624,-3.5803,-3.5459,-3.5459,-3.5459,-3.4865,-3.3577,-3.3698,-3.3819,-3.3819,-3.3894,-3.3337,-3.2122,-3.2522,-3.1952,-3.0507,-3.0987,-3.115,-2.3965,-2.6311,-2.904,-2.9826,-3.0753,-3.1742,-3.2837,-3.3049,-3.3111,-3.3383,-3.2528,-3.2169,-3.3582,-3.3979,-3.4744,-3.6703,-3.77,-3.839,-3.8933,-3.8553,-3.8408,-3.8916,-3.9224,-3.9804,0.0,0.0,0.0,-4.1433,-4.1741,-4.2159,-4.2759,-4.3014,-4.3142,-4.3196,-4.3196,-4.3141,-4.3011,-4.3012,-4.2842,-4.251,-4.2181,-4.1991,-4.1909,-4.1797,-4.2225,-4.3138,-4.3696,-4.4503,-4.5463,-4.6266,-4.6444,-4.6212,-4.648,-4.6266,-4.5682,-4.4612,-4.3763,-4.2775,-4.0147,-3.9025,-3.8689,-3.8437,-3.8095,-3.7564,-3.6233,-3.5827,-3.5512,-3.3992,-3.374,-3.3863,-3.3678,-3.3814,-3.4004,-3.4004,-3.4004,-3.4004,-3.4004,-3.4004,-3.4004,-3.4004,-3.4004,-3.4146,-3.4589,-3.4099,-3.364,-3.364,-3.3435,-3.3309,-3.3309,-3.3498,-3.3799,-3.4241,-3.4329,-3.493,-3.6269,-3.6203,-3.6319,-3.6803,-3.6835,-3.662,-3.6161,-3.6221,-3.5824,-3.4941,-3.4285,-3.3288,-3.1965,-3.1419,-3.0862,-3.037,-3.0679,-3.0795,-2.6017,-2.8209,-3.0542,-3.1339,-3.1901,-3.2474,-3.3281,-3.3422,-3.3393,-3.3393,-3.23,-3.1657,-3.2806,-3.2929,-3.3497,-3.5434,-3.6413,-3.7286,-3.839,-3.8354,-3.8499,-3.9297,-3.9894,-4.0619,-4.1596,0.0,0.0,-4.2232,-4.225,-4.2505,-4.305,-4.305,-4.305,-4.3087,-4.3105,-4.3067,-4.2992,-4.3012,-4.2842,-4.249,-4.2157,-4.2065,-4.2185,-4.207,-4.2718,-4.392,-4.4483,-4.5252,-4.6198,-4.6783,-4.6998,-4.6998,-4.6998,-4.6957,-4.6835,-4.5912,-4.5569,-4.5074,-4.1999,-4.0694,-4.0366,-3.996,-3.9582,-3.9063,-3.7857,-3.7265,-3.6714,-3.5256,-3.4627,-3.4303,-3.4036,-3.3981,-3.4036,-3.3954,-3.3981,-3.4051,-3.4051,-3.4051,-3.4051,-3.4051,-3.4051,-3.4178,-3.4604,-3.4336,-3.4051,-3.4051,-3.4051,-3.3878,-3.3372,-3.3309,-3.3467,-3.3893,-3.4146,-3.4668,-3.5584,-3.6108,-3.6582,-3.7069,-3.7338,-3.751,-3.751,-3.751,-3.7095,-3.6238,-3.5554,-3.4277,-3.2477,-3.1881,-3.1054,-3.006,-3.0313,-3.051,-2.8852,-2.9944,-3.0428,-3.191,-3.2282,-3.2469,-3.323,-3.3393,-3.3393,-3.3357,-3.2611,-3.2018,-3.2155,-3.2129,-3.243,-3.3408,-3.4253,-3.5331,-3.6904,-3.7792,-3.8571,-3.9351,-4.0782,-4.1723,-4.1759,-4.3136,0.0,-4.2973,0.0,-4.2955,-4.2901,-4.2901,-4.2901,-4.2901,-4.3012,-4.3011,-4.2821,-4.2862,-4.2709,-4.2328,-4.2094,-4.233,-4.2926,-4.2826,-4.371,-4.5305,-4.5446,-4.5987,-4.6795,-4.6911,-4.698,-4.6998,-4.6998,-4.6911,-4.6819,-4.6778,-4.6708,-4.6087,-4.2484,-4.1244,-4.1073,-3.9981,-3.9621,-3.9524,-3.9171,-3.8504,-3.7715,-3.7102,-3.631,-3.5578,-3.5194,-3.525,-3.5351,-3.515,-3.525,-3.5394,-3.5394,-3.5394,-3.5394,-3.5394,-3.5394,-3.5394,-3.5394,-3.5394,-3.5394,-3.5394,-3.5394,-3.492,-3.3577,-3.3372,-3.3356,-3.3356,-3.3878,-3.4257,-3.4288,-3.5537,-3.6298,-3.6345,-3.7006,-3.7415,-3.7447,-3.7447,-3.7417,-3.7387,-3.7387,-3.61,-3.3486,-3.3773,-3.2431,-2.969,-3.0117,-3.0382,-2.8696,-3.0613,-3.246,-3.2272,-3.2636,-3.3084,-3.3342,-3.3393,-3.323,-3.2632,-3.1345,-3.0342,-3.0432,-3.1355,-3.2593,-3.4078,-3.5998,-3.7631,-3.8662,-3.8952,-3.9369,-4.013,-4.1089,-4.194,-4.2538,-4.2955,0.0,0.0,-4.3463,-4.3516,-4.2937,-4.2901,-4.2901,-4.2901,-4.2938,-4.2975,-4.303,-4.2785,-4.2688,-4.2667,-4.2219,-4.2373,-4.3059,-4.2926,-4.3744,-4.5305,-4.5352,-4.5847,-4.6661,-4.6684,-4.6754,-4.6842,-4.6842,-4.6888,-4.6911,-4.6708,-4.6637,-4.6406,-4.4938,-4.4492,-4.4535,-4.4242,-4.3835,-4.3186,-4.1711,-4.1124,-4.0434,-3.7905,-3.6952,-3.6474,-3.5389,-3.515,-3.515,-3.5122,-3.525,-3.5394,-3.5394,-3.5394,-3.5394,-3.5394,-3.5394,-3.5394,-3.5394,-3.5394,-3.5394,-3.5394,-3.5394,-3.5268,-3.4905,-3.4383,-3.4036,-3.4036,-3.3751,-3.3751,-3.4257,-3.462,-3.5063,-3.5616,-3.5821,-3.6153,-3.6674,-3.669,-3.647,-3.6009,-3.6009,-3.5185,-3.3486,-3.3559,-3.2743,-3.111,-3.1668,-3.1408,-3.0116,-3.1761,-3.3248,-3.2806,-3.2997,-3.3217,-3.2944,-3.2857,-3.2607,-3.1836,-3.0622,-2.962,-2.9324,-3.0243,-3.1476,-3.2799,-3.4751,-3.6633,-3.817,-3.8969,-3.9694,-4.0491,-4.156,-4.2393,-4.2846,-4.3227,-4.3262,0.0,-4.3336,-4.3371,-4.2919,-4.2901,-4.2901,-4.2901,-4.2901,-4.2938,-4.3012,-4.267,-4.2532,-4.2609,-4.2477,-4.2803,-4.3562,-4.3761,-4.4525,-4.5686,0.0,-4.6106,-4.6518,-4.6637,-4.6684,-4.6708,-4.6708,-4.6708,-4.6708,-4.6566,-4.6471,-4.6374,-4.6005,-4.5905,-4.5912,-4.5537,-4.5178,-4.4674,-4.3449,-4.2566,-4.1531,-3.9279,-3.806,-3.7226,-3.62,-3.599,-3.6016,-3.6016,-3.6164,-3.6311,-3.6311,-3.6311,-3.6311,-3.6311,-3.6311,-3.6311,-3.6311,-3.6311,-3.6311,-3.6311,-3.6311,-3.6311,-3.6311,-3.541,-3.4778,-3.4778,-3.4446,-3.4367,-3.4747,-3.5047,-3.541,-3.5821,-3.6137,-3.6485,-3.6864,-3.688,-3.6733,-3.6375,-3.6375,-3.5718,-3.4379,-3.4379,-3.3713,-3.2446,-3.2535,-3.2254,-3.2054,-3.29,-3.3232,-3.3277,-3.331,-3.3123,-3.235,-3.2068,-3.1697,-3.0862,-3.0062,-2.9313,-2.8574,-2.9127,-3.0067,-3.1161,-3.2683,-3.4561,-3.6926,-3.8676,-4.0001,-4.0743,-4.205,-4.2955,-4.3064,-4.3588,-4.3643,-4.2955,-4.2901,-4.2901,-4.2901,-4.2901,-4.2901,-4.2901,-4.2901,-4.2901,-4.2901,-4.2591,-4.2486,-4.2573,-4.2831,-4.3424,-4.4278,-4.487,-4.5519,-4.6196,-4.6464,0.0,-4.6398,-4.6613,-4.6661,-4.6566,-4.6566,-4.6501,-4.6405,-4.6423,-4.6326,-4.6221,-4.6196,-4.6196,-4.6073,-4.5328,-4.5072,-4.4974,-4.4412,-4.3317,-4.195,-4.0648,-3.9237,-3.7982,-3.7277,-3.7137,-3.7164,-3.7164,-3.7329,-3.751,-3.751,-3.751,-3.751,-3.751,-3.751,-3.751,-3.751,-3.751,-3.751,-3.751,-3.751,-3.751,-3.751,-3.6342,-3.5521,-3.5521,-3.5442,-3.5394,-3.5394,-3.5947,-3.6266,-3.6266,-3.6864,-3.7273,-3.7368,-3.7338,-3.7415,-3.751,-3.751,-3.6927,-3.5765,-3.5765,-3.5078,-3.3758,-3.3355,-3.3176,-3.224,-3.2703,-3.288,-3.3232,-3.3337,-3.3164,-3.2311,-3.1635,-3.0758,-2.9253,-2.8869,-2.8538,-2.7687,-2.8755,-3.0491,-3.2718,-3.4421,-3.609,-3.7853,-4.0034,-4.147,-4.1524,-4.2339,-4.3173,-4.3824,-4.3407,0.0,0.0,-4.2901,-4.2901,-4.2901,-4.2901,-4.2901,-4.2901,-4.2901,-4.2901,-4.2901,-4.267,-4.2853,-4.3396,-4.3284,-4.3881,-4.5112,-4.5211,-4.5615,-4.6196,-4.6246,0.0,-4.6246,-4.6295,-4.6368,-4.6429,-4.6429,-4.6495,-4.6542,-4.6429,-4.6398,-4.635,-4.6246,-4.6196,-4.6172,-4.603,-4.598,-4.5715,-4.4291,-4.3912,-4.3429,-4.0921,-3.9791,-3.9044,-3.7872,-3.7312,-3.703,-3.703,-3.7271,-3.751,-3.751,-3.751,-3.751,-3.751,-3.751,-3.751,-3.751,-3.751,-3.751,-3.751,-3.751,-3.751,-3.751,-3.6753,-3.6219,-3.6219,-3.5726,-3.5394,-3.5394,-3.5505,-3.5568,-3.5568,-3.5679,-3.6011,-3.6579,-3.6582,-3.688,-3.7494,-3.751,-3.7387,-3.7172,-3.7172,-3.6452,-3.517,-3.5569,-3.4896,-3.2327,-3.2752,-3.2959,-3.3229,-3.3259,-3.2934,-3.1758,-3.0884,-2.9863,-2.8254,-2.7616,-2.7351,-2.735,-2.8008,-2.9362,-3.186,-3.392,-3.5659,-3.6921,-3.9799,-4.1814,-4.1796,-4.2829,-4.3824,-4.4639,-4.3987,-4.3516,-4.3516,-4.3155,-4.2901,-4.2901,-4.2901,-4.2901,-4.2901,-4.2901,-4.2901,-4.2901,-4.2689,-4.2887,-4.351,-4.3721,-4.4291,-4.5211,-4.5598,-4.5936,-4.6196,-4.6253,0.0,-4.6214,-4.6295,-4.6301,-4.6319,-4.6319,-4.6343,-4.6374,-4.6326,-4.6319,-4.6295,-4.6221,-4.6196,-4.6196,-4.6196,-4.6196,-4.6027,-4.5027,-4.4611,-4.4007,-4.1769,-4.0402,-3.934,-3.8169,-3.7359,-3.6892,-3.7059,-3.7315,-3.751,-3.751,-3.751,-3.751,-3.751,-3.751,-3.751,-3.751,-3.751,-3.751,-3.751,-3.751,-3.751,-3.751,-3.718,-3.6975,-3.6975,-3.6674,-3.6498,-3.6498,-3.6498,-3.6498,-3.6498,-3.6498,-3.6627,-3.6959,-3.6975,-3.7133,-3.7494,-3.751,-3.751,-3.751,-3.751,-3.7172,-3.6544,-3.609,-3.5349,-3.206,-3.266,-3.3039,-3.3247,-3.3214,-3.2697,-3.1008,-3.0012,-2.8943,-2.7224,-2.6368,-2.6181,-2.6977,-2.7121,-2.8009,-3.0693,-3.2795,-3.4555,-3.5821,-3.9164,-4.1633,-4.205,-4.3301,-4.4476,-4.5454,-4.482,0.0,-4.4349,-4.3607,-4.3063,-4.2919,-4.2901,-4.2901,-4.2901,-4.2901,-4.2901,-4.2901,-4.2747,-4.2996,-4.3675,-4.4143,-4.471,-4.5361,-4.5933,-4.6196,-4.6214,-4.6301,0.0,0.0,-4.6301,-4.6319,-4.6196,-4.6196,-4.6196,-4.6196,-4.6196,-4.6196,-4.6196,-4.6196,-4.6196,-4.6196,-4.6196,-4.6196,-4.6087,-4.5518,-4.4975,-4.4224,-4.2591,-4.1012,-3.9583,-3.8588,-3.7592,-3.6937,-3.7148,-3.7359,-3.751,-3.751,-3.751,-3.751,-3.751,-3.751,-3.751,-3.751,-3.751,-3.751,-3.751,-3.751,-3.751,-3.751,-3.751,-3.751,-3.751,-3.751,-3.751,-3.751,-3.751,-3.751,-3.751,-3.751,-3.751,-3.751,-3.751,-3.751,-3.751,-3.751,-3.751,-3.751,-3.751,-3.7421,-3.7255,-3.6149,-3.5464,-3.1075,-3.2107,-3.2753,-3.3201,-3.3292,-3.2649,-3.0264,-2.9143,-2.7949,-2.5613,-2.5125,-2.5339,-2.6086,-2.6212,-2.7314,-3.0657,-3.1924,-3.3334,-3.5672,-3.8758,-4.1288,-4.2648,-4.3571,-4.4693,-4.625,-4.5653,-4.5182,-4.5182,-4.444,-4.3661,-4.2955,-4.2901,-4.2901,-4.2901,-4.2901,-4.2901,-4.2901,-4.2882,-4.3426,-4.4496,-4.4545,-4.5118,-4.6109,-4.6161,-4.6196,-4.6196,-4.6196,0.0,0.0,-4.6196,-4.6196,-4.6196,-4.6196,-4.6196,-4.6196,-4.6196,-4.6196,-4.6196,-4.6196,-4.6196,-4.6196,-4.6196,-4.6196,-4.5982,-4.4943,-4.4647,-4.4381,-4.2941,-4.1609,-4.0423,-3.9578,-3.8426,-3.7458,-3.7238,-3.7359,-3.751,-3.751,-3.751,-3.751,-3.751,-3.751,-3.751,-3.751,-3.751,-3.751,-3.751,-3.751,-3.751,-3.751,-3.751,-3.751,-3.751,-3.751,-3.751,-3.751,-3.751,-3.751,-3.751,-3.751,-3.751,-3.751,-3.751,-3.751,-3.751,-3.751,-3.751,-3.751,-3.751,-3.715,-3.6492,-3.6368,-3.5627,-3.0198,-3.141,-3.1969,-3.1887,-3.1791,-3.1247,-2.9364,-2.7954,-2.6669,-2.5249,-2.4599,-2.4653,-2.5922,-2.5753,-2.639,-2.9277,-3.1142,-3.2637,-3.3743,-3.7376,-4.0327,-4.1434,-4.3065,-4.4729,0.0,0.0,-4.5617,-4.4639,-4.3824,0.0,-4.2919,-4.2901,-4.2901,-4.2901,-4.2901,-4.2901,-4.2901,-4.3371,-4.3951,-4.4603,-4.5106,-4.5638,-4.6196,-4.6196,-4.6196,-4.6196,-4.6196,0.0,0.0,-4.6196,-4.6196,-4.6196,-4.6196,-4.6196,-4.6196,-4.6196,-4.6196,-4.6196,-4.6196,-4.6196,-4.6196,-4.6196,-4.6196,-4.6119,-4.5663,-4.544,-4.5136,-4.4135,-4.2663,-4.1184,-4.0415,-3.8999,-3.7666,-3.718,-3.7285,-3.751,-3.751,-3.751,-3.751,-3.751,-3.751,-3.751,-3.751,-3.751,-3.751,-3.751,-3.751,-3.751,-3.751,-3.751,-3.751,-3.751,-3.751,-3.751,-3.751,-3.751,-3.751,-3.751,-3.751,-3.751,-3.751,-3.751,-3.751,-3.751,-3.751,-3.751,-3.751,-3.751,-3.7119,-3.6399,-3.5976,-3.524,-2.8734,-3.0285,-3.1197,-3.0966,-3.0646,-2.9982,-2.8463,-2.7059,-2.5799,-2.4838,-2.4187,-2.4285,-2.5903,-2.5751,-2.6123,-2.8409,-3.0516,-3.201,-3.2411,-3.6054,-3.9095,-4.0182,-4.214,-4.4114,-4.5979,-4.6359,-4.5924,-4.4548,-4.3697,0.0,-4.29,-4.2901,-4.2901,-4.2901,-4.2901,-4.2901,-4.2901,-4.3463,-4.4023,-4.4603,-4.5178,-4.5709,-4.6196,-4.6196,-4.6196,-4.6196,-4.6196,0.0,0.0,-4.6196,-4.6196,-4.6196,-4.6196,-4.6196,-4.6196,-4.6196,-4.6196,-4.6196,-4.6196,-4.6196,-4.6196,-4.6196,-4.6196,-4.6196,-4.6196,-4.6005,-4.5684,-4.5089,-4.3411,-4.1619,-4.0893,-3.9307,-3.7852,-3.7479,-3.7413,-3.7435,-3.748,-3.751,-3.751,-3.751,-3.751,-3.751,-3.751,-3.751,-3.751,-3.751,-3.751,-3.751,-3.751,-3.751,-3.751,-3.751,-3.751,-3.751,-3.751,-3.751,-3.751,-3.751,-3.751,-3.751,-3.751,-3.751,-3.751,-3.751,-3.751,-3.751,-3.751,-3.751,-3.7119,-3.6368,-3.5721,-3.4894,-2.6419,-2.8642,-3.0487,-3.0808,-3.0255,-2.9188,-2.7574,-2.659,-2.5584,-2.4107,-2.3804,-2.4285,-2.5903,-2.6192,-2.6764,-2.8518,-3.0101,-3.1415,-3.2283,-3.506,-3.7629,-3.9223,-4.0782,-4.2664,-4.5073,-4.6033,-4.616,-4.5345,-4.453,0.0,-4.2955,-4.2901,-4.2901,-4.2901,-4.2901,-4.2901,-4.2901,-4.2919,-4.3482,-4.4603,-4.4603,-4.5176,-4.6196,-4.6196,-4.6196,0.0,0.0,0.0,0.0,-4.6196,-4.6196,-4.6196,-4.6196,-4.6196,-4.6196,-4.6196,-4.6196,-4.6196,-4.6196,-4.6196,-4.6196,-4.6196,-4.6196,-4.6196,-4.6196,-4.6005,-4.5735,-4.5468,-4.367,-4.1637,-4.0893,-3.9347,-3.8044,-3.8231,-3.7712,-3.7254,-3.7464,-3.751,-3.751,-3.751,-3.751,-3.751,-3.751,-3.751,-3.751,-3.751,-3.751,-3.751,-3.751,-3.751,-3.751,-3.751,-3.751,-3.751,-3.751,-3.751,-3.751,-3.751,-3.751,-3.751,-3.751,-3.751,-3.751,-3.751,-3.751,-3.751,-3.751,-3.751,-3.7119,-3.6368,-3.5721,-3.4658,-2.4082,-2.5862,-2.7148,-2.6928,-2.7006,-2.689,-2.5924,-2.5041,-2.4305,-2.389,-2.3807,-2.4285,-2.5903,-2.6204,-2.6571,-2.7736,-2.9668,-3.097,-3.0848,-3.4397,-3.7426,-3.8578,-4.1941,-4.4892,0.0,0.0,-4.6178,-4.5363,0.0,0.0,-4.2955,-4.3407,-4.3462,-4.2919,-4.2901,-4.2901,-4.2901,-4.3444,-4.4023,-4.4603,-4.516,-4.5691,-4.6196,-4.6196,-4.6196,0.0,0.0,0.0,0.0,-4.6196,-4.6196,-4.6196,-4.6196,-4.6196,-4.6196,-4.6196,-4.6196,-4.6196,-4.6196,-4.6196,-4.6196,-4.6196,-4.6196,-4.6196,-4.6196,-4.5879,-4.5321,-4.4302,-4.3489,-4.256,-4.1069,-4.0329,-3.9698,-3.8557,-3.8197,-3.7973,-3.7575,-3.751,-3.751,-3.751,-3.751,-3.751,-3.751,-3.751,-3.751,-3.751,-3.751,-3.751,-3.751,-3.751,-3.751,-3.751,-3.751,-3.751,-3.751,-3.751,-3.751,-3.751,-3.751,-3.751,-3.751,-3.751,-3.751,-3.751,-3.751,-3.751,-3.751,-3.751,-3.6892,-3.5689,-3.4978,-3.4172,-2.2524,-2.4331,-2.5663,-2.5409,-2.5487,-2.5505,-2.5061,-2.4335,-2.3754,-2.3785,-2.3792,-2.4288,-2.5903,-2.6227,-2.6703,-2.8167,-2.9891,-3.1211,-3.1759,-3.4818,-3.7662,-3.9434,-4.2721,0.0,0.0,-4.6631,-4.6287,-4.5798,0.0,0.0,-4.3824,-4.4277,-4.4313,-4.3806,-4.3517,-4.3498,-4.3788,-4.3987,-4.4419,-4.5071,-4.557,-4.5939,-4.6196,-4.6196,-4.6196,0.0,0.0,0.0,0.0,-4.6196,-4.6196,-4.6196,-4.6196,-4.6196,-4.6196,-4.6196,-4.6196,-4.6196,-4.6196,-4.6196,-4.6196,-4.6196,-4.6196,-4.6172,-4.6097,-4.5752,-4.5233,-4.4397,-4.3726,-4.3032,-4.1881,-4.1137,-4.0423,-3.9423,-3.8779,-3.8336,-3.797,-3.77,-3.751,-3.751,-3.751,-3.751,-3.751,-3.751,-3.751,-3.751,-3.751,-3.751,-3.751,-3.751,-3.751,-3.751,-3.751,-3.751,-3.751,-3.751,-3.751,-3.751,-3.751,-3.751,-3.751,-3.751,-3.751,-3.751,-3.751,-3.751,-3.751,-3.751,-3.68,-3.54,-3.4927,-3.4206,0.0,-2.375,-2.5563,-2.5655,-2.529,-2.4895,-2.4836,-2.4288,0.0,-2.3795,-2.3806,-2.4284,-2.5914,-2.6243,-2.707,-2.9426,-3.0534,-3.1915,-3.4276,-3.6191,-3.8499,0.0,-4.3335,0.0,-4.5399,-4.616,-4.6558,0.0,0.0,0.0,-4.5291,-4.5345,-4.5399,-4.5399,-4.4657,-4.4603,-4.5291,-4.4548,-4.4725,-4.5824,-4.5802,-4.5962,-4.6221,-4.6196,-4.6196,0.0,0.0,0.0,0.0,-4.6196,-4.6196,-4.6196,-4.6196,-4.6196,-4.6196,-4.6196,-4.6196,-4.6196,-4.6196,-4.6196,-4.6196,-4.6196,-4.6196,-4.6147,-4.5887,-4.5632,-4.5415,-4.5389,-4.4328,-4.3218,-4.3127,-4.1819,-4.0496,-4.0513,-3.944,-3.8386,-3.8429,-3.7938,-3.751,-3.751,-3.751,-3.751,-3.751,-3.751,-3.751,-3.751,-3.751,-3.751,-3.751,-3.751,-3.751,-3.751,-3.751,-3.751,-3.751,-3.751,-3.751,-3.751,-3.751,-3.751,-3.751,-3.751,-3.751,-3.751,-3.751,-3.751,-3.751,-3.751,-3.68,-3.54,-3.54,-3.4658,-2.0237,0.0,-2.318,-2.3408,-2.3771,-2.4074,0.0,-2.3919,-2.3803,-2.3795,-2.3806,-2.4284,-2.5914,-2.6243,-2.6877,-2.8619,-3.0184,-3.1783,-3.3528,-3.7766,0.0,-4.415,-4.5327,-4.625,-4.7065,-4.7319,-4.7174,0.0,0.0,-4.5943,-4.5327,-4.5888,-4.6214,-4.6214,-4.6033,-4.5725,-4.5291,-4.511,-4.5348,-4.6029,-4.5873,-4.6054,-4.6495,-4.6295,-4.6196,0.0,0.0,0.0,-4.6196,-4.6196,-4.6196,-4.6196,-4.6196,-4.6196,-4.6196,-4.6196,-4.6196,-4.6196,-4.6196,-4.6196,-4.6196,-4.6196,-4.6196,-4.6196,-4.6122,-4.593,-4.5606,-4.5203,-4.4824,-4.4333,-4.3339,-4.2751,-4.1974,-4.0198,-3.9471,-3.895,-3.7938,-3.7621,-3.751,-3.751,-3.751,-3.751,-3.751,-3.751,-3.751,-3.751,-3.751,-3.751,-3.751,-3.751,-3.751,-3.751,-3.751,-3.751,-3.751,-3.751,-3.751,-3.751,-3.751,-3.751,-3.751,-3.751,-3.751,-3.751,-3.751,-3.751,-3.751,-3.751,-3.68,-3.54,-3.54,-3.4658,-1.9868,-2.0812,-2.1852,-2.201,-2.2679,-2.3291,-2.3288,-2.356,-2.3806,-2.3806,-2.4085,-2.473,-2.6014,-2.6848,-2.7894,-2.9522,-3.1461,-3.3441,-3.539,0.0,-4.1941,-4.397,-4.491,-4.5997,0.0,0.0,0.0,0.0,0.0,-4.6866,-4.6432,-4.6812,-4.7065,-4.7065,-4.7065,-4.6848,-4.6413,-4.6051,-4.6068,-4.6498,-4.6405,-4.6369,-4.6398,-4.627,-4.6196,0.0,0.0,0.0,-4.6196,-4.6196,-4.6196,-4.6196,-4.6196,-4.6196,-4.6196,-4.6196,-4.6196,-4.6196,-4.6196,-4.6196,-4.6196,-4.6196,-4.6196,-4.6196,-4.6196,-4.6097,-4.5879,-4.5336,-4.4763,-4.4128,-4.3309,-4.2758,-4.2012,-4.0388,-3.9756,-3.9218,-3.8175,-3.7731,-3.751,-3.751,-3.751,-3.751,-3.751,-3.751,-3.751,-3.751,-3.751,-3.751,-3.751,-3.751,-3.751,-3.751,-3.751,-3.751,-3.751,-3.751,-3.751,-3.751,-3.751,-3.751,-3.751,-3.751,-3.751,-3.751,-3.751,-3.751,-3.751,-3.715,-3.643,-3.54,-3.5059,-3.4308,-1.9761,-2.0518,-2.1247,-2.1314,-2.2018,-2.2704,-2.2691,-2.327,-2.3806,-2.3806,-2.4429,-2.5266,-2.612,-2.7574,-2.9176,-3.0891,-3.3412,0.0,-3.8262,-4.0111,-4.1741,-4.3099,-4.4077,0.0,-4.7518,0.0,0.0,0.0,0.0,-4.7717,-4.7717,-4.7717,-4.7717,-4.7717,-4.7717,-4.7678,-4.7636,-4.6949,-4.6758,-4.7048,-4.698,-4.6702,-4.6246,-4.6221,-4.6196,-4.6196,0.0,0.0,-4.6196,-4.6196,-4.6196,-4.6196,-4.6196,-4.6196,-4.6196,-4.6196,-4.6196,-4.6196,-4.6196,-4.6196,-4.6196,-4.6196,-4.6196,-4.6196,-4.6196,-4.6196,-4.6097,-4.5598,-4.4674,-4.3731,-4.3292,-4.2522,-4.1628,-4.0641,-3.9961,-3.9297,-3.8492,-3.7891,-3.751,-3.751,-3.751,-3.751,-3.751,-3.751,-3.751,-3.751,-3.751,-3.751,-3.751,-3.751,-3.751,-3.751,-3.751,-3.751,-3.751,-3.751,-3.751,-3.751,-3.751,-3.751,-3.751,-3.751,-3.751,-3.751,-3.751,-3.751,-3.751,-3.6892,-3.6212,-3.5529,-3.4813,-3.4104,-1.8939,-2.0152,-2.1402,-2.1451,-2.2087,-2.2704,-2.2691,-2.327,-2.3806,-2.3806,-2.4429,-2.5244,-2.607,-2.7574,-2.9196,-3.0771,-3.4748,-3.828,0.0,0.0,-4.4657,-4.4892,0.0,-4.7301,-4.7642,0.0,0.0,0.0,0.0,-4.7717,-4.7717,-4.7717,-4.7717,-4.7717,-4.7717,-4.7593,-4.7363,-4.7237,-4.7194,-4.7254,-4.6847,-4.6613,-4.6518,-4.6295,-4.6196,-4.6196,0.0,-4.6196,-4.6196,-4.6196,-4.6196,-4.6196,-4.6196,-4.6196,-4.6196,-4.6196,-4.6196,-4.6196,-4.6196,-4.6196,-4.6196,-4.6196,-4.6196,-4.6196,-4.6196,-4.6196,-4.6147,-4.5829,-4.5589,-4.5135,-4.3806,-4.3333,-4.2566,-4.0087,-3.9487,-3.9108,-3.7679,-3.7438,-3.751,-3.751,-3.751,-3.751,-3.751,-3.751,-3.751,-3.751,-3.751,-3.751,-3.751,-3.751,-3.751,-3.751,-3.751,-3.751,-3.751,-3.751,-3.751,-3.751,-3.751,-3.751,-3.751,-3.751,-3.751,-3.751,-3.751,-3.751,-3.751,-3.7375,-3.6952,-3.6228,-3.5561,-3.4828,-1.8843,-1.948,-2.0381,-2.1279,-2.2768,-2.4091,-2.4502,-2.519,-2.5762,-2.5789,-2.6408,-2.7085,-2.7519,-2.925,-3.1533,-3.4422,-3.6792,-3.8658,-3.982,-4.156,-4.3027,0.0,0.0,-4.6269,0.0,0.0,0.0,0.0,0.0,0.0,-4.7717,-4.7717,-4.7717,-4.7717,-4.7717,-4.7554,-4.7302,-4.7187,-4.7075,-4.6921,-4.669,-4.6518,-4.6392,-4.6246,-4.6196,-4.6196,0.0,-4.6196,-4.6196,-4.6196,-4.6196,-4.6196,-4.6196,-4.6196,-4.6196,-4.6196,-4.6196,-4.6196,-4.6196,-4.6196,-4.6196,-4.6196,-4.6196,-4.6196,-4.6196,-4.6196,-4.6172,-4.6055,-4.5735,-4.5091,-4.3698,-4.2914,-4.1969,-3.9803,-3.9125,-3.8666,-3.758,-3.7435,-3.751,-3.751,-3.751,-3.751,-3.751,-3.751,-3.751,-3.751,-3.751,-3.751,-3.751,-3.751,-3.751,-3.751,-3.751,-3.751,-3.751,-3.751,-3.751,-3.751,-3.751,-3.751,-3.751,-3.751,-3.751,-3.751,-3.751,-3.751,-3.751,-3.7495,-3.7313,-3.6984,-3.6693,-3.6347,-1.8905,-1.927,-1.9963,-2.1198,-2.2885,-2.4577,-2.5873,-2.6639,-2.726,-2.7882,-2.8637,-2.9199,-2.93,-3.1052,-3.3737,-3.7593,-3.8404,-3.8965,-4.0057,-4.0872,-4.1796,-4.3027,-4.4059,0.0,0.0,0.0,0.0,0.0,0.0,0.0,-4.7717,-4.7717,-4.7717,-4.7717,-4.7717,-4.7551,-4.7232,-4.707,-4.6865,-4.659,-4.6542,-4.6398,-4.6196,-4.6196,-4.6196,-4.6196,-4.6196,-4.6196,-4.6196,-4.6196,-4.6196,-4.6196,-4.6196,-4.6196,-4.6196,-4.6196,-4.6196,-4.6196,-4.6196,-4.6196,-4.6196,-4.6196,-4.6074,-4.5933,-4.5933,-4.5933,-4.5933,-4.586,-4.545,-4.476,-4.3664,-4.2752,-4.1652,-3.9755,-3.9015,-3.8477,-3.7624,-3.748,-3.751,-3.751,-3.751,-3.751,-3.751,-3.751,-3.751,-3.751,-3.751,-3.751,-3.751,-3.751,-3.751,-3.751,-3.751,-3.751,-3.751,-3.751,-3.751,-3.751,-3.751,-3.751,-3.751,-3.751,-3.7589,-3.7747,-3.7717,-3.7796,-3.7984,-3.7951,-3.7979,-3.7948,-3.7806,-3.7748,-1.8967,-2.0129,-2.136,-2.1479,-2.1578,-2.2443,-2.5431,-2.6153,-2.6826,-2.9083,-3.022,-3.0835,-3.0849,-3.2212,-3.4389,-3.7683,-3.8825,-4.0111,-4.2339,0.0,-4.3878,-4.3987,-4.5381,0.0,0.0,0.0,0.0,0.0,0.0,0.0,-4.7717,-4.7717,-4.7717,-4.7717,-4.7717,-4.7486,-4.7043,-4.702,-4.6865,-4.659,-4.6343,-4.6221,-4.6196,-4.6196,-4.6196,-4.6196,-4.6196,-4.6196,-4.6196,-4.6196,-4.6196,-4.6196,-4.6196,-4.6196,-4.6196,-4.6196,-4.6196,-4.6196,-4.6196,-4.6196,-4.6196,-4.6196,-4.574,-4.5185,-4.5185,-4.5185,-4.5137,-4.4893,-4.4811,-4.4681,-4.4011,-4.3606,-4.2679,-3.996,-3.9377,-3.9029,-3.7537,-3.7359,-3.751,-3.751,-3.751,-3.751,-3.751,-3.751,-3.751,-3.751,-3.751,-3.751,-3.751,-3.751,-3.751,-3.751,-3.751,-3.751,-3.751,-3.751,-3.751,-3.751,-3.751,-3.751,-3.751,-3.751,-3.778,-3.8428,-3.8444,-3.8744,-3.936,-3.9377,-3.9361,-3.933,-3.8724,-3.8429,-1.9008,-2.0219,-2.1458,-2.1488,-2.2164,-2.3671,-2.6862,-2.7974,-2.9016,-3.1387,-3.2137,-3.2509,-3.3015,-3.5318,-3.7359,-3.8082,-3.9677,-4.1126,-4.2031,-4.2807,-4.3474,-4.3981,0.0,0.0,0.0,0.0,0.0,0.0,0.0,0.0,-4.6026,-4.6026,-4.6026,-4.6026,-4.6088,-4.5924,-4.5517,-4.5517,-4.5298,-4.4947,-4.5789,-4.6196,-4.6196,-4.6196,-4.6147,-4.6073,-4.6147,-4.6147,-4.6073,-4.6172,-4.6196,-4.6196,-4.6196,-4.6196,-4.6196,-4.6196,-4.6196,-4.6196,-4.6196,-4.6196,-4.6196,-4.6196,-4.5688,-4.5074,-4.4911,-4.4838,-4.4701,-4.3984,-4.4023,-4.4158,-4.3522,-4.2714,-4.1567,-3.9582,-3.889,-3.8448,-3.758,-3.7435,-3.751,-3.751,-3.751,-3.751,-3.751,-3.751,-3.751,-3.751,-3.751,-3.751,-3.751,-3.751,-3.751,-3.751,-3.751,-3.751,-3.751,-3.751,-3.751,-3.751,-3.751,-3.751,-3.751,-3.751,-3.7812,-3.8507,-3.8507,-3.8839,-3.9503,-3.9961,-4.0182,-4.015,-3.9441,-3.9592,-1.9092,-1.9934,-2.0916,-2.1679,-2.2825,-2.4649,-2.8101,-2.9097,-3.0237,-3.3612,-3.4508,-3.4898,-3.5489,-3.7471,-3.8989,0.0,-4.0274,-4.1488,-4.1994,-4.2518,-4.304,0.0,0.0,0.0,0.0,0.0,0.0,0.0,0.0,0.0,0.0,-4.5021,-4.5,-4.5,-4.5101,-4.4959,-4.4559,-4.4537,-4.4276,-4.3857,-4.4903,-4.5404,-4.538,-4.538,-4.5495,-4.5656,-4.5754,-4.5895,-4.6073,-4.6147,-4.6196,-4.6196,-4.6196,-4.6196,-4.6196,-4.6196,-4.6196,-4.6196,-4.6196,-4.6196,-4.6196,-4.6196,-4.5688,-4.5049,-4.4788,-4.4689,-4.4528,-4.3639,-4.3668,-4.3864,-4.33,-4.2272,-4.1055,-3.9737,-3.8968,-3.8402,-3.7924,-3.7668,-3.751,-3.751,-3.751,-3.751,-3.751,-3.751,-3.751,-3.751,-3.751,-3.751,-3.751,-3.751,-3.751,-3.751,-3.751,-3.751,-3.751,-3.751,-3.751,-3.751,-3.751,-3.751,-3.751,-3.751,-3.7891,-3.8807,-3.8823,-3.9266,-4.0151,-4.0672,-4.0909,-4.0909,-4.0388,-4.0671,-1.9202,-1.9314,-1.9874,-2.2134,-2.3323,-2.4954,-2.8843,-2.9066,-3.0002,-3.5562,-3.7409,-3.8054,-3.8174,-3.8209,-3.8717,-4.0239,-4.0492,-4.1071,-4.2665,-4.2901,0.0,0.0,0.0,0.0,0.0,0.0,0.0,0.0,0.0,0.0,0.0,-4.5045,-4.4982,-4.4982,-4.4982,-4.4817,-4.4471,-4.4343,-4.4094,-4.368,-4.368,-4.365,-4.3607,-4.3607,-4.408,-4.4876,-4.4876,-4.5362,-4.6179,-4.6179,-4.6179,-4.6196,-4.6196,-4.6196,-4.6196,-4.6196,-4.6196,-4.6196,-4.6196,-4.6196,-4.6196,-4.6196,-4.5688,-4.5032,-4.4764,-4.4689,-4.4547,-4.3939,-4.3876,-4.3905,-4.3584,-4.2645,-4.1547,-4.0542,-3.9785,-3.9157,-3.8604,-3.797,-3.7526,-3.751,-3.751,-3.751,-3.751,-3.751,-3.751,-3.751,-3.751,-3.751,-3.751,-3.751,-3.751,-3.751,-3.751,-3.751,-3.751,-3.751,-3.751,-3.751,-3.751,-3.751,-3.751,-3.751,-3.8142,-3.9455,-3.9503,-4.0182,-4.1573,-4.1588,-4.1588,-4.1588,-4.1588,-4.1588,-1.9174,-2.069,-2.2206,-2.261,-2.4852,-2.7792,-3.084,-3.1329,-3.2264,-3.622,-3.7962,-3.8455,-3.7405,-3.863,0.0,-3.9731,-4.0655,-4.1705,-4.2737,-4.2861,0.0,0.0,0.0,0.0,0.0,0.0,0.0,0.0,0.0,0.0,0.0,-4.3286,-4.3243,-4.3243,-4.3243,-4.3063,-4.2668,-4.2732,-4.2516,-4.2084,-4.2084,-4.2643,-4.3668,-4.3668,-4.3766,-4.3903,-4.3969,-4.4084,-4.4237,-4.4317,-4.468,-4.5127,-4.5127,-4.5526,-4.6048,-4.6048,-4.6122,-4.6196,-4.6196,-4.6196,-4.6196,-4.6196,-4.5302,-4.4208,-4.3951,-4.3367,-4.2723,-4.2355,-4.2176,-4.219,-4.2634,-4.2127,-4.1418,-4.0896,-4.0276,-3.9562,-3.8699,-3.8349,-3.8065,-3.7605,-3.751,-3.751,-3.751,-3.751,-3.751,-3.751,-3.751,-3.751,-3.751,-3.751,-3.751,-3.751,-3.751,-3.751,-3.751,-3.751,-3.751,-3.751,-3.751,-3.751,-3.751,-3.751,-3.7891,-3.8792,-3.9266,-3.9961,-4.0893,-4.1367,-4.1588,-4.1573,-4.0575,-4.0655,-1.9785,-2.1254,-2.2883,-2.4462,-2.6712,-2.9406,-3.2707,-3.4032,-3.5075,-3.6833,-3.8227,-3.8904,-3.8099,-3.935,0.0,-3.9912,-4.089,-4.1868,-4.2357,0.0,0.0,0.0,0.0,0.0,0.0,0.0,0.0,0.0,0.0,0.0,0.0,-4.2566,-4.2503,-4.2503,-4.2405,-4.2222,-4.1931,-4.1913,-4.1719,-4.1318,-4.1318,-4.1783,-4.2683,-4.2695,-4.2846,-4.3088,-4.3426,-4.3558,-4.3485,-4.3582,-4.3868,-4.4269,-4.4269,-4.4589,-4.5092,-4.5439,-4.5618,-4.5726,-4.6067,-4.6196,-4.6196,-4.6196,-4.5565,-4.4769,-4.4492,-4.3717,-4.2925,-4.2937,-4.2554,-4.2311,-4.3079,-4.2618,-4.1874,-4.1532,-4.0912,-4.0118,-3.9108,-3.8697,-3.8302,-3.7636,-3.751,-3.751,-3.751,-3.751,-3.751,-3.751,-3.751,-3.751,-3.751,-3.751,-3.751,-3.751,-3.751,-3.751,-3.751,-3.751,-3.751,-3.751,-3.751,-3.751,-3.751,-3.7779,-3.8207,-3.8886,-3.9582,-4.0293,-4.1004,-4.1399,-4.1588,-4.1573,-4.0736,-4.0784,-2.0785,-2.1456,-2.2714,-2.7058,-2.8793,-3.0466,-3.4365,-3.6656,-3.7827,-3.7341,-3.8271,-3.9259,-3.9634,-4.0103,-4.0473,-4.0583,-4.1216,-4.1723,-4.1795,0.0,0.0,0.0,0.0,0.0,0.0,0.0,0.0,0.0,0.0,0.0,0.0,-4.2586,-4.2503,-4.2503,-4.2243,-4.2058,-4.1945,-4.1732,-4.1453,-4.1186,-4.1209,-4.1157,-4.1117,-4.1175,-4.1586,-4.2299,-4.3036,-4.3332,-4.3332,-4.3332,-4.3384,-4.3436,-4.3436,-4.3513,-4.3694,-4.4478,-4.4788,-4.4918,-4.5716,-4.5986,-4.5986,-4.5986,-4.5951,-4.5832,-4.5616,-4.4817,-4.4104,-4.4599,-4.3936,-4.3301,-4.4164,-4.349,-4.2463,-4.2077,-4.1437,-4.0641,-3.9597,-3.8903,-3.8271,-3.7622,-3.751,-3.751,-3.751,-3.751,-3.751,-3.751,-3.751,-3.751,-3.751,-3.751,-3.751,-3.751,-3.751,-3.751,-3.751,-3.751,-3.751,-3.751,-3.751,-3.7541,-3.7605,-3.8175,-3.8792,-3.9408,-4.0182,-4.0893,-4.1494,-4.1557,-4.1588,-4.1588,-4.1588,-4.1588,-2.1285,-2.2943,-2.5136,-2.77,-3.1025,-3.4028,-3.5297,-3.6695,-3.7669,-3.761,-3.8235,-3.8993,-3.9589,-3.9798,-4.021,-4.127,-4.1596,-4.1922,0.0,0.0,0.0,0.0,0.0,0.0,0.0,0.0,0.0,0.0,0.0,0.0,-4.2629,-4.2546,-4.2503,-4.2503,-4.2243,-4.1973,-4.1688,-4.1626,-4.1426,0.0,-4.118,-4.1186,-4.118,-4.1146,-4.1163,-4.1224,-4.1421,-4.149,-4.149,-4.149,-4.1836,-4.2331,-4.2331,-4.2784,-4.3478,-4.3715,-4.3864,-4.4001,-4.4295,-4.4395,-4.4395,-4.4395,-4.4009,-4.3512,-4.3466,-4.2601,-4.1767,-4.2444,-4.1758,-4.1128,-4.2439,-4.1816,-4.0856,-4.0981,-4.0625,-3.9989,-3.8811,-3.8433,-3.8165,-3.7607,-3.751,-3.751,-3.751,-3.751,-3.751,-3.751,-3.751,-3.751,-3.751,-3.751,-3.751,-3.751,-3.751,-3.751,-3.751,-3.751,-3.751,-3.751,-3.751,-3.7733,-3.827,-3.8428,-3.8586,-3.8728,-3.9961,-4.0672,-4.0814,-4.1336,-4.1588,-4.1588,-4.1588,-4.1588,-2.1998,-2.3393,-2.5296,-2.8891,-3.1956,-3.4357,-3.5409,-3.6394,-3.7221,-3.7627,-3.8253,-3.8888,-3.9364,-4.0068,-4.0607,-4.077,-4.1775,-4.2522,0.0,0.0,0.0,0.0,0.0,0.0,0.0,0.0,0.0,0.0,0.0,-4.2568,-4.2609,-4.2546,-4.2503,-4.2503,-4.216,-4.1866,-4.1692,-4.1498,-4.1312,-4.1093,-4.1146,-4.1129,-4.1065,-4.1093,-4.1047,-4.1,-4.1,-4.0959,-4.0894,-4.0959,-4.1183,-4.1481,-4.1481,-4.1788,-4.2258,-4.2708,-4.2967,-4.3155,-4.364,-4.3857,-4.3904,-4.3904,-4.3641,-4.3325,-4.3325,-4.2527,-4.1745,-4.2361,-4.1696,-4.0968,-4.1688,-4.1189,-4.0345,-3.9796,-3.9798,-3.9645,-3.8528,-3.8308,-3.8135,-3.7607,-3.751,-3.751,-3.751,-3.751,-3.751,-3.751,-3.751,-3.751,-3.751,-3.751,-3.751,-3.751,-3.751,-3.751,-3.751,-3.751,-3.751,-3.751,-3.751,-3.7668,-3.8002,-3.8333,-3.8839,-3.9503,-4.0546,-4.1083,-4.1083,-4.1415,-4.1588,-4.1588,-4.1588,-4.1588,-2.2446,-2.3586,-2.526,-3.0088,-3.2196,-3.3512,-3.5138,-3.6,-3.6663,-3.747,-3.8311,-3.8989,-3.9296,-4.043,-4.1022,-4.0178,-4.1699,-4.2766,0.0,0.0,0.0,0.0,0.0,0.0,0.0,0.0,0.0,0.0,0.0,-4.2506,-4.255,-4.2506,-4.2445,-4.2425,-4.2034,-4.1819,-4.1758,-4.1391,-4.1157,-4.1093,-4.1093,-4.1047,-4.0935,-4.1053,-4.1117,-4.1093,-4.1093,-4.1029,-4.0965,-4.1076,-4.1047,-4.0935,-4.0935,-4.0935,-4.0981,-4.1745,-4.2089,-4.2311,-4.3039,-4.3384,-4.35,-4.35,-4.35,-4.35,-4.35,-4.29,-4.2276,-4.2617,-4.202,-4.1222,-4.1067,-4.057,-3.9841,-3.8593,-3.8773,-3.9027,-3.8245,-3.8089,-3.7977,-3.7591,-3.751,-3.751,-3.751,-3.751,-3.751,-3.751,-3.751,-3.751,-3.751,-3.751,-3.751,-3.751,-3.751,-3.751,-3.751,-3.751,-3.751,-3.7539,-3.751,-3.7557,-3.7698,-3.8207,-3.9108,-4.0388,-4.1067,-4.1478,-4.1588,-4.1588,-4.1588,-4.1588,-4.1588,-4.1588,-2.1744,-2.4333,-2.7634,-3.0502,-3.2127,-3.3395,-3.4842,-3.5466,-3.6068,-3.7212,-3.8433,-3.9471,-3.9958,-4.0288,-4.0574,-4.0948,-4.113,0.0,0.0,0.0,0.0,0.0,0.0,0.0,0.0,0.0,0.0,0.0,-4.2503,-4.2445,-4.2348,-4.2328,-4.2267,-4.2163,-4.2051,-4.1858,-4.1626,-4.1346,-4.1157,-4.1093,-4.1093,-4.1093,-4.107,-4.1134,-4.1152,-4.1093,-4.1093,-4.1123,-4.1163,-4.1186,-4.1152,-4.107,-4.107,-4.1,-4.0912,-4.1151,-4.1285,-4.1406,-4.162,-4.1791,-4.192,-4.192,-4.192,-4.192,-4.192,-4.1635,-4.1337,-4.1242,-4.055,-3.9804,-3.9578,-3.8671,-3.7773,-3.7589,-3.7247,-3.6971,-3.7125,-3.726,-3.738,-3.7496,-3.751,-3.751,-3.751,-3.751,-3.751,-3.751,-3.751,-3.751,-3.751,-3.751,-3.751,-3.751,-3.751,-3.751,-3.751,-3.751,-3.7539,-3.7671,-3.7553,-3.7822,-3.8513,-3.8505,-3.8871,-3.9629,-4.0356,-4.102,-4.1588,-4.1588,-4.1588,-4.1588,-4.1588,-4.1588,-2.2548,-2.5157,-2.804,-3.0748,-3.2109,-3.3235,-3.4977,-3.5473,-3.582,-3.6754,-3.7807,-3.8801,-3.9596,-4.0232,-4.0675,-4.0802,-4.1111,0.0,0.0,0.0,0.0,0.0,0.0,0.0,0.0,0.0,0.0,0.0,-4.2216,-4.2178,-4.2136,-4.2136,-4.2097,-4.2034,-4.1862,-4.1732,-4.1604,-4.1323,-4.1203,-4.1152,-4.1117,-4.1093,-4.1093,-4.1123,-4.1152,-4.1175,-4.1238,-4.1226,-4.1209,-4.1295,-4.1221,-4.1093,-4.1093,-4.1023,-4.0912,-4.0959,-4.1082,-4.1209,-4.1272,-4.134,-4.1386,-4.1386,-4.1295,-4.1221,-4.1221,-4.1129,-4.0971,-4.0752,-4.0162,-3.9463,-3.8849,-3.8055,-3.7328,-3.6983,-3.6831,-3.6816,-3.6984,-3.706,-3.7165,-3.745,-3.751,-3.751,-3.751,-3.751,-3.751,-3.751,-3.751,-3.751,-3.751,-3.751,-3.751,-3.751,-3.751,-3.751,-3.751,-3.751,-3.7539,-3.7583,-3.7539,-3.7666,-3.8011,-3.7983,-3.8254,-3.8934,-4.004,-4.0751,-4.1035,-4.1415,-4.1588,-4.1588,-4.1588,-4.1588,-2.3006,-2.4999,-2.7,-3.0109,-3.1489,-3.2588,-3.448,-3.5039,-3.5392,0.0,-3.6833,-3.7588,-3.8564,-3.9683,-4.0421,-4.0251,-4.0682,0.0,0.0,0.0,0.0,0.0,0.0,0.0,0.0,0.0,0.0,0.0,-4.1924,-4.2009,-4.2005,-4.2005,-4.1984,-4.1945,-4.1754,-4.1626,-4.1604,-4.1386,-4.1232,-4.1209,-4.1175,-4.1186,-4.1186,-4.121,-4.1244,-4.1318,-4.1363,-4.1363,-4.13,-4.1408,-4.1335,-4.1186,-4.1186,-4.1076,-4.0959,-4.0959,-4.1059,-4.1209,-4.1209,-4.1255,-4.13,-4.1232,-4.1111,-4.0965,-4.0935,-4.0912,-4.0847,-4.0583,-3.9944,-3.9209,-3.8474,-3.7738,-3.7074,-3.6616,-3.6708,-3.6969,-3.709,-3.7121,-3.7211,-3.745,-3.751,-3.751,-3.751,-3.751,-3.751,-3.751,-3.751,-3.751,-3.751,-3.751,-3.751,-3.751,-3.751,-3.751,-3.751,-3.751,-3.751,-3.7539,-3.7569,-3.7569,-3.7569,-3.7569,-3.7777,-3.8239,-3.9439,-4.0245,-4.0609,-4.1099,-4.1415,-4.1588,-4.1588,-4.1588,-2.2273,-2.3125,-2.4302,-2.802,-2.983,-3.111,-3.2678,-3.3678,-3.4513,-3.5367,-3.5603,-3.5888,-3.677,-3.8218,-3.9325,-3.9447,-3.9286,0.0,0.0,0.0,0.0,0.0,0.0,0.0,0.0,0.0,0.0,0.0,-4.1695,-4.2058,-4.2005,-4.2005,-4.1945,-4.1801,-4.1797,-4.1736,-4.1604,-4.1471,-4.1318,-4.1209,-4.1318,-4.138,-4.138,-4.1515,-4.1582,-4.1582,-4.1448,-4.1471,-4.1582,-4.1582,-4.1515,-4.138,-4.138,-4.1261,-4.1087,-4.1087,-4.1146,-4.1209,-4.1209,-4.1386,-4.1538,-4.1277,-4.1186,-4.114,-4.0965,-4.0912,-4.0847,-4.0583,-3.9655,-3.8663,-3.839,-3.7415,-3.6554,-3.6523,-3.66,-3.6846,-3.7345,-3.748,-3.748,-3.751,-3.751,-3.751,-3.751,-3.751,-3.751,-3.751,-3.751,-3.751,-3.751,-3.751,-3.751,-3.751,-3.751,-3.751,-3.751,-3.751,-3.7569,-3.7671,-3.7671,-3.7671,-3.7671,-3.7671,-3.7644,-3.7557,-3.8254,-3.9281,-4.0609,-4.064,-4.0972,-4.1588,-4.1588,-4.1588,-2.3101,-2.3551,-2.4022,-2.7485,-2.9484,-3.0872,-3.1892,-3.3196,-3.429,-3.4599,-3.512,-3.5603,-3.5907,-3.7322,-3.846,-3.8551,-3.8947,0.0,0.0,0.0,0.0,0.0,0.0,0.0,0.0,0.0,0.0,0.0,0.0,-4.0748,-4.1018,-4.1032,-4.1221,-4.1653,-4.167,-4.1648,-4.1604,-4.156,-4.1498,-4.1453,-4.1426,-4.1403,-4.1403,-4.1448,-4.1471,-4.1471,-4.1515,-4.156,-4.1604,-4.1604,-4.1515,-4.1403,-4.1318,-4.1226,-4.1175,-4.1117,-4.1192,-4.1318,-4.1318,-4.134,-4.134,-4.1232,-4.1001,-4.0734,-4.068,-4.0534,-4.0296,-3.9808,-3.9092,-3.8334,-3.7854,-3.7178,-3.6662,-3.6785,-3.6877,-3.6984,-3.724,-3.7405,-3.7464,-3.7329,-3.7405,-3.751,-3.751,-3.751,-3.751,-3.751,-3.751,-3.751,-3.751,-3.751,-3.751,-3.751,-3.751,-3.751,-3.751,-3.7599,-3.7658,-3.77,-3.7788,-3.7788,-3.77,-3.77,-3.7642,-3.751,-3.7733,-3.8523,-3.9898,-4.0372,-4.0941,-4.1588,-4.1588,-4.1588,-2.2961,-2.3425,-2.378,-2.6217,-2.8091,-2.9628,-3.0669,-3.2194,-3.3559,-3.4086,-3.4674,-3.5064,-3.5064,-3.6204,-3.726,-3.7572,-3.8126,-3.8481,0.0,0.0,0.0,0.0,0.0,0.0,0.0,0.0,0.0,0.0,0.0,0.0,-4.0102,-4.0056,-4.0385,-4.1135,-4.1214,-4.1341,-4.1604,-4.1604,-4.1604,-4.1604,-4.1515,-4.1471,-4.1471,-4.1471,-4.1471,-4.1471,-4.156,-4.1604,-4.1604,-4.1604,-4.1515,-4.1403,-4.1295,-4.1226,-4.1175,-4.1117,-4.1192,-4.134,-4.134,-4.134,-4.1323,-4.1232,-4.1001,-4.071,-4.0541,-4.0246,-3.9825,-3.9339,-3.8629,-3.7911,-3.749,-3.7013,-3.6693,-3.6938,-3.6938,-3.6953,-3.7164,-3.7359,-3.7464,-3.7329,-3.7405,-3.751,-3.751,-3.751,-3.751,-3.751,-3.751,-3.751,-3.751,-3.751,-3.751,-3.751,-3.751,-3.751,-3.751,-3.7599,-3.7642,-3.77,-3.7817,-3.7847,-3.77,-3.773,-3.7671,-3.751,-3.751,-3.8033,-3.9171,-3.9661,-4.0372,-4.1257,-4.1004,-4.0893,0.0,0.0,0.0,-2.4118,-2.5607,-2.7324,-2.8905,0.0,-3.2221,-3.3826,-3.416,-3.416,-3.4197,-3.4884,-3.5714,-3.6513,-3.6681,-3.6872,0.0,0.0,0.0,0.0,0.0,0.0,0.0,0.0,0.0,0.0,-3.9342,-3.9611,-3.929,-3.9164,-3.9468,-4.0254,-4.0403,-4.0836,-4.1569,-4.1569,-4.1587,-4.1604,-4.1604,-4.1604,-4.1604,-4.1604,-4.1604,-4.1604,-4.1604,-4.1604,-4.1604,-4.1604,-4.1515,-4.1403,-4.1403,-4.1284,-4.1093,-4.1093,-4.1129,-4.1209,-4.1209,-4.1386,-4.156,-4.13,-4.1209,-4.1117,-4.0638,-4.0087,-3.9558,-3.9242,-3.8311,-3.7417,-3.7387,-3.6952,-3.6585,-3.6908,-3.6831,-3.6785,-3.7104,-3.7345,-3.748,-3.748,-3.751,-3.751,-3.751,-3.751,-3.751,-3.751,-3.751,-3.751,-3.751,-3.751,-3.751,-3.751,-3.751,-3.751,-3.751,-3.751,-3.7569,-3.77,-3.7817,-3.7847,-3.77,-3.7817,-3.7759,-3.751,-3.751,-3.7812,-3.8491,-3.8507,-3.9218,-4.0546,-3.9835,-3.9503,-2.3248,0.0,0.0,0.0,0.0,0.0,0.0,0.0,-3.1374,-3.2931,-3.33,-3.3479,-3.4025,-3.4358,-3.4637,-3.4847,-3.5906,-3.6753,0.0,0.0,0.0,0.0,0.0,0.0,0.0,0.0,0.0,0.0,-3.8312,-3.8435,-3.843,-3.8867,-3.9248,-3.9575,-3.9515,-3.9904,-4.0801,-4.0818,-4.106,-4.1604,-4.1604,-4.1604,-4.1604,-4.1604,-4.1604,-4.1604,-4.1604,-4.1604,-4.1604,-4.1604,-4.1582,-4.1538,-4.134,-4.1272,-4.1307,-4.1163,-4.1192,-4.134,-4.134,-4.1471,-4.1582,-4.1498,-4.1363,-4.114,-4.0853,-4.0237,-3.9437,-3.8767,-3.7982,-3.7328,-3.6983,-3.6693,-3.6554,-3.6739,-3.6723,-3.6723,-3.6831,-3.7074,-3.7284,-3.7284,-3.7405,-3.751,-3.751,-3.751,-3.751,-3.751,-3.751,-3.751,-3.751,-3.751,-3.751,-3.751,-3.751,-3.751,-3.751,-3.7599,-3.7642,-3.77,-3.7817,-3.7847,-3.77,-3.773,-3.7671,-3.751,-3.751,-3.7605,-3.7765,-3.827,-3.8965,-3.9803,-3.9598,-3.9503,-2.3479,-2.3651,-2.334,-2.3421,0.0,0.0,-2.7438,-2.8973,-3.0764,0.0,-3.3503,-3.3628,-3.4056,-3.4173,-3.4197,-3.4197,-3.5014,-3.5776,0.0,0.0,0.0,0.0,0.0,0.0,0.0,-3.823,-3.815,-3.772,-3.772,-3.7683,-3.7562,-3.7933,-3.8335,-3.8751,-3.8688,-3.9077,-3.9989,-4.0344,-4.0731,-4.113,-4.1446,-4.1604,-4.1604,-4.1604,-4.1604,-4.1604,-4.1604,-4.1604,-4.1604,-4.1604,-4.152,-4.1431,-4.1318,-4.1249,-4.1175,-4.1152,-4.1221,-4.1318,-4.138,-4.1493,-4.1604,-4.1604,-4.1475,-4.1318,-4.1088,-4.0235,-3.9212,-3.8635,-3.778,-3.6952,-3.6693,-3.6554,-3.6523,-3.6662,-3.6662,-3.6662,-3.6861,-3.6952,-3.7043,-3.7164,-3.7359,-3.751,-3.751,-3.751,-3.751,-3.751,-3.751,-3.751,-3.751,-3.751,-3.751,-3.751,-3.751,-3.751,-3.751,-3.7553,-3.7642,-3.7716,-3.7759,-3.7788,-3.77,-3.77,-3.7642,-3.751,-3.751,-3.751,-3.751,-3.7875,-3.8286,-3.8665,-3.895,-3.8934,-2.2998,-2.3137,-2.292,-2.2256,-2.318,0.0,-2.6505,-2.7923,-2.9802,0.0,-3.3622,-3.3559,-3.3628,-3.3646,-3.3658,-3.3658,-3.3807,-3.4253,-3.5231,0.0,0.0,0.0,0.0,0.0,-3.7264,-3.7651,-3.7736,-3.7307,-3.7378,-3.7264,-3.6831,-3.6809,-3.7126,-3.7866,-3.7863,-3.8289,-3.9143,-3.9866,-4.0291,-4.0379,-4.1113,-4.1481,-4.1481,-4.1569,-4.1604,-4.1604,-4.1604,-4.1604,-4.1604,-4.1604,-4.1453,-4.1255,-4.1363,-4.1221,-4.0965,-4.114,-4.1209,-4.1232,-4.1363,-4.1471,-4.156,-4.156,-4.1538,-4.1493,-4.1232,-4.0143,-3.8933,-3.8619,-3.7546,-3.6492,-3.6492,-3.6492,-3.6523,-3.6662,-3.6585,-3.6616,-3.7043,-3.6922,-3.6846,-3.7134,-3.7329,-3.748,-3.748,-3.748,-3.748,-3.748,-3.748,-3.751,-3.751,-3.751,-3.751,-3.751,-3.751,-3.751,-3.751,-3.751,-3.7569,-3.7671,-3.7671,-3.7671,-3.7671,-3.7671,-3.7612,-3.751,-3.751,-3.751,-3.751,-3.751,-3.751,-3.7526,-3.8112,-3.8065,-2.319,-2.2765,-2.2271,0.0,0.0,0.0,-2.4733,-2.5369,-2.6343,0.0,-2.9433,-2.9607,-3.0087,-3.0217,-3.0261,-3.0259,-3.1333,-3.2713,-3.4234,0.0,0.0,0.0,0.0,0.0,-3.6344,-3.6524,-3.6613,-3.6523,-3.6887,-3.7068,-3.6968,-3.6869,-3.6921,-3.7178,-3.7079,-3.7446,-3.8339,-3.8497,-3.8901,-3.955,-4.0323,-4.0713,-4.0731,-4.1323,-4.1604,-4.1604,-4.1604,-4.1604,-4.1604,-4.1604,-4.1582,-4.1498,-4.1426,-4.1358,-4.1272,-4.1232,-4.1272,-4.1363,-4.1403,-4.134,-4.1277,-4.1277,-4.1157,-4.1035,-4.0965,-4.0086,-3.8854,-3.7666,-3.6938,-3.6492,-3.6492,-3.6492,-3.6523,-3.6523,-3.6523,-3.6554,-3.6754,-3.6862,-3.6984,-3.7164,-3.7224,-3.7254,-3.7254,-3.7405,-3.7435,-3.7284,-3.7405,-3.751,-3.751,-3.751,-3.751,-3.751,-3.751,-3.751,-3.751,-3.751,-3.751,-3.7539,-3.7539,-3.7539,-3.7539,-3.7539,-3.7539,-3.751,-3.751,-3.751,-3.751,-3.751,-3.751,-3.751,-3.7622,-3.7636,0.0,0.0,0.0,-2.1502,0.0,0.0,0.0,-2.503,-2.5999,-2.8493,-2.8942,-2.8987,-2.9297,-2.9359,-2.9359,-2.9343,-3.0705,-3.176,-3.1812,-3.3559,-3.486,0.0,0.0,0.0,-3.5296,-3.5414,-3.5507,-3.5507,-3.5969,-3.6311,-3.6408,-3.6619,-3.6829,-3.6989,-3.6869,-3.7044,-3.7549,-3.7918,-3.8304,-3.8705,-3.9515,-4.0095,-4.052,-4.0889,-4.1253,-4.1604,-4.1604,-4.1604,-4.1604,-4.1604,-4.156,-4.1493,-4.1493,-4.1408,-4.1318,-4.1386,-4.1386,-4.1403,-4.1471,-4.1363,-4.1209,-4.1209,-4.1065,-4.0847,-4.0549,-3.9508,-3.8206,-3.7074,-3.6616,-3.6492,-3.6492,-3.6492,-3.6523,-3.6569,-3.66,-3.6662,-3.6892,-3.6984,-3.706,-3.73,-3.721,-3.7119,-3.7194,-3.7359,-3.7405,-3.7135,-3.7315,-3.7464,-3.7359,-3.7435,-3.751,-3.751,-3.751,-3.751,-3.751,-3.751,-3.751,-3.751,-3.751,-3.751,-3.751,-3.751,-3.751,-3.751,-3.751,-3.751,-3.751,-3.751,-3.751,-3.751,-3.751,-3.751,0.0,0.0,0.0,0.0,0.0,-2.2371,0.0,0.0,0.0,-2.8353,-2.8706,0.0,0.0,0.0,0.0,0.0,0.0,0.0,0.0,-3.1225,0.0,0.0,0.0,0.0,-3.3834,-3.3946,-3.4214,-3.4671,-3.4836,-3.5095,-3.5564,-3.618,-3.6599,-3.6759,-3.6801,-3.6888,-3.7007,-3.7584,-3.7883,-3.79,-3.869,-3.941,-4.0046,-4.0204,-4.0586,-4.1165,-4.1323,-4.1394,-4.1394,-4.1552,-4.1538,-4.1448,-4.156,-4.1453,-4.1255,-4.1498,-4.1538,-4.1448,-4.156,-4.1323,-4.0984,-4.0984,-4.0748,-4.036,-3.9757,-3.8745,-3.7618,-3.6831,-3.6554,-3.6523,-3.6585,-3.6585,-3.6647,-3.6754,-3.6816,-3.6861,-3.7134,-3.7119,-3.7121,-3.745,-3.7271,-3.7121,-3.715,-3.7315,-3.7301,-3.703,-3.7271,-3.7405,-3.7254,-3.7359,-3.7464,-3.751,-3.748,-3.7464,-3.751,-3.751,-3.751,-3.751,-3.751,-3.751,-3.751,-3.751,-3.751,-3.751,-3.751,-3.751,-3.751,-3.751,-3.751,-3.751,-3.751,-3.751,0.0,0.0,0.0,0.0,-2.111,0.0,0.0,0.0,-2.419,-2.5103,0.0,0.0,0.0,0.0,0.0,0.0,0.0,0.0,-2.5287,-2.7834,-2.9871,-2.9935,-3.2015,0.0,0.0,-3.1477,-3.2458,-3.4548,-3.3494,-3.3371,-3.474,-3.5511,-3.5913,-3.5933,-3.6619,-3.697,-3.7007,-3.7077,-3.713,-3.713,-3.7883,-3.8286,-3.8409,-3.9111,-3.9498,-3.9603,-4.0305,-4.0625,-4.0678,-4.1323,-4.1582,-4.1582,-4.1604,-4.1515,-4.1403,-4.1538,-4.1582,-4.1582,-4.1604,-4.096,-4.0128,-4.0128,-3.9612,-3.8854,-3.8294,-3.7982,-3.7693,-3.7089,-3.6724,-3.6554,-3.6877,-3.6938,-3.6969,-3.7104,-3.7134,-3.7148,-3.7178,-3.7194,-3.724,-3.7464,-3.748,-3.7361,-3.706,-3.703,-3.703,-3.7015,-3.7119,-3.73,-3.7435,-3.7329,-3.73,-3.748,-3.7329,-3.73,-3.748,-3.751,-3.751,-3.751,-3.751,-3.751,-3.751,-3.751,-3.751,-3.751,-3.751,-3.751,-3.751,-3.751,-3.751,-3.751,-3.751,-3.751,0.0,0.0,0.0,0.0,0.0,0.0,-2.3496,0.0,-2.3922,0.0,0.0,0.0,0.0,0.0,0.0,0.0,-2.5196,0.0,0.0,0.0,-2.8769,0.0,0.0,0.0,0.0,0.0,0.0,0.0,-3.1982,-3.1964,-3.3898,-3.4685,-3.5279,-3.5775,-3.6145,-3.6531,-3.7007,-3.7007,-3.7007,-3.7007,-3.7323,-3.769,-3.8111,-3.8462,-3.8845,-3.9336,-4.0151,-4.0502,-4.0555,-4.1288,-4.156,-4.1493,-4.156,-4.156,-4.1515,-4.1582,-4.1604,-4.1604,-4.1604,-4.1007,-4.0128,-3.9506,-3.8821,-3.8153,-3.7754,-3.7342,-3.6997,-3.677,-3.6616,-3.6523,-3.6677,-3.6847,-3.6999,-3.7075,-3.7194,-3.7344,-3.7359,-3.7359,-3.7405,-3.748,-3.7405,-3.727,-3.715,-3.7195,-3.7211,-3.7045,-3.7195,-3.7345,-3.7211,-3.7315,-3.7359,-3.7329,-3.7359,-3.7405,-3.748,-3.751,-3.751,-3.751,-3.751,-3.751,-3.751,-3.751,-3.751,-3.751,-3.751,-3.751,-3.751,-3.751,-3.751,-3.751,-3.751,-3.751,-2.3512,0.0,0.0,0.0,0.0,0.0,0.0,0.0,0.0,0.0,0.0,0.0,0.0,0.0,-2.3712,-2.2689,0.0,-2.474,0.0,-2.4434,0.0,0.0,0.0,0.0,0.0,0.0,0.0,-3.133,-3.0108,-3.0427,-3.3055,-3.386,-3.4507,-3.5143,-3.5582,-3.6092,-3.6673,-3.6884,-3.7007,-3.7007,-3.7007,-3.7288,-3.7795,-3.7795,-3.8111,-3.8708,-3.9498,-3.9975,-4.0239,-4.099,-4.1345,-4.1471,-4.156,-4.1604,-4.1604,-4.1604,-4.1604,-4.1604,-4.1604,-4.0902,-3.9826,-3.8673,-3.7943,-3.7476,-3.7238,-3.6846,-3.6492,-3.6492,-3.6492,-3.6523,-3.6662,-3.6892,-3.7135,-3.7241,-3.7389,-3.7551,-3.7553,-3.7539,-3.751,-3.751,-3.7375,-3.7284,-3.7284,-3.7345,-3.7271,-3.7045,-3.7211,-3.7301,-3.709,-3.7211,-3.7285,-3.7284,-3.7345,-3.7391,-3.748,-3.751,-3.751,-3.751,-3.751,-3.751,-3.751,-3.751,-3.751,-3.751,-3.751,-3.751,-3.751,-3.751,-3.751,-3.751,-3.751,-3.751,0.0,0.0,0.0,-2.3885,0.0,0.0,0.0,0.0,-2.3695,0.0,0.0,0.0,0.0,-2.2432,-2.1853,-2.0263,-2.1336,0.0,0.0,0.0,0.0,0.0,0.0,0.0,0.0,0.0,-2.6134,-2.8995,-2.7777,-2.8532,-3.2247,-3.3125,-3.3528,-3.3581,-3.502,-3.581,-3.5845,-3.6601,-3.7007,-3.7007,-3.7007,-3.7007,-3.7042,-3.7042,-3.706,-3.7112,-3.7865,-3.8638,-3.941,-4.0182,-4.0937,-4.1604,-4.1604,-4.1604,-4.1604,-4.1604,-4.1604,-4.1604,-4.1604,-4.0477,-3.8826,-3.749,-3.6847,-3.6554,-3.6523,-3.6523,-3.6492,-3.6492,-3.6492,-3.66,-3.7074,-3.7268,-3.7476,-3.7801,-3.7876,-3.7847,-3.773,-3.7583,-3.751,-3.751,-3.748,-3.748,-3.748,-3.7241,-3.6999,-3.7015,-3.7015,-3.706,-3.7194,-3.6922,-3.6907,-3.745,-3.7211,-3.7151,-3.748,-3.751,-3.751,-3.751,-3.751,-3.751,-3.751,-3.751,-3.751,-3.751,-3.751,-3.751,-3.751,-3.751,-3.751,-3.751,-3.751,-3.7569,0.0,0.0,-2.9376,-2.6904,0.0,0.0,0.0,0.0,0.0,0.0,0.0,0.0,0.0,-2.3098,-2.2141,-2.1645,-2.1886,-2.1452,0.0,0.0,0.0,0.0,0.0,0.0,0.0,0.0,0.0,-2.879,-2.8611,-2.9551,-3.2265,-3.2651,-3.2985,-3.3494,-3.4511,-3.532,-3.5792,-3.6584,-3.7007,-3.7007,-3.7007,-3.7007,-3.7007,-3.7007,-3.7007,-3.7042,-3.7777,-3.8567,-3.9354,-4.0186,-4.092,-4.1604,-4.1604,-4.1604,-4.1604,-4.1604,-4.1604,-4.1498,-4.0778,-4.0144,-3.9397,-3.7796,-3.7194,-3.7013,-3.6616,-3.6492,-3.6492,-3.6492,-3.6492,-3.6554,-3.68,-3.7074,-3.7328,-3.7522,-3.7685,-3.7801,-3.7931,-3.7714,-3.7553,-3.7743,-3.7612,-3.7464,-3.7329,-3.721,-3.7119,-3.7119,-3.7119,-3.7089,-3.6892,-3.7089,-3.7195,-3.7181,-3.7271,-3.7391,-3.748,-3.751,-3.751,-3.751,-3.751,-3.751,-3.751,-3.751,-3.751,-3.751,-3.751,-3.751,-3.751,-3.751,-3.751,-3.751,-3.751,-3.7553,-3.0601,-3.1494,0.0,-2.9171,-2.9198,0.0,-2.6416,0.0,0.0,0.0,0.0,0.0,0.0,0.0,-2.2116,-2.1563,-2.1623,-2.0967,0.0,-1.8326,0.0,0.0,0.0,0.0,0.0,-2.3826,-2.4968,-2.7521,-2.7848,-2.8877,0.0,0.0,-3.2616,-3.309,-3.388,-3.4635,-3.5407,-3.618,-3.6726,-3.7007,-3.7007,-3.7007,-3.7007,-3.7007,-3.7007,-3.7025,-3.7496,-3.8322,-3.9336,-3.9849,-4.0674,-4.1604,-4.1604,-4.1604,-4.1604,-4.1604,-4.1604,-4.1453,-4.0375,-3.9935,-3.9569,-3.8067,-3.7417,-3.721,-3.68,-3.6585,-3.6492,-3.6492,-3.6492,-3.6523,-3.6662,-3.6952,-3.7238,-3.7358,-3.7639,-3.7873,-3.8059,-3.7902,-3.7801,-3.8017,-3.7743,-3.7449,-3.7389,-3.7194,-3.7043,-3.7119,-3.7074,-3.6983,-3.6892,-3.7089,-3.7195,-3.7181,-3.7315,-3.7435,-3.748,-3.751,-3.751,-3.751,-3.751,-3.751,-3.751,-3.751,-3.7621,-3.7844,-3.7636,-3.7636,-3.7844,-3.7636,-3.751,-3.751,-3.751,-3.7553]},{"header":{"parameterUnit":"m.s-1","parameterCategory":1,"la1":30.6,"la2":29.2853,"lo1":-89.7004,"lo2":-87.6739,"dy":0.0162,"dx":0.0183,"nx":112,"ny":82,"refTime":"2023-04-25T18:00:00:Z","depth":0,"parameterNumber":3,"parameterNumberName":"V-component_of_WINDS"},"data":[0.0,0.0,0.0,0.0,0.0,0.0,0.0,0.0,0.0,0.0,0.0,0.0,0.0,0.0,0.0,0.0,0.0,0.0,0.0,0.0,0.0,0.0,0.0,0.0,0.0,0.0,0.0,0.0,0.0,0.0,0.0,0.0,0.0,0.0,0.0,0.0,0.0,0.0,0.0,0.0,0.0,0.0,0.0,0.0,0.0,0.0,0.0,0.0,0.0,0.0,0.0,0.0,0.0,0.0,0.0,0.0,0.0,0.0,0.0,0.0,0.0,0.0,0.0,0.0,0.0,0.0,0.0,0.0,0.0,0.0,0.0,0.0,0.0,0.0,0.0,0.0,0.0,0.0,0.0,0.0,0.0,0.0,0.0,0.0,0.0,0.0,0.0,0.0,0.0,0.0,-1.5808,-1.5017,-1.4937,-1.5017,-1.5119,-1.5017,-1.4754,-1.4269,0.0,0.0,0.0,0.0,0.0,0.0,0.0,0.0,0.0,0.0,0.0,0.0,0.0,0.0,0.0,0.0,0.0,0.0,0.0,0.0,0.0,0.0,0.0,0.0,0.0,0.0,0.0,0.0,0.0,0.0,0.0,0.0,0.0,0.0,0.0,0.0,0.0,0.0,0.0,0.0,0.0,0.0,0.0,0.0,0.0,0.0,0.0,0.0,0.0,0.0,0.0,0.0,0.0,0.0,0.0,0.0,0.0,0.0,0.0,0.0,0.0,0.0,0.0,0.0,0.0,0.0,0.0,0.0,0.0,0.0,0.0,0.0,0.0,0.0,0.0,0.0,0.0,0.0,0.0,0.0,0.0,0.0,0.0,0.0,0.0,0.0,0.0,0.0,0.0,0.0,0.0,0.0,0.0,0.0,0.0,0.0,0.0,0.0,0.0,0.0,0.0,0.0,0.0,0.0,-1.5916,-1.5154,-1.4637,-1.4339,-1.4362,-1.4339,-1.4362,-1.4455,0.0,0.0,0.0,0.0,0.0,0.0,0.0,0.0,0.0,0.0,0.0,0.0,0.0,0.0,0.0,0.0,0.0,0.0,0.0,0.0,0.0,0.0,0.0,0.0,0.0,0.0,0.0,0.0,0.0,0.0,0.0,0.0,0.0,0.0,0.0,0.0,0.0,0.0,0.0,0.0,0.0,0.0,0.0,0.0,0.0,0.0,0.0,0.0,0.0,0.0,0.0,0.0,0.0,0.0,0.0,0.0,0.0,0.0,0.0,0.0,0.0,0.0,0.0,0.0,0.0,0.0,0.0,0.0,0.0,0.0,0.0,0.0,0.0,0.0,0.0,0.0,0.0,0.0,0.0,0.0,0.0,0.0,0.0,0.0,0.0,0.0,0.0,0.0,0.0,0.0,0.0,0.0,0.0,0.0,0.0,0.0,0.0,0.0,0.0,0.0,0.0,0.0,0.0,-1.6183,-1.5672,-1.5614,-1.5291,-1.5096,-1.5175,-1.5175,-1.5074,-1.4846,-1.5118,0.0,0.0,0.0,0.0,0.0,0.0,0.0,0.0,0.0,0.0,0.0,0.0,0.0,0.0,0.0,0.0,0.0,0.0,0.0,0.0,0.0,0.0,0.0,0.0,0.0,0.0,0.0,0.0,0.0,0.0,0.0,0.0,0.0,0.0,0.0,0.0,0.0,0.0,0.0,0.0,0.0,0.0,0.0,0.0,0.0,0.0,0.0,0.0,0.0,0.0,0.0,0.0,0.0,0.0,0.0,0.0,0.0,0.0,0.0,0.0,0.0,0.0,0.0,0.0,0.0,0.0,0.0,0.0,0.0,0.0,0.0,0.0,0.0,0.0,0.0,0.0,0.0,0.0,0.0,0.0,0.0,0.0,0.0,0.0,0.0,0.0,0.0,0.0,0.0,0.0,0.0,0.0,0.0,0.0,0.0,0.0,0.0,0.0,0.0,0.0,0.0,0.0,-1.6003,-1.5559,-1.5958,-1.5784,-1.5668,-1.5768,-1.5802,-1.5635,-1.5277,-1.5603,0.0,0.0,0.0,0.0,0.0,0.0,0.0,0.0,0.0,0.0,0.0,0.0,0.0,0.0,0.0,0.0,0.0,0.0,0.0,0.0,0.0,0.0,0.0,0.0,0.0,0.0,0.0,0.0,0.0,0.0,0.0,0.0,0.0,0.0,0.0,0.0,0.0,0.0,0.0,0.0,0.0,0.0,0.0,0.0,0.0,0.0,0.0,0.0,0.0,0.0,0.0,0.0,0.0,0.0,0.0,0.0,0.0,0.0,0.0,0.0,0.0,0.0,0.0,0.0,0.0,0.0,0.0,0.0,0.0,0.0,0.0,0.0,0.0,0.0,0.0,0.0,0.0,0.0,0.0,0.0,0.0,0.0,0.0,0.0,0.0,0.0,0.0,0.0,0.0,0.0,0.0,0.0,0.0,0.0,0.0,0.0,0.0,0.0,0.0,0.0,0.0,0.0,-1.6235,-1.5824,-1.5975,-1.5499,-1.5153,-1.5153,-1.5153,-1.5322,-1.5722,-1.578,0.0,0.0,0.0,0.0,0.0,0.0,0.0,0.0,0.0,0.0,0.0,0.0,0.0,0.0,0.0,0.0,0.0,0.0,0.0,0.0,0.0,0.0,0.0,0.0,0.0,0.0,0.0,0.0,0.0,0.0,0.0,0.0,0.0,0.0,0.0,0.0,0.0,0.0,0.0,0.0,0.0,0.0,0.0,0.0,0.0,0.0,0.0,0.0,0.0,0.0,0.0,0.0,0.0,0.0,0.0,0.0,0.0,0.0,0.0,0.0,0.0,0.0,0.0,0.0,0.0,0.0,0.0,0.0,0.0,0.0,0.0,0.0,0.0,0.0,0.0,0.0,0.0,0.0,0.0,0.0,0.0,0.0,0.0,0.0,0.0,0.0,0.0,0.0,0.0,0.0,0.0,0.0,0.0,0.0,0.0,0.0,0.0,0.0,0.0,0.0,0.0,0.0,-1.6665,-1.6281,0.0,-1.6154,-1.5966,-1.5966,-1.5966,-1.6086,-1.6346,0.0,0.0,0.0,0.0,0.0,0.0,0.0,0.0,0.0,0.0,0.0,0.0,0.0,0.0,0.0,0.0,0.0,0.0,0.0,0.0,0.0,0.0,0.0,0.0,0.0,0.0,0.0,0.0,0.0,0.0,0.0,0.0,0.0,0.0,0.0,0.0,0.0,0.0,0.0,0.0,0.0,0.0,0.0,0.0,0.0,0.0,0.0,0.0,0.0,0.0,0.0,0.0,0.0,0.0,0.0,0.0,0.0,0.0,0.0,0.0,0.0,0.0,0.0,0.0,0.0,0.0,0.0,0.0,0.0,0.0,0.0,0.0,0.0,0.0,0.0,0.0,0.0,0.0,0.0,0.0,0.0,0.0,0.0,0.0,0.0,0.0,0.0,0.0,0.0,0.0,0.0,0.0,0.0,0.0,0.0,0.0,0.0,0.0,0.0,0.0,0.0,0.0,-1.7323,-1.6842,-1.6543,0.0,-1.6741,-1.6798,-1.6798,-1.6948,-1.7071,-1.7169,0.0,0.0,0.0,0.0,0.0,0.0,0.0,0.0,0.0,0.0,0.0,0.0,0.0,0.0,0.0,0.0,0.0,0.0,0.0,0.0,0.0,0.0,0.0,0.0,0.0,0.0,0.0,0.0,0.0,0.0,0.0,0.0,0.0,0.0,0.0,0.0,0.0,0.0,0.0,0.0,0.0,0.0,0.0,0.0,0.0,0.0,0.0,0.0,0.0,0.0,0.0,0.0,0.0,0.0,0.0,0.0,0.0,0.0,0.0,0.0,0.0,0.0,0.0,0.0,0.0,0.0,0.0,0.0,0.0,0.0,0.0,0.0,0.0,0.0,0.0,0.0,0.0,0.0,0.0,0.0,0.0,0.0,0.0,0.0,0.0,0.0,0.0,0.0,0.0,0.0,0.0,0.0,0.0,0.0,0.0,0.0,0.0,0.0,0.0,0.0,0.0,0.0,-1.6994,-1.6684,-1.6534,-1.6534,-1.7071,-1.741,-1.741,-1.789,-1.8204,0.0,0.0,0.0,0.0,0.0,0.0,0.0,0.0,0.0,0.0,0.0,0.0,0.0,0.0,0.0,0.0,0.0,0.0,0.0,0.0,0.0,0.0,0.0,0.0,0.0,0.0,0.0,0.0,0.0,0.0,0.0,0.0,0.0,0.0,0.0,0.0,0.0,0.0,0.0,0.0,0.0,0.0,0.0,0.0,0.0,0.0,0.0,0.0,0.0,0.0,0.0,0.0,0.0,0.0,0.0,0.0,0.0,0.0,0.0,0.0,0.0,0.0,0.0,0.0,0.0,0.0,0.0,0.0,0.0,0.0,0.0,0.0,0.0,0.0,0.0,0.0,0.0,0.0,0.0,0.0,0.0,0.0,0.0,0.0,0.0,0.0,0.0,0.0,0.0,0.0,0.0,0.0,0.0,0.0,0.0,0.0,0.0,0.0,0.0,0.0,0.0,0.0,0.0,-1.8041,-1.8166,-1.8334,-1.8525,-1.8706,-1.8811,-1.8811,-1.8695,-1.8681,-1.8842,0.0,0.0,0.0,0.0,0.0,0.0,0.0,0.0,0.0,0.0,0.0,0.0,0.0,0.0,0.0,0.0,0.0,0.0,0.0,0.0,0.0,0.0,0.0,0.0,0.0,0.0,0.0,0.0,0.0,0.0,0.0,0.0,0.0,0.0,0.0,0.0,0.0,0.0,0.0,0.0,0.0,0.0,0.0,0.0,0.0,0.0,0.0,0.0,0.0,0.0,0.0,0.0,0.0,0.0,0.0,0.0,0.0,0.0,0.0,0.0,0.0,0.0,0.0,0.0,0.0,0.0,0.0,0.0,0.0,0.0,0.0,0.0,0.0,0.0,0.0,0.0,0.0,0.0,0.0,0.0,0.0,0.0,0.0,0.0,0.0,0.0,0.0,0.0,0.0,0.0,0.0,0.0,0.0,0.0,0.0,0.0,0.0,0.0,0.0,0.0,0.0,0.0,-1.8702,-1.895,-1.9152,-1.9084,-1.9432,-1.9575,-1.9403,-1.9378,-1.9352,-1.9387,0.0,0.0,0.0,0.0,0.0,0.0,0.0,0.0,0.0,0.0,0.0,0.0,0.0,0.0,0.0,0.0,0.0,0.0,0.0,0.0,0.0,0.0,0.0,0.0,0.0,0.0,0.0,0.0,0.0,0.0,0.0,0.0,0.0,0.0,0.0,0.0,0.0,0.0,0.0,0.0,0.0,0.0,0.0,0.0,0.0,0.0,0.0,0.0,0.0,0.0,0.0,0.0,0.0,0.0,0.0,0.0,0.0,0.0,0.0,0.0,0.0,0.0,0.0,0.0,0.0,0.0,0.0,0.0,0.0,0.0,0.0,0.0,0.0,0.0,0.0,0.0,0.0,0.0,0.0,0.0,0.0,0.0,0.0,0.0,0.0,0.0,0.0,0.0,0.0,0.0,0.0,0.0,0.0,0.0,0.0,0.0,0.0,0.0,0.0,0.0,0.0,0.0,-1.9127,-1.9353,-1.9379,-1.8872,-1.9572,-1.9959,-1.9586,-1.9963,-2.0118,-1.9875,0.0,0.0,0.0,0.0,0.0,0.0,0.0,0.0,0.0,0.0,0.0,0.0,0.0,0.0,0.0,0.0,0.0,0.0,0.0,0.0,0.0,0.0,0.0,0.0,0.0,0.0,0.0,0.0,0.0,0.0,0.0,0.0,0.0,0.0,0.0,0.0,0.0,0.0,0.0,0.0,0.0,0.0,0.0,0.0,0.0,0.0,0.0,0.0,0.0,0.0,0.0,0.0,0.0,0.0,0.0,0.0,0.0,0.0,0.0,0.0,-1.0963,0.0,0.0,0.0,0.0,0.0,0.0,0.0,0.0,0.0,0.0,0.0,0.0,0.0,0.0,0.0,0.0,0.0,0.0,0.0,0.0,0.0,0.0,0.0,0.0,0.0,0.0,0.0,0.0,0.0,0.0,0.0,0.0,0.0,0.0,0.0,0.0,0.0,0.0,0.0,0.0,0.0,-2.0176,-2.0533,-2.0719,-2.0512,-2.0667,-2.0758,-2.066,-2.047,-2.0321,-2.0296,-2.0271,0.0,0.0,0.0,0.0,0.0,0.0,0.0,0.0,0.0,0.0,0.0,0.0,0.0,0.0,0.0,0.0,0.0,0.0,0.0,0.0,0.0,0.0,0.0,0.0,0.0,0.0,0.0,0.0,0.0,0.0,0.0,0.0,0.0,0.0,0.0,0.0,0.0,0.0,0.0,0.0,0.0,0.0,0.0,0.0,0.0,0.0,0.0,0.0,0.0,0.0,0.0,0.0,0.0,0.0,0.0,0.0,0.0,0.0,0.0,0.0,-1.1866,0.0,0.0,0.0,0.0,0.0,0.0,0.0,0.0,0.0,0.0,0.0,0.0,0.0,0.0,0.0,0.0,0.0,0.0,0.0,0.0,0.0,0.0,0.0,0.0,0.0,0.0,0.0,0.0,0.0,0.0,0.0,0.0,0.0,0.0,0.0,0.0,0.0,0.0,0.0,0.0,-2.0591,-2.1027,-2.1298,-2.1066,-2.1357,-2.1552,-2.1433,-2.1004,-2.0669,-2.0552,-2.0335,0.0,0.0,0.0,0.0,0.0,0.0,0.0,0.0,0.0,0.0,0.0,0.0,0.0,0.0,0.0,0.0,0.0,0.0,0.0,0.0,0.0,0.0,0.0,0.0,0.0,0.0,0.0,0.0,0.0,0.0,0.0,0.0,0.0,0.0,0.0,0.0,0.0,0.0,0.0,0.0,0.0,0.0,0.0,0.0,0.0,0.0,0.0,0.0,0.0,0.0,0.0,0.0,0.0,-1.3331,-1.334,-1.3359,-1.3835,-1.3595,-1.2877,-1.3414,-1.2853,-1.1646,-1.3022,0.0,0.0,0.0,0.0,0.0,0.0,0.0,0.0,0.0,0.0,0.0,0.0,0.0,0.0,0.0,0.0,0.0,0.0,0.0,0.0,0.0,0.0,0.0,0.0,-1.7011,-1.7323,0.0,0.0,0.0,0.0,0.0,0.0,0.0,0.0,0.0,0.0,0.0,0.0,-2.0635,-2.1044,-2.1255,-2.0899,-2.1419,-2.1706,-2.1549,-2.1113,-2.0804,-2.0718,-2.0435,-2.0374,0.0,0.0,0.0,0.0,0.0,0.0,0.0,0.0,0.0,0.0,0.0,0.0,0.0,0.0,0.0,0.0,0.0,0.0,0.0,0.0,0.0,0.0,0.0,0.0,0.0,0.0,0.0,0.0,0.0,0.0,0.0,0.0,-0.9454,-0.9313,0.0,0.0,0.0,0.0,0.0,0.0,0.0,0.0,0.0,0.0,0.0,0.0,0.0,-1.2131,-1.1921,-1.2201,-1.2193,-1.1892,-1.2959,-1.3095,-1.2434,-1.4212,-1.4277,-1.3007,-1.3655,0.0,-1.3287,-1.2301,0.0,0.0,0.0,0.0,0.0,0.0,0.0,0.0,0.0,0.0,0.0,0.0,0.0,0.0,0.0,0.0,0.0,0.0,0.0,0.0,0.0,0.0,-1.4385,-1.6672,-1.7262,-1.7301,0.0,-1.7596,-1.8127,-1.9074,-1.919,0.0,0.0,0.0,0.0,0.0,0.0,0.0,-2.0523,-2.0485,-2.0423,-2.0015,-2.0066,-2.0117,-2.0076,-2.0013,-2.0177,-2.0666,-2.0643,-2.0791,-2.1172,-2.1225,0.0,0.0,0.0,0.0,0.0,0.0,0.0,0.0,0.0,0.0,0.0,0.0,0.0,0.0,0.0,0.0,0.0,0.0,0.0,0.0,0.0,0.0,0.0,0.0,0.0,0.0,0.0,0.0,0.0,-0.8473,-0.9369,-0.8822,-0.9005,-0.9004,0.0,0.0,0.0,0.0,0.0,0.0,0.0,0.0,0.0,-1.1662,-1.2641,-1.3071,-1.2849,-1.2863,-1.288,-1.2937,-1.2966,-1.2818,-1.2571,-1.3455,-1.357,-1.3082,-1.3449,-1.3878,-1.4229,-1.2932,-1.2426,-1.2484,0.0,0.0,0.0,0.0,-1.4027,-1.4473,-1.4016,-1.4052,0.0,-1.3679,0.0,0.0,0.0,0.0,0.0,0.0,0.0,0.0,0.0,0.0,-1.5567,-1.7188,-1.785,-1.8075,-1.7958,-1.8112,-1.8435,0.0,-1.9325,-1.9872,-2.0904,0.0,0.0,0.0,0.0,-2.1078,-2.0373,-2.0346,-2.0566,-2.0984,-2.1221,-2.1403,-2.1493,-2.1492,-2.1384,-2.1157,-2.0867,-2.0811,-2.1064,-2.081,-2.0707,0.0,0.0,0.0,0.0,0.0,0.0,0.0,0.0,0.0,0.0,0.0,0.0,0.0,0.0,0.0,0.0,0.0,0.0,0.0,0.0,0.0,0.0,0.0,0.0,0.0,0.0,0.0,0.0,-0.8994,-0.9532,-0.8648,-0.9076,-0.9308,0.0,0.0,0.0,0.0,0.0,0.0,-1.0685,-1.0984,-1.151,-1.2323,-1.3129,-1.362,-1.3806,-1.367,-1.3771,-1.4092,-1.3376,-1.3041,-1.3064,-1.3291,-1.3313,-1.3154,-1.3469,-1.39,-1.4351,-1.348,-1.2646,-1.2012,-1.2675,-1.2914,-1.2965,-1.3588,-1.4113,-1.4516,-1.4347,-1.4426,-1.4607,-1.4474,0.0,-1.4191,-1.4459,0.0,0.0,0.0,0.0,-1.2648,-1.3617,-1.5042,-1.6487,-1.7499,-1.814,-1.8546,-1.8394,-1.8389,-1.8464,0.0,-1.8901,-1.9414,-2.0285,0.0,0.0,0.0,0.0,-2.0629,-2.0156,-2.0195,-2.054,-2.1358,-2.169,-2.1925,-2.2035,-2.2298,-2.2112,-2.1333,-2.1165,-2.1044,-2.0903,-2.0564,-2.0425,-2.0486,0.0,0.0,0.0,0.0,0.0,0.0,0.0,0.0,0.0,0.0,0.0,0.0,0.0,0.0,0.0,0.0,0.0,0.0,0.0,0.0,0.0,0.0,0.0,0.0,0.0,0.0,0.0,0.0,0.0,-0.9612,-1.0185,0.0,0.0,0.0,0.0,-1.0585,-1.0382,-1.0322,-1.0498,-1.0837,-1.1472,-1.246,-1.2925,-1.3621,-1.4629,-1.4435,-1.4345,-1.4378,-1.4312,-1.4106,-1.3793,-1.4614,-1.4369,-1.3343,-1.4106,-1.4016,-1.3378,-1.3391,-1.3935,-1.4696,-1.3675,-1.3314,-1.3386,-1.3542,-1.3232,-1.2772,-1.3067,-1.334,-1.359,-1.3713,-1.3986,-1.4278,-1.4148,-1.399,0.0,0.0,-1.3884,-1.4047,-1.5106,-1.5743,-1.635,-1.7297,-1.7892,-1.8233,-1.8202,-1.8406,-1.8386,0.0,-1.76,-1.7712,-1.8022,0.0,-1.841,-1.9356,-1.9499,-1.9565,-1.9798,-1.9824,-1.9849,-1.9899,-1.9938,-1.995,-1.995,-2.0874,-2.1248,-2.0769,-2.1617,-2.1749,-2.0929,-2.0891,-2.0731,-2.041,-2.0979,0.0,0.0,0.0,0.0,0.0,0.0,0.0,0.0,0.0,0.0,0.0,0.0,0.0,0.0,0.0,0.0,0.0,0.0,0.0,0.0,0.0,0.0,0.0,0.0,0.0,0.0,0.0,0.0,-0.9726,-1.036,0.0,-0.9698,-0.9802,-1.0109,-1.0543,-1.1028,-1.1472,-1.1826,-1.2716,-1.3382,-1.3838,-1.4211,-1.4415,-1.4511,-1.4296,-1.4098,-1.3891,-1.3808,-1.3683,-1.3541,-1.3866,-1.3895,-1.3695,-1.3858,-1.4161,-1.4494,-1.4401,-1.4132,-1.3762,-1.3715,-1.3899,-1.4257,-1.4824,-1.5267,-1.5576,-1.569,-1.5993,-1.6334,-1.643,-1.6486,-1.6381,-1.581,-1.5368,-1.4976,-1.4591,-1.4821,-1.531,-1.5833,-1.6917,-1.7988,-1.8328,-1.8775,-1.9062,-1.8922,-1.8984,-1.8846,-1.8218,-1.8396,-1.887,-1.9513,-1.9632,-1.9767,-2.0165,-2.0235,-2.0116,-1.9834,-1.9798,-2.0014,-2.0589,-2.0628,-2.0628,-2.0628,-2.1323,-2.1615,-2.1247,-2.1546,-2.1764,-2.1788,-2.1476,-2.1268,-2.1241,-2.146,-2.1819,0.0,0.0,0.0,0.0,0.0,0.0,0.0,0.0,0.0,0.0,0.0,0.0,0.0,0.0,0.0,0.0,0.0,0.0,0.0,0.0,0.0,0.0,0.0,0.0,0.0,0.0,-1.0512,-0.9754,-1.0427,-1.076,-1.0277,-1.0399,-1.0799,-1.1451,-1.1943,-1.2445,-1.2988,-1.3444,-1.3923,-1.4447,-1.4605,-1.4698,-1.4664,-1.4596,-1.4384,-1.4044,-1.3966,-1.3871,-1.3726,-1.3871,-1.3989,-1.4054,-1.4115,-1.4462,-1.4987,-1.4838,-1.4321,-1.3717,-1.4283,-1.4551,-1.4686,-1.546,-1.6077,-1.6584,-1.6894,-1.7253,-1.7595,-1.7926,-1.7989,-1.7874,-1.7571,-1.7216,-1.6869,-1.6492,-1.6758,-1.7217,-1.7275,-1.8287,-1.9273,-1.9208,-1.96,-1.9904,-1.9701,-1.9768,-1.9742,-1.926,-1.9083,-1.9123,-1.9543,-1.9605,-1.9783,-2.0252,-2.0134,-2.0001,-2.0023,-1.9871,-2.0074,-2.088,-2.1024,-2.1159,-2.1387,-2.2077,-2.2281,-2.1701,-2.1909,-2.2071,-2.2106,-2.1822,-2.1731,-2.1869,-2.2061,-2.2448,-2.3073,0.0,0.0,0.0,0.0,0.0,0.0,0.0,0.0,0.0,0.0,0.0,0.0,0.0,0.0,0.0,0.0,0.0,0.0,0.0,0.0,0.0,0.0,0.0,-0.9269,-1.0627,-1.1117,-0.9833,-1.0501,-1.1133,-1.1324,-1.1458,-1.2089,-1.3412,-1.308,-1.308,-1.3741,-1.2893,-1.2922,-1.4183,-1.406,-1.4358,-1.5229,-1.5424,-1.5325,-1.4932,-1.4932,-1.4753,-1.4457,-1.4788,-1.4753,-1.448,-1.4964,-1.4995,-1.4621,-1.4606,-1.4661,-1.4784,-1.5435,-1.5262,-1.4726,-1.5372,-1.5474,-1.5435,-1.6391,-1.6862,-1.7111,-1.7904,-1.8325,-1.86,-1.9246,-1.9438,-1.9505,-1.9703,-1.9736,-1.9703,-1.9505,-1.982,-2.0089,-1.9882,-2.0285,-2.0669,-2.0456,-2.074,-2.0952,-2.074,-1.9479,-1.8341,-1.7895,-1.7823,-1.8224,-1.9481,-1.9111,0.0,-2.0362,-2.0106,-2.0024,-2.0677,-2.0941,-2.1334,-2.1963,-2.291,-2.3044,-2.2097,-2.2741,-2.2765,-2.1807,-2.1961,-2.2098,-2.2235,-2.278,-2.3238,-2.3628,0.0,0.0,0.0,0.0,0.0,0.0,0.0,0.0,0.0,0.0,0.0,0.0,0.0,0.0,0.0,0.0,0.0,0.0,0.0,0.0,0.0,-0.9776,-1.072,-1.0611,-1.1165,-1.1578,-1.157,-1.2138,-1.2489,-1.241,-1.2385,-1.2635,-1.3297,-1.3085,-1.3085,-1.3349,-1.3571,-1.3931,-1.4469,-1.4903,-1.5346,-1.5772,-1.5809,-1.5742,-1.5471,-1.5471,-1.5433,-1.5358,-1.5433,-1.5433,-1.535,-1.5095,-1.5128,-1.5363,-1.4818,-1.4988,-1.5535,-1.5407,-1.5433,-1.5613,-1.6229,-1.6696,-1.711,-1.7759,-1.8422,-1.9042,-1.9435,-1.9967,-2.0514,-2.0562,-2.057,-2.0605,-2.0799,-2.0879,-2.0879,-2.0982,-2.0976,-2.0968,-2.0898,-2.0903,-2.0917,-2.0846,-2.0907,-2.0977,-2.0917,-2.0564,-2.0302,-2.0309,-2.0322,-2.0463,-2.09,-2.0812,0.0,-2.1109,-2.14,-2.1662,-2.1844,-2.2258,-2.2493,-2.242,-2.2543,-2.2619,-2.259,-2.2644,-2.2811,-2.3067,-2.3138,-2.3196,-2.3212,-2.3788,-2.4134,0.0,0.0,0.0,0.0,0.0,0.0,0.0,0.0,0.0,0.0,0.0,0.0,0.0,0.0,0.0,0.0,0.0,0.0,0.0,0.0,0.0,0.0,-1.0503,-1.1643,-1.1859,-1.1936,-1.211,-1.2477,-1.2717,-1.2814,-1.275,-1.2848,-1.3017,-1.3273,-1.3316,-1.343,-1.3699,-1.3903,-1.4272,-1.4737,-1.5157,-1.5536,-1.5873,-1.5958,-1.5912,-1.5712,-1.5712,-1.5643,-1.5574,-1.5643,-1.5712,0.0,-1.5511,-1.5567,-1.574,-1.5335,-1.5458,0.0,0.0,0.0,0.0,0.0,-1.7342,-1.7664,-1.8315,-1.8888,-1.9393,-1.9945,-2.06,-2.1185,-2.1375,-2.1583,-2.1764,-2.1955,-2.2002,-2.2038,-2.2038,-2.1966,-2.1858,-2.1786,-2.1739,-2.1681,-2.1609,-2.1718,-2.179,-2.1728,-2.179,0.0,-2.1991,-2.156,-2.1298,-2.1688,-2.1497,-2.1397,-2.1648,-2.1876,-2.2124,-2.2415,-2.2767,-2.3194,-2.3571,-2.3424,0.0,0.0,0.0,-2.3795,-2.4034,-2.3939,0.0,0.0,0.0,-2.4321,-2.4118,0.0,0.0,0.0,-2.4267,-2.4491,0.0,0.0,0.0,0.0,0.0,0.0,0.0,0.0,0.0,0.0,0.0,0.0,0.0,0.0,0.0,0.0,-1.1272,-1.2336,-1.3042,-1.2884,-1.2749,-1.2844,-1.2767,-1.2727,-1.2799,-1.3078,-1.3266,-1.3307,-1.3585,-1.3902,-1.4262,0.0,0.0,0.0,0.0,-1.5249,-1.5793,-1.5955,-1.5955,-1.5793,-1.5793,-1.5723,-1.5545,-1.5723,-1.5793,-1.5817,-1.6087,-1.6095,-1.5943,-1.5888,-1.5955,-1.6085,-1.6003,-1.6222,-1.6731,-1.741,-1.7587,-1.7605,-1.8356,0.0,0.0,-2.0065,-2.07,-2.129,-2.206,-2.2515,-2.2815,-2.2964,-2.3001,-2.2964,-2.2777,-2.274,-2.2703,-2.2515,-2.259,-2.2665,-2.2515,-2.274,-2.2964,-2.2777,-2.2889,-2.3001,-2.3001,-2.2027,-2.1466,-2.2108,-2.1642,-2.1466,-2.2108,-2.198,-2.2084,-2.2685,0.0,0.0,-2.4798,-2.4705,-2.4811,-2.5281,-2.5294,-2.5139,-2.484,-2.459,-2.4416,-2.4279,-2.4445,-2.4328,-2.388,-2.3957,-2.3986,-2.4016,-2.4973,-2.5481,0.0,0.0,0.0,0.0,0.0,0.0,0.0,0.0,0.0,0.0,0.0,0.0,0.0,0.0,0.0,-1.0765,-1.2196,-1.3374,-1.3975,-1.3941,-1.3747,-1.3403,-1.3725,-1.38,-1.3472,-1.3574,-1.3624,-1.3485,-1.3364,-1.3365,-1.3444,-1.3548,-1.4074,-1.4991,-1.4835,-1.5334,-1.6491,-1.6215,-1.6215,-1.6491,0.0,0.0,-1.6451,-1.6491,-1.6491,-1.6516,-1.6301,-1.6166,-1.6111,-1.5678,-1.5685,-1.5964,-1.6215,-1.6291,-1.638,-1.6993,-1.762,-1.8158,-1.8479,-1.9511,-2.0693,-2.1282,-2.2003,-2.2696,-2.3154,-2.3261,0.0,-2.3224,-2.3113,-2.3001,-2.2964,-2.2927,-2.2927,-2.2889,-2.2927,-2.2927,-2.2889,-2.2964,-2.3001,-2.2964,-2.2964,-2.3001,-2.3001,-2.2774,-2.2644,-2.2791,-2.2717,-2.2644,-2.2802,-2.3204,-2.3494,-2.3638,-2.407,-2.4319,-2.4294,-2.4155,-2.4073,-2.4132,-2.4705,-2.5237,-2.5561,-2.5537,-2.5484,-2.5467,-2.5748,-2.5778,-2.5546,-2.619,-2.6459,-2.6313,-2.5366,-2.4962,0.0,0.0,0.0,0.0,0.0,0.0,0.0,0.0,0.0,0.0,0.0,-0.8173,-0.9092,0.0,-1.0991,-1.1691,-1.291,-1.3924,-1.4425,-1.4456,-1.4348,-1.4148,-1.4281,-1.4262,-1.3947,-1.3991,-1.3968,-1.3768,-1.3682,-1.3714,-1.3854,-1.3959,-1.4438,-1.5255,-1.5197,-1.5755,-1.7051,-1.6838,-1.7008,-1.7439,-1.7439,-1.7389,-1.7254,-1.7254,-1.7254,-1.7247,-1.7064,-1.6897,-1.6714,-1.6244,-1.6157,-1.6322,-1.6495,-1.6597,-1.6735,-1.7543,-1.8111,-1.8564,-1.933,-2.0155,-2.0917,-2.1366,-2.1922,-2.2478,-2.2889,-2.324,-2.3588,-2.3775,-2.3953,-2.4066,-2.4066,-2.4066,-2.4066,-2.4066,-2.4066,-2.4066,-2.4066,-2.4066,-2.4066,-2.4066,-2.4066,-2.3989,-2.3745,-2.37,-2.3537,-2.3071,-2.3001,-2.3001,-2.3001,-2.3446,-2.3751,-2.3751,-2.4093,-2.4375,-2.4554,-2.4932,-2.5281,-2.5544,-2.5655,-2.5807,-2.6096,-2.5918,-2.5793,-2.5793,-2.5967,-2.5998,-2.5918,-2.6294,-2.6448,-2.6404,-2.5994,-2.5988,0.0,0.0,0.0,0.0,0.0,0.0,0.0,-0.7871,-0.825,-0.9489,-0.978,-0.9952,-1.0394,-1.1157,-1.1935,-1.2548,-1.352,-1.4336,-1.4753,-1.4808,-1.4853,-1.4853,-1.4675,-1.4481,-1.4277,-1.4396,-1.4329,-1.4083,-1.4211,-1.4318,-1.4502,-1.4576,-1.493,-1.5562,-1.5524,-1.6102,-1.7291,-1.7255,-1.7517,-1.8099,-1.8099,-1.8004,-1.7814,-1.7866,-1.7866,-1.7814,-1.7814,-1.7663,-1.7358,-1.7127,-1.6959,-1.6903,-1.6974,-1.7073,-1.725,-1.8154,-1.8602,-1.891,-2.0167,-2.0682,-2.0855,-2.1286,-2.1617,-2.1959,-2.2478,-2.3113,-2.3808,-2.4186,-2.4621,-2.4976,-2.4976,-2.5043,-2.5122,-2.5122,-2.5122,-2.5122,-2.5122,-2.5122,-2.5122,-2.5122,-2.5122,-2.4987,-2.4583,-2.4464,-2.4126,-2.3264,-2.3113,-2.3113,-2.3113,-2.3409,-2.3638,-2.3727,-2.3886,-2.4288,-2.4952,-2.5788,-2.6543,-2.7139,-2.6729,-2.6567,-2.6726,-2.6367,-2.6183,-2.6183,-2.6151,-2.6119,-2.6087,-2.6396,-2.6512,-2.6467,-2.7327,-2.7671,-0.5593,-0.6304,-0.6984,-0.6961,-0.7926,-0.8937,0.0,-0.9191,-0.9465,-1.0094,-0.9861,-0.9853,-1.0836,-1.1688,-1.244,-1.3114,-1.4111,-1.4881,-1.51,-1.5246,-1.5321,-1.5321,-1.5065,-1.4768,-1.456,-1.4846,-1.4817,-1.4392,-1.4644,-1.4713,-1.4516,-1.477,-1.5147,-1.5606,-1.5263,-1.5702,-1.7012,-1.6676,-1.6984,-1.7858,-1.7858,-1.7814,-1.7814,-1.8048,-1.8048,-1.7814,-1.7814,-1.779,-1.7783,-1.8009,-1.7938,-1.7727,-1.8001,-1.7775,-1.7321,-1.7861,-1.8536,-1.9372,-2.0217,-2.0913,-2.1517,-2.209,-2.2176,-2.2252,-2.3187,-2.3405,-2.3461,-2.383,-2.4228,-2.4487,-2.4487,-2.4785,-2.5122,-2.5122,-2.5122,-2.5122,-2.5122,-2.5122,-2.5122,-2.5122,-2.5122,-2.5099,-2.5043,-2.4662,-2.4202,-2.3634,-2.3519,-2.3519,-2.3519,-2.3556,-2.3761,-2.4273,-2.4318,-2.4547,-2.5063,-2.5571,-2.6094,-2.6644,-2.6785,-2.7176,-2.7868,-2.7709,-2.7591,-2.7591,-2.7406,-2.7241,-2.7154,-2.8452,-2.8991,-2.8845,-3.0292,-2.9521,-0.7356,-0.7319,-0.7277,-0.8467,-0.8882,-0.9211,-0.9984,-1.0318,-1.0642,-1.1418,-1.1502,-1.1654,-1.2369,-1.2839,-1.3375,-1.4117,-1.4629,-1.5006,-1.5271,-1.5377,-1.5389,-1.5389,-1.5265,-1.5143,-1.5061,-1.5094,-1.5035,-1.4865,-1.4888,-1.4946,-1.501,-1.5287,-1.5526,-1.5729,-1.5703,-1.625,-1.7417,-1.7235,-1.7652,-1.8607,-1.875,-1.875,-1.8607,-1.8893,-1.8848,-1.8607,-1.8607,-1.8518,-1.8398,-1.8541,-1.8518,-1.8398,-1.8549,-1.843,-1.8258,-1.883,-1.9155,-1.9481,-2.0818,-2.1454,-2.1731,-2.1959,-2.1987,-2.2111,-2.2964,-2.3422,-2.3718,-2.4306,-2.4804,-2.5165,-2.5165,-2.5313,-2.5433,-2.5433,-2.5433,-2.5433,-2.5433,-2.5433,-2.5433,-2.5433,-2.5433,-2.5433,-2.5433,-2.504,-2.4619,-2.4377,-2.392,-2.3593,-2.3593,-2.3703,-2.4005,-2.4641,-2.4698,-2.5017,-2.5854,-2.6071,-2.6464,-2.7017,-2.7127,-2.7319,-2.7678,-2.7617,-2.7582,-2.7582,-2.8178,-2.8456,-2.84,-2.9747,-3.0321,-3.0274,-3.0985,-3.0633,-0.804,-0.7977,-0.7954,-0.9541,-0.9828,-0.997,-1.1081,-1.1437,-1.1755,-1.2535,-1.2858,-1.3105,-1.3448,-1.377,-1.417,-1.4729,-1.494,-1.5119,-1.5352,-1.5389,-1.5389,-1.5389,-1.5469,-1.552,-1.552,-1.5394,-1.5347,-1.5438,-1.5383,-1.5404,-1.5601,-1.5848,-1.6039,-1.6015,-1.6123,-1.6683,-1.7699,-1.7652,-1.811,-1.9096,-1.9342,-1.9387,-1.9188,-1.9487,-1.9537,-1.9426,-1.938,-1.9251,-1.9121,-1.9217,-1.9201,-1.9121,-1.9225,-1.9145,-1.9068,-1.9748,-1.9927,-1.9962,-2.1485,-2.1994,-2.1973,-2.1849,-2.1807,-2.1959,-2.2777,-2.3279,-2.3742,-2.4494,-2.5084,-2.5497,-2.5497,-2.5601,-2.5716,-2.5716,-2.5716,-2.5716,-2.5716,-2.5716,-2.5716,-2.5716,-2.5716,-2.5716,-2.5716,-2.5268,-2.4912,-2.4912,-2.424,-2.3787,-2.3787,-2.4011,-2.4374,-2.484,-2.5226,-2.5716,-2.6459,-2.6685,-2.699,-2.7443,-2.7443,-2.7482,-2.7545,-2.7471,-2.7471,-2.7471,-2.8301,-2.8715,-2.8785,-3.0198,-3.0794,-3.0593,-3.1227,-3.1364,-0.6582,-0.7836,-0.9175,-0.9667,-1.085,-1.2036,-1.2534,-1.2642,-1.2735,-1.31,-1.3353,-1.3492,-1.3586,-1.4178,-1.4663,-1.46,-1.5039,-1.5374,-1.5389,-1.5389,-1.5389,-1.5389,-1.5709,-1.5899,0.0,-1.5863,-1.5901,-1.5991,-1.6254,-1.6394,-1.6179,-1.6413,-1.6574,-1.6588,-1.6312,-1.669,-1.7675,-1.7426,-1.7846,-1.8827,-1.9096,-1.9188,-1.9188,-1.9487,-1.9769,-2.0083,-1.9808,-1.9765,-1.9909,-2.0202,-2.0138,-1.9917,-2.021,-1.994,-1.9494,-2.0267,-2.0727,-2.1096,-2.212,-2.248,-2.2397,-2.1952,-2.1807,-2.1959,-2.2777,-2.3012,-2.3172,-2.3993,-2.4568,-2.4935,-2.4935,-2.5325,-2.5716,-2.5716,-2.5716,-2.5716,-2.5716,-2.5716,-2.5716,-2.5716,-2.5716,-2.5716,-2.5716,-2.5268,-2.4912,-2.4912,-2.451,-2.4189,-2.4189,-2.4565,-2.49,-2.4912,-2.6003,-2.6673,-2.6512,-2.7164,-2.7579,-2.7579,-2.7579,-2.7671,-2.7864,-2.7717,-2.757,-2.757,-2.7508,-2.7542,-2.7739,-2.9671,-3.0255,-2.959,-3.1463,-3.1768,-0.7902,-0.8772,-0.9787,-1.1077,-1.1882,-1.2464,-1.2935,-1.3143,-1.3252,-1.3361,-1.3183,-1.3079,-1.344,-1.3815,-1.4214,-1.4736,-1.5136,-1.5462,-1.5681,-1.5528,-1.5469,-1.5723,-1.5848,-1.6082,0.0,0.0,0.0,-1.6321,-1.6442,-1.6501,-1.6467,-1.6727,-1.6777,-1.6636,-1.669,-1.6885,-1.7214,-1.716,-1.7527,-1.8319,-1.9112,-1.9525,-1.9654,-1.9936,-2.0084,-2.0116,-2.026,-2.0281,-2.0241,-2.0599,-2.0678,-2.0575,-2.0694,-2.0599,-2.0518,-2.1339,-2.17,-2.1795,-2.1798,-2.2248,-2.279,-2.2641,-2.306,-2.3587,-2.353,-2.3545,-2.3561,-2.3746,-2.39,-2.4098,-2.4356,-2.4568,-2.4705,-2.4705,-2.4705,-2.4705,-2.4705,-2.4705,-2.4705,-2.4705,-2.4705,-2.4809,-2.513,-2.4774,-2.4441,-2.4441,-2.4292,-2.42,-2.42,-2.4338,-2.4556,-2.4877,-2.5286,-2.5788,-2.6472,-2.6727,-2.6997,-2.7295,-2.7318,-2.7345,-2.7435,-2.7356,-2.7426,-2.7607,-2.8325,-2.8809,-2.9035,-3.0473,-3.1065,-3.0837,-3.1355,-3.1405,-0.9437,-1.0094,-1.0703,-1.1991,-1.2486,-1.2792,-1.3194,-1.3419,-1.3492,-1.3492,-1.3173,-1.2991,-1.3171,-1.3388,-1.3704,-1.4227,-1.4619,-1.5065,-1.5462,-1.5447,-1.5506,-1.5877,-1.6118,-1.6411,-1.6859,0.0,0.0,-1.6795,-1.6803,-1.6797,-1.685,-1.7012,-1.7012,-1.6864,-1.6925,-1.7073,-1.7261,-1.716,-1.7527,-1.8365,-1.9212,-1.9783,-2.0121,-2.0405,-2.0547,-2.0656,-2.0743,-2.0802,-2.075,-2.0829,-2.0925,-2.0925,-2.0925,-2.0968,-2.1097,-2.1653,-2.1919,-2.2045,-2.2272,-2.279,-2.3364,-2.348,-2.396,-2.4469,-2.4292,-2.42,-2.4186,-2.4288,-2.4303,-2.4356,-2.4728,-2.4802,-2.4728,-2.4839,-2.4802,-2.474,-2.474,-2.474,-2.474,-2.474,-2.474,-2.4832,-2.5142,-2.4946,-2.474,-2.474,-2.474,-2.4613,-2.4246,-2.42,-2.4315,-2.4625,-2.4809,-2.5187,-2.5853,-2.6295,-2.6639,-2.6932,-2.7128,-2.719,-2.719,-2.719,-2.7261,-2.7431,-2.8217,-2.8762,-2.9051,-3.0188,-3.065,-3.0457,-3.0646,-3.0643,-1.1003,-1.1645,-1.1909,-1.2409,-1.2798,-1.3119,-1.3426,-1.3492,-1.3492,-1.3477,-1.3341,-1.314,-1.2747,-1.3022,-1.3267,-1.3244,-1.3709,-1.4275,-1.4863,-1.5221,-1.5535,-1.5899,-1.6477,-1.691,-1.6925,-1.7428,0.0,-1.7308,0.0,-1.7301,-1.7279,-1.7279,-1.7279,-1.7279,-1.7106,-1.7214,-1.7682,-1.7426,-1.78,-1.8735,-1.935,-1.9908,-2.0474,-2.0772,-2.1142,-2.161,-2.1313,-2.1261,-2.1326,-2.107,-2.0917,-2.0925,-2.0925,-2.107,-2.1275,-2.1318,-2.1471,-2.1921,-2.3428,-2.3992,-2.4013,-2.4321,-2.4459,-2.4578,-2.4955,-2.4945,-2.4904,-2.5499,-2.5543,-2.5495,-2.5923,-2.5847,-2.5743,-2.595,-2.5847,-2.5716,-2.5716,-2.5716,-2.5716,-2.5716,-2.5716,-2.5716,-2.5716,-2.5716,-2.5716,-2.5716,-2.5716,-2.5371,-2.4395,-2.4246,-2.4235,-2.4235,-2.4613,-2.4889,-2.4912,-2.5819,-2.6432,-2.6467,-2.6887,-2.7121,-2.7144,-2.7144,-2.7185,-2.7226,-2.7226,-2.7451,-2.7912,-2.8845,-2.9073,-2.8609,-2.9403,-2.9662,-1.1667,-1.2291,-1.2827,-1.2875,-1.3227,-1.3577,-1.3513,-1.3492,-1.3426,-1.3184,-1.2824,-1.2491,-1.2218,-1.2748,-1.3334,-1.3725,-1.4499,-1.5204,-1.5571,-1.5738,-1.5906,-1.6213,-1.6653,-1.6998,-1.7186,-1.7355,0.0,0.0,-1.7505,-1.7582,-1.7293,-1.7279,-1.7279,-1.7279,-1.7239,-1.72,-1.7167,-1.7667,-1.79,-1.8001,-1.9074,-1.9815,-2.0193,-2.0474,-2.0982,-2.161,-2.1511,-2.1562,-2.1573,-2.1522,-2.1369,-2.1224,-2.1224,-2.1121,-2.107,-2.1471,-2.1623,-2.1887,-2.3269,-2.3657,-2.3493,-2.3586,-2.4173,-2.4808,-2.4816,-2.4771,-2.4778,-2.5148,-2.5337,-2.548,-2.5889,-2.595,-2.595,-2.5989,-2.5847,-2.5716,-2.5716,-2.5716,-2.5716,-2.5716,-2.5716,-2.5716,-2.5716,-2.5716,-2.5716,-2.5716,-2.5716,-2.5624,-2.536,-2.4981,-2.4728,-2.4728,-2.4522,-2.4522,-2.4889,-2.5153,-2.5474,-2.5876,-2.6026,-2.6267,-2.6645,-2.6657,-2.6925,-2.7506,-2.7506,-2.7613,-2.7912,-2.816,-2.8275,-2.8321,-2.8955,-2.9352,-1.3173,-1.34,-1.3433,-1.338,-1.3584,-1.3716,-1.3352,-1.3359,-1.3298,-1.2862,-1.2528,-1.2193,-1.1885,-1.2373,-1.2917,-1.3293,-1.404,-1.4754,-1.5276,-1.5646,-1.5987,-1.6205,-1.6739,-1.7128,-1.7311,-1.741,-1.7479,0.0,-1.7454,-1.7523,-1.7286,-1.7279,-1.7279,-1.7279,-1.7279,-1.7239,-1.7106,-1.7893,-1.8218,-1.8087,-1.9358,-2.0187,-2.0545,-2.099,-2.1476,-2.2036,0.0,-2.1745,-2.1878,-2.1623,-2.1522,-2.1471,-2.1471,-2.1471,-2.1471,-2.1776,-2.1979,-2.2182,-2.2937,-2.3138,-2.3079,-2.3768,-2.4402,-2.4955,-2.5212,-2.5136,-2.5078,-2.5937,-2.6036,-2.6006,-2.6665,-2.6753,-2.6651,-2.6651,-2.6516,-2.6381,-2.6381,-2.6381,-2.6381,-2.6381,-2.6381,-2.6381,-2.6381,-2.6381,-2.6381,-2.6381,-2.6381,-2.6381,-2.6381,-2.5727,-2.5268,-2.5268,-2.5027,-2.4969,-2.5245,-2.5463,-2.5727,-2.6026,-2.6255,-2.6508,-2.6783,-2.6795,-2.6995,-2.7411,-2.7411,-2.7532,-2.7778,-2.7778,-2.7853,-2.8081,-2.8721,-2.9298,-1.4862,-1.4605,-1.3935,-1.3826,-1.3797,-1.3636,-1.3153,-1.312,-1.3048,-1.2508,-1.2299,-1.2067,-1.1654,-1.1953,-1.2339,-1.255,-1.3163,-1.3832,-1.4545,-1.543,-1.6009,-1.61,-1.6829,-1.7301,-1.7344,-1.7611,-1.7633,-1.7301,-1.7279,-1.7279,-1.7279,-1.7279,-1.7279,-1.7279,-1.7279,-1.7279,-1.7279,-1.8079,-1.8473,-1.8566,-1.9802,-2.0654,-2.1179,-2.1703,-2.2201,-2.2594,-2.2038,0.0,-2.2131,-2.1674,-2.1573,-2.1776,-2.1776,-2.1869,-2.2072,-2.208,-2.2283,-2.2544,-2.2594,-2.2594,-2.2846,-2.4165,-2.4599,-2.4737,-2.5577,-2.5516,-2.5518,-2.716,-2.722,-2.6967,-2.7836,-2.7795,-2.7563,-2.7563,-2.7371,-2.719,-2.719,-2.719,-2.719,-2.719,-2.719,-2.719,-2.719,-2.719,-2.719,-2.719,-2.719,-2.719,-2.719,-2.6404,-2.5807,-2.5807,-2.575,-2.5716,-2.5716,-2.6117,-2.6409,-2.6409,-2.6783,-2.7018,-2.7087,-2.7128,-2.7121,-2.719,-2.719,-2.7325,-2.7567,-2.7567,-2.7654,-2.789,-2.8551,-2.9352,-1.5248,-1.4947,-1.4553,-1.3935,-1.3681,-1.3484,-1.3301,-1.2942,-1.2505,-1.2005,-1.1811,-1.1639,-1.1398,-1.1727,-1.228,-1.2971,-1.3602,-1.4216,-1.4911,-1.582,-1.6492,-1.6724,-1.7053,-1.7388,-1.7706,-1.7538,0.0,0.0,-1.7279,-1.7279,-1.7279,-1.7279,-1.7279,-1.7279,-1.7279,-1.7279,-1.7279,-1.7893,-1.8411,-1.8926,-1.9612,-2.0462,-2.1517,-2.1625,-2.2002,-2.2594,-2.2493,0.0,-2.2493,-2.2392,-2.2241,-2.2021,-2.2021,-2.1928,-2.1827,-2.2021,-2.2131,-2.2232,-2.2493,-2.2594,-2.2644,-2.2887,-2.2987,-2.3167,-2.4236,-2.5034,-2.5902,-2.7278,-2.7927,-2.8302,-2.8734,-2.8309,-2.7841,-2.7841,-2.7516,-2.719,-2.719,-2.719,-2.719,-2.719,-2.719,-2.719,-2.719,-2.719,-2.719,-2.719,-2.719,-2.719,-2.719,-2.6703,-2.6375,-2.6375,-2.5957,-2.5716,-2.5716,-2.5796,-2.5842,-2.5842,-2.5922,-2.6163,-2.6577,-2.6639,-2.6795,-2.7179,-2.719,-2.7226,-2.7256,-2.7256,-2.7406,-2.7664,-2.8293,-2.9088,-1.5246,-1.484,-1.4374,-1.3891,-1.3819,-1.3684,-1.3155,-1.2714,-1.2217,-1.1559,-1.1263,-1.1085,-1.1189,-1.1387,-1.1789,-1.259,-1.349,-1.4137,-1.4451,-1.5778,-1.6682,-1.6675,-1.7196,-1.7706,-1.8035,-1.7772,-1.7582,-1.7582,-1.7381,-1.7279,-1.7279,-1.7279,-1.7279,-1.7279,-1.7279,-1.7279,-1.7279,-1.7846,-1.8481,-1.9201,-1.9925,-2.083,-2.1807,-2.1994,-2.2281,-2.2594,-2.2434,0.0,-2.2603,-2.2392,-2.2333,-2.2342,-2.2342,-2.2291,-2.2182,-2.2283,-2.2342,-2.2392,-2.2544,-2.2594,-2.2594,-2.2594,-2.2594,-2.2761,-2.369,-2.4096,-2.4708,-2.6802,-2.7316,-2.7482,-2.8502,-2.8409,-2.799,-2.7736,-2.7423,-2.719,-2.719,-2.719,-2.719,-2.719,-2.719,-2.719,-2.719,-2.719,-2.719,-2.719,-2.719,-2.719,-2.719,-2.7013,-2.6864,-2.6864,-2.6645,-2.6456,-2.6456,-2.6456,-2.6456,-2.6456,-2.6456,-2.6611,-2.6852,-2.6864,-2.6978,-2.7179,-2.719,-2.719,-2.719,-2.719,-2.7256,-2.7413,-2.8579,-2.9399,-1.5035,-1.4712,-1.4238,-1.3899,-1.3928,-1.3795,-1.2923,-1.247,-1.1989,-1.1138,-1.0754,-1.0644,-1.0968,-1.1027,-1.1281,-1.209,-1.3042,-1.3742,-1.3885,-1.5526,-1.6715,-1.667,-1.733,-1.7969,-1.8364,-1.8108,0.0,-1.7918,-1.7618,-1.7399,-1.7286,-1.7279,-1.7279,-1.7279,-1.7279,-1.7279,-1.7279,-1.7707,-1.8473,-1.9503,-2.0175,-2.1087,-2.2124,-2.2465,-2.2594,-2.2603,-2.2333,0.0,0.0,-2.2333,-2.2342,-2.2594,-2.2594,-2.2594,-2.2594,-2.2594,-2.2594,-2.2594,-2.2594,-2.2594,-2.2594,-2.2594,-2.2594,-2.2728,-2.3381,-2.3537,-2.3949,-2.6228,-2.657,-2.6574,-2.8165,-2.8263,-2.7834,-2.7551,-2.733,-2.719,-2.719,-2.719,-2.719,-2.719,-2.719,-2.719,-2.719,-2.719,-2.719,-2.719,-2.719,-2.719,-2.719,-2.719,-2.719,-2.719,-2.719,-2.719,-2.719,-2.719,-2.719,-2.719,-2.719,-2.719,-2.719,-2.719,-2.719,-2.719,-2.719,-2.719,-2.719,-2.719,-2.7313,-2.7505,-2.8819,-2.9626,-1.4697,-1.4887,-1.4883,-1.4008,-1.379,-1.3607,-1.2729,-1.2221,-1.1684,-1.074,-1.0439,-1.0431,-1.0772,-1.0824,-1.107,-1.1806,-1.2374,-1.3005,-1.3783,-1.517,-1.6368,-1.7123,-1.7549,-1.8057,-1.8686,-1.8445,-1.8255,-1.8255,-1.7955,-1.764,-1.7301,-1.7279,-1.7279,-1.7279,-1.7279,-1.7279,-1.7279,-1.7326,-1.821,-1.9869,-1.9949,-2.086,-2.2551,-2.2577,-2.2594,-2.2594,-2.2594,0.0,0.0,-2.2594,-2.2594,-2.2594,-2.2594,-2.2594,-2.2594,-2.2594,-2.2594,-2.2594,-2.2594,-2.2594,-2.2594,-2.2594,-2.2594,-2.2676,-2.2961,-2.3989,-2.5237,-2.5993,-2.6508,-2.7074,-2.8296,-2.779,-2.7028,-2.7429,-2.733,-2.719,-2.719,-2.719,-2.719,-2.719,-2.719,-2.719,-2.719,-2.719,-2.719,-2.719,-2.719,-2.719,-2.719,-2.719,-2.719,-2.719,-2.719,-2.719,-2.719,-2.719,-2.719,-2.719,-2.719,-2.719,-2.719,-2.719,-2.719,-2.719,-2.719,-2.719,-2.719,-2.719,-2.7615,-2.8383,-2.8542,-2.9369,-1.4082,-1.4439,-1.4485,-1.3453,-1.3331,-1.3263,-1.2351,-1.1722,-1.1149,-1.0394,-1.0126,-1.0149,-1.0605,-1.0503,-1.0595,-1.1312,-1.2228,-1.2856,-1.2868,-1.4629,-1.6089,-1.653,-1.729,-1.8072,0.0,0.0,-1.843,-1.8035,-1.7706,0.0,-1.7286,-1.7279,-1.7279,-1.7279,-1.7279,-1.7279,-1.7279,-1.7523,-1.8374,-1.9917,-2.0083,-2.1039,-2.2594,-2.2594,-2.2594,-2.2594,-2.2594,0.0,0.0,-2.2594,-2.2594,-2.2594,-2.2594,-2.2594,-2.2594,-2.2594,-2.2594,-2.2594,-2.2594,-2.2594,-2.2594,-2.2594,-2.2594,-2.2619,-2.2704,-2.3403,-2.4316,-2.5353,-2.5698,-2.6048,-2.7261,-2.7117,-2.6805,-2.7574,-2.7464,-2.719,-2.719,-2.719,-2.719,-2.719,-2.719,-2.719,-2.719,-2.719,-2.719,-2.719,-2.719,-2.719,-2.719,-2.719,-2.719,-2.719,-2.719,-2.719,-2.719,-2.719,-2.719,-2.719,-2.719,-2.719,-2.719,-2.719,-2.719,-2.719,-2.719,-2.719,-2.719,-2.719,-2.7655,-2.8502,-2.9003,-2.9833,-1.3247,-1.3801,-1.4012,-1.3025,-1.293,-1.2843,-1.1972,-1.1382,-1.0851,-1.0161,-0.9895,-0.9966,-1.0498,-1.0404,-1.0422,-1.1012,-1.2059,-1.269,-1.236,-1.4202,-1.5696,-1.6031,-1.6919,-1.7823,-1.8577,-1.873,-1.8555,-1.7999,-1.7655,0.0,-1.7333,-1.7279,-1.7279,-1.7279,-1.7279,-1.7279,-1.7279,-1.7505,-1.8404,-1.9917,-2.0114,-2.1072,-2.2594,-2.2594,-2.2594,-2.2594,-2.2594,0.0,0.0,-2.2594,-2.2594,-2.2594,-2.2594,-2.2594,-2.2594,-2.2594,-2.2594,-2.2594,-2.2594,-2.2594,-2.2594,-2.2594,-2.2594,-2.2594,-2.2594,-2.2937,-2.3529,-2.4609,-2.5317,-2.5943,-2.6683,-2.7015,-2.725,-2.786,-2.7621,-2.726,-2.7231,-2.719,-2.719,-2.719,-2.719,-2.719,-2.719,-2.719,-2.719,-2.719,-2.719,-2.719,-2.719,-2.719,-2.719,-2.719,-2.719,-2.719,-2.719,-2.719,-2.719,-2.719,-2.719,-2.719,-2.719,-2.719,-2.719,-2.719,-2.719,-2.719,-2.719,-2.719,-2.7655,-2.8542,-2.9316,-3.0266,-1.211,-1.2978,-1.3733,-1.2998,-1.2648,-1.2315,-1.1669,-1.1287,-1.086,-0.9986,-0.9799,-0.9966,-1.0498,-1.0616,-1.0712,-1.1054,-1.1781,-1.2335,-1.2473,-1.3899,-1.5155,-1.5797,-1.6477,-1.7292,-1.8211,-1.8599,-1.865,-1.8321,-1.7991,0.0,-1.7301,-1.7279,-1.7279,-1.7279,-1.7279,-1.7279,-1.7279,-1.7286,-1.8178,-1.9917,-1.9917,-2.0827,-2.2594,-2.2594,-2.2594,0.0,0.0,0.0,0.0,-2.2594,-2.2594,-2.2594,-2.2594,-2.2594,-2.2594,-2.2594,-2.2594,-2.2594,-2.2594,-2.2594,-2.2594,-2.2594,-2.2594,-2.2594,-2.2594,-2.2937,-2.3429,-2.3985,-2.5724,-2.7364,-2.7002,-2.7743,-2.8538,-2.8354,-2.7905,-2.7441,-2.7219,-2.719,-2.719,-2.719,-2.719,-2.719,-2.719,-2.719,-2.719,-2.719,-2.719,-2.719,-2.719,-2.719,-2.719,-2.719,-2.719,-2.719,-2.719,-2.719,-2.719,-2.719,-2.719,-2.719,-2.719,-2.719,-2.719,-2.719,-2.719,-2.719,-2.719,-2.719,-2.7655,-2.8542,-2.9316,-3.0595,-1.0975,-1.1684,-1.2158,-1.1188,-1.1255,-1.138,-1.0705,-1.0436,-1.0223,-0.9743,-0.974,-0.9966,-1.0498,-1.0587,-1.0668,-1.0856,-1.1761,-1.2239,-1.1687,-1.3506,-1.4979,-1.5148,-1.6733,-1.8138,0.0,0.0,-1.8657,-1.8328,0.0,0.0,-1.7301,-1.7538,-1.756,-1.7286,-1.7279,-1.7279,-1.7279,-1.7552,-1.8404,-1.9917,-2.0106,-2.1064,-2.2594,-2.2594,-2.2594,0.0,0.0,0.0,0.0,-2.2594,-2.2594,-2.2594,-2.2594,-2.2594,-2.2594,-2.2594,-2.2594,-2.2594,-2.2594,-2.2594,-2.2594,-2.2594,-2.2594,-2.2594,-2.2594,-2.3188,-2.3971,-2.462,-2.5299,-2.6017,-2.6734,-2.7074,-2.7411,-2.8142,-2.8071,-2.7716,-2.73,-2.719,-2.719,-2.719,-2.719,-2.719,-2.719,-2.719,-2.719,-2.719,-2.719,-2.719,-2.719,-2.719,-2.719,-2.719,-2.719,-2.719,-2.719,-2.719,-2.719,-2.719,-2.719,-2.719,-2.719,-2.719,-2.719,-2.719,-2.719,-2.719,-2.719,-2.719,-2.7926,-2.9355,-3.0139,-3.1108,-1.0295,-1.0992,-1.1459,-1.072,-1.0687,-1.0695,-1.0285,-1.0049,-0.987,-0.964,-0.9673,-0.9906,-1.0498,-1.053,-1.0654,-1.1095,-1.1887,-1.2373,-1.2151,-1.3715,-1.5073,-1.5533,-1.7098,0.0,0.0,-1.884,-1.8701,-1.8503,0.0,0.0,-1.7706,-1.7889,-1.7904,-1.7699,-1.7527,-1.7574,-1.7691,-1.7772,-1.857,-2.0067,-2.0289,-2.1178,-2.2594,-2.2594,-2.2594,0.0,0.0,0.0,0.0,-2.2594,-2.2594,-2.2594,-2.2594,-2.2594,-2.2594,-2.2594,-2.2594,-2.2594,-2.2594,-2.2594,-2.2594,-2.2594,-2.2594,-2.2644,-2.2795,-2.3438,-2.4177,-2.461,-2.5436,-2.637,-2.7133,-2.7552,-2.7977,-2.8577,-2.8434,-2.798,-2.7587,-2.7328,-2.719,-2.719,-2.719,-2.719,-2.719,-2.719,-2.719,-2.719,-2.719,-2.719,-2.719,-2.719,-2.719,-2.719,-2.719,-2.719,-2.719,-2.719,-2.719,-2.719,-2.719,-2.719,-2.719,-2.719,-2.719,-2.719,-2.719,-2.719,-2.719,-2.719,-2.8047,-2.9704,-3.0228,-3.1071,0.0,-1.0761,-1.1348,-1.1188,-1.0702,-1.028,-1.0319,-1.006,0.0,-0.9614,-0.9588,-0.9811,-1.047,-1.0437,-1.0629,-1.1628,-1.2066,-1.2612,-1.3545,-1.4439,-1.5506,0.0,-1.7508,0.0,-1.8343,-1.865,-1.8811,0.0,0.0,0.0,-1.8299,-1.8321,-1.8343,-1.8343,-1.8043,-1.8021,-1.8299,-1.7999,-1.8698,-2.0342,-2.0392,-2.1128,-2.2544,-2.2594,-2.2594,0.0,0.0,0.0,0.0,-2.2594,-2.2594,-2.2594,-2.2594,-2.2594,-2.2594,-2.2594,-2.2594,-2.2594,-2.2594,-2.2594,-2.2594,-2.2594,-2.2594,-2.2695,-2.3129,-2.3628,-2.4084,-2.4134,-2.5916,-2.7799,-2.794,-2.8808,-2.9625,-2.9502,-2.8853,-2.8275,-2.7985,-2.7564,-2.719,-2.719,-2.719,-2.719,-2.719,-2.719,-2.719,-2.719,-2.719,-2.719,-2.719,-2.719,-2.719,-2.719,-2.719,-2.719,-2.719,-2.719,-2.719,-2.719,-2.719,-2.719,-2.719,-2.719,-2.719,-2.719,-2.719,-2.719,-2.719,-2.719,-2.8047,-2.9704,-2.9704,-3.0595,-0.9517,0.0,-1.0169,-0.9786,-0.9725,-0.9757,0.0,-0.9725,-0.9647,-0.9614,-0.9588,-0.9811,-1.047,-1.0437,-1.0587,-1.149,-1.189,-1.236,-1.3207,-1.4972,0.0,-1.7838,-1.8313,-1.8686,-1.9016,-1.9118,-1.906,0.0,0.0,-1.8562,-1.8313,-1.854,-1.8672,-1.8672,-1.8599,-1.8474,-1.8299,-1.8225,-1.8726,-1.9776,-2.0184,-2.0927,-2.1928,-2.2392,-2.2594,0.0,0.0,0.0,-2.2594,-2.2594,-2.2594,-2.2594,-2.2594,-2.2594,-2.2594,-2.2594,-2.2594,-2.2594,-2.2594,-2.2594,-2.2594,-2.2594,-2.2594,-2.2594,-2.2745,-2.3088,-2.3678,-2.448,-2.5167,-2.5984,-2.761,-2.8229,-2.8512,-2.8805,-2.8743,-2.8364,-2.7564,-2.727,-2.719,-2.719,-2.719,-2.719,-2.719,-2.719,-2.719,-2.719,-2.719,-2.719,-2.719,-2.719,-2.719,-2.719,-2.719,-2.719,-2.719,-2.719,-2.719,-2.719,-2.719,-2.719,-2.719,-2.719,-2.719,-2.719,-2.719,-2.719,-2.719,-2.719,-2.8047,-2.9704,-2.9704,-3.0595,-0.9107,-0.9293,-0.9501,-0.923,-0.9249,-0.9351,-0.9409,-0.9519,-0.9588,-0.9588,-0.9731,-0.996,-1.0378,-1.0711,-1.1094,-1.1704,-1.2432,-1.3215,-1.4074,0.0,-1.6839,-1.7709,-1.8145,-1.8584,0.0,0.0,0.0,0.0,0.0,-1.8935,-1.876,-1.8913,-1.9016,-1.9016,-1.9016,-1.8928,-1.8752,-1.8606,-1.9082,-2.0218,-2.0479,-2.1131,-2.2131,-2.2443,-2.2594,0.0,0.0,0.0,-2.2594,-2.2594,-2.2594,-2.2594,-2.2594,-2.2594,-2.2594,-2.2594,-2.2594,-2.2594,-2.2594,-2.2594,-2.2594,-2.2594,-2.2594,-2.2594,-2.2594,-2.2795,-2.3188,-2.4233,-2.5197,-2.6254,-2.7657,-2.8502,-2.9009,-2.9075,-2.8884,-2.8494,-2.7736,-2.7351,-2.719,-2.719,-2.719,-2.719,-2.719,-2.719,-2.719,-2.719,-2.719,-2.719,-2.719,-2.719,-2.719,-2.719,-2.719,-2.719,-2.719,-2.719,-2.719,-2.719,-2.719,-2.719,-2.719,-2.719,-2.719,-2.719,-2.719,-2.719,-2.719,-2.7615,-2.8462,-2.9704,-3.0075,-3.0959,-0.8773,-0.8895,-0.9128,-0.902,-0.9008,-0.9029,-0.9168,-0.9402,-0.9588,-0.9588,-0.987,-1.0144,-1.0322,-1.1001,-1.1677,-1.2013,-1.3288,0.0,-1.5362,-1.6206,-1.6865,-1.7413,-1.7808,0.0,-1.9199,0.0,0.0,0.0,0.0,-1.9279,-1.9279,-1.9279,-1.9279,-1.9279,-1.9279,-1.9324,-1.9428,-1.9147,-1.9607,-2.0763,-2.0917,-2.153,-2.2493,-2.2544,-2.2594,-2.2594,0.0,0.0,-2.2594,-2.2594,-2.2594,-2.2594,-2.2594,-2.2594,-2.2594,-2.2594,-2.2594,-2.2594,-2.2594,-2.2594,-2.2594,-2.2594,-2.2594,-2.2594,-2.2594,-2.2594,-2.2795,-2.3737,-2.5275,-2.6798,-2.7647,-2.8817,-2.9693,-2.946,-2.9033,-2.8551,-2.8031,-2.7529,-2.719,-2.719,-2.719,-2.719,-2.719,-2.719,-2.719,-2.719,-2.719,-2.719,-2.719,-2.719,-2.719,-2.719,-2.719,-2.719,-2.719,-2.719,-2.719,-2.719,-2.719,-2.719,-2.719,-2.719,-2.719,-2.719,-2.719,-2.719,-2.719,-2.7926,-2.874,-2.9549,-3.0329,-3.1182,-0.8507,-0.8658,-0.881,-0.8639,-0.8784,-0.9029,-0.9168,-0.9402,-0.9588,-0.9588,-0.987,-1.0199,-1.05,-1.1001,-1.1574,-1.2315,-1.3995,-1.5369,0.0,0.0,-1.8043,-1.8138,0.0,-1.9111,-1.9309,0.0,0.0,0.0,0.0,-1.9279,-1.9279,-1.9279,-1.9279,-1.9279,-1.9279,-1.9532,-1.9983,-1.993,-2.0033,-2.0241,-2.1165,-2.1674,-2.1878,-2.2392,-2.2594,-2.2594,0.0,-2.2594,-2.2594,-2.2594,-2.2594,-2.2594,-2.2594,-2.2594,-2.2594,-2.2594,-2.2594,-2.2594,-2.2594,-2.2594,-2.2594,-2.2594,-2.2594,-2.2594,-2.2594,-2.2594,-2.2695,-2.3288,-2.3669,-2.4442,-2.6713,-2.7474,-2.7907,-2.8859,-2.8887,-2.8479,-2.7754,-2.7388,-2.719,-2.719,-2.719,-2.719,-2.719,-2.719,-2.719,-2.719,-2.719,-2.719,-2.719,-2.719,-2.719,-2.719,-2.719,-2.719,-2.719,-2.719,-2.719,-2.719,-2.719,-2.719,-2.719,-2.719,-2.719,-2.719,-2.719,-2.719,-2.719,-2.7342,-2.7846,-2.8688,-2.951,-3.0342,-0.8242,-0.8143,-0.8157,-0.8436,-0.9026,-0.9611,-0.9899,-1.0177,-1.0376,-1.0256,-1.0603,-1.0909,-1.0875,-1.1596,-1.262,-1.3864,-1.4725,-1.5423,-1.5937,-1.6739,-1.7384,0.0,0.0,-1.8694,0.0,0.0,0.0,0.0,0.0,0.0,-1.9279,-1.9279,-1.9279,-1.9279,-1.9279,-1.9576,-2.0078,-2.0395,-2.0652,-2.0952,-2.1463,-2.1878,-2.219,-2.2493,-2.2594,-2.2594,0.0,-2.2594,-2.2594,-2.2594,-2.2594,-2.2594,-2.2594,-2.2594,-2.2594,-2.2594,-2.2594,-2.2594,-2.2594,-2.2594,-2.2594,-2.2594,-2.2594,-2.2594,-2.2594,-2.2594,-2.2644,-2.2837,-2.3429,-2.4482,-2.6778,-2.7405,-2.7713,-2.8786,-2.8688,-2.8157,-2.7492,-2.726,-2.719,-2.719,-2.719,-2.719,-2.719,-2.719,-2.719,-2.719,-2.719,-2.719,-2.719,-2.719,-2.719,-2.719,-2.719,-2.719,-2.719,-2.719,-2.719,-2.719,-2.719,-2.719,-2.719,-2.719,-2.719,-2.719,-2.719,-2.719,-2.719,-2.7935,-2.8502,-2.8895,-2.9979,-3.0702,-0.8049,-0.7884,-0.7889,-0.8377,-0.9101,-0.9868,-1.0519,-1.0864,-1.1048,-1.1124,-1.1498,-1.1723,-1.1468,-1.2349,-1.3631,-1.5141,-1.5322,-1.5496,-1.6133,-1.6513,-1.6887,-1.7384,-1.7801,0.0,0.0,0.0,0.0,0.0,0.0,0.0,-1.9279,-1.9279,-1.9279,-1.9279,-1.9279,-1.9635,-2.0292,-2.0712,-2.1173,-2.1725,-2.1827,-2.2131,-2.2594,-2.2594,-2.2594,-2.2594,-2.2594,-2.2594,-2.2594,-2.2594,-2.2594,-2.2594,-2.2594,-2.2594,-2.2594,-2.2594,-2.2594,-2.2594,-2.2594,-2.2594,-2.2594,-2.2594,-2.2534,-2.2465,-2.2465,-2.2465,-2.2465,-2.2615,-2.3597,-2.5003,-2.6758,-2.7368,-2.7766,-2.8818,-2.8607,-2.8019,-2.7398,-2.7231,-2.719,-2.719,-2.719,-2.719,-2.719,-2.719,-2.719,-2.719,-2.719,-2.719,-2.719,-2.719,-2.719,-2.719,-2.719,-2.719,-2.719,-2.719,-2.719,-2.719,-2.719,-2.719,-2.719,-2.719,-2.7247,-2.7362,-2.7403,-2.7461,-2.7534,-2.8598,-2.9077,-2.9118,-3.0343,-3.091,-0.8002,-0.8261,-0.8603,-0.8515,-0.8636,-0.9153,-1.0566,-1.0866,-1.1078,-1.2009,-1.2325,-1.2419,-1.2385,-1.2974,-1.3894,-1.5177,-1.5637,-1.6155,-1.7053,0.0,-1.7728,-1.7772,-1.8335,0.0,0.0,0.0,0.0,0.0,0.0,0.0,-1.9279,-1.9279,-1.9279,-1.9279,-1.9279,-1.9791,-2.0822,-2.0873,-2.1173,-2.1725,-2.2291,-2.2544,-2.2594,-2.2594,-2.2594,-2.2594,-2.2594,-2.2594,-2.2594,-2.2594,-2.2594,-2.2594,-2.2594,-2.2594,-2.2594,-2.2594,-2.2594,-2.2594,-2.2594,-2.2594,-2.2594,-2.2594,-2.2371,-2.2038,-2.2038,-2.2038,-2.2137,-2.2628,-2.3764,-2.5023,-2.6184,-2.6853,-2.7518,-2.8701,-2.8806,-2.8422,-2.7649,-2.733,-2.719,-2.719,-2.719,-2.719,-2.719,-2.719,-2.719,-2.719,-2.719,-2.719,-2.719,-2.719,-2.719,-2.719,-2.719,-2.719,-2.719,-2.719,-2.719,-2.719,-2.719,-2.719,-2.719,-2.719,-2.7449,-2.792,-2.7931,-2.8149,-2.8597,-2.8674,-2.8729,-2.8772,-2.9647,-3.0091,-0.7801,-0.8195,-0.8724,-0.8546,-0.9011,-0.9865,-1.1195,-1.1623,-1.2019,-1.3081,-1.3312,-1.3383,-1.3591,-1.4359,-1.5094,-1.5338,-1.603,-1.6668,-1.6982,-1.7458,-1.7841,-1.7993,0.0,0.0,0.0,0.0,0.0,0.0,0.0,0.0,-1.9182,-1.9182,-1.9182,-1.9182,-1.9032,-1.9375,-2.0265,-2.0265,-2.0703,-2.1499,-2.2271,-2.2594,-2.2594,-2.2594,-2.2695,-2.2846,-2.2695,-2.2695,-2.2846,-2.2644,-2.2594,-2.2594,-2.2594,-2.2594,-2.2594,-2.2594,-2.2594,-2.2594,-2.2594,-2.2594,-2.2594,-2.2594,-2.2345,-2.2045,-2.2331,-2.2477,-2.2531,-2.2775,-2.4277,-2.6011,-2.7063,-2.7607,-2.8103,-2.9023,-2.8842,-2.8256,-2.7492,-2.726,-2.719,-2.719,-2.719,-2.719,-2.719,-2.719,-2.719,-2.719,-2.719,-2.719,-2.719,-2.719,-2.719,-2.719,-2.719,-2.719,-2.719,-2.719,-2.719,-2.719,-2.719,-2.719,-2.719,-2.719,-2.7472,-2.7977,-2.7977,-2.8218,-2.87,-2.9033,-2.9194,-2.9238,-3.0059,-3.0312,-0.7593,-0.7802,-0.8292,-0.8594,-0.9251,-1.021,-1.1676,-1.2127,-1.2641,-1.4138,-1.4426,-1.4455,-1.461,-1.5234,-1.5752,0.0,-1.6272,-1.6815,-1.702,-1.734,-1.7663,0.0,0.0,0.0,0.0,0.0,0.0,0.0,0.0,0.0,0.0,-1.9052,-1.9102,-1.9102,-1.8913,-1.92,-2.0014,-2.0063,-2.0587,-2.1509,-2.2083,-2.2391,-2.244,-2.244,-2.2559,-2.2763,-2.2564,-2.2633,-2.2846,-2.2695,-2.2594,-2.2594,-2.2594,-2.2594,-2.2594,-2.2594,-2.2594,-2.2594,-2.2594,-2.2594,-2.2594,-2.2594,-2.2345,-2.2094,-2.2575,-2.277,-2.2872,-2.3264,-2.4832,-2.6617,-2.7453,-2.8245,-2.888,-2.9404,-2.9032,-2.8352,-2.7617,-2.7305,-2.719,-2.719,-2.719,-2.719,-2.719,-2.719,-2.719,-2.719,-2.719,-2.719,-2.719,-2.719,-2.719,-2.719,-2.719,-2.719,-2.719,-2.719,-2.719,-2.719,-2.719,-2.719,-2.719,-2.719,-2.7529,-2.8195,-2.8207,-2.8528,-2.9171,-2.955,-2.9722,-2.9722,-3.0296,-3.044,-0.7419,-0.7125,-0.7356,-0.8663,-0.9217,-0.9924,-1.1874,-1.2151,-1.2697,-1.5095,-1.5639,-1.5665,-1.5423,-1.5389,-1.5643,-1.6309,-1.6411,-1.6594,-1.7238,-1.7279,0.0,0.0,0.0,0.0,0.0,0.0,0.0,0.0,0.0,0.0,0.0,-1.8947,-1.9094,-1.9094,-1.9094,-1.9429,-2.0208,-2.0442,-2.0973,-2.1778,-2.1778,-2.1882,-2.2099,-2.2099,-2.2158,-2.2313,-2.2313,-2.2432,-2.2585,-2.2585,-2.2585,-2.2594,-2.2594,-2.2594,-2.2594,-2.2594,-2.2594,-2.2594,-2.2594,-2.2594,-2.2594,-2.2594,-2.2345,-2.2085,-2.2624,-2.277,-2.3005,-2.4106,-2.5332,-2.6512,-2.7037,-2.8495,-2.9772,-2.9794,-2.9439,-2.8908,-2.8176,-2.7587,-2.7201,-2.719,-2.719,-2.719,-2.719,-2.719,-2.719,-2.719,-2.719,-2.719,-2.719,-2.719,-2.719,-2.719,-2.719,-2.719,-2.719,-2.719,-2.719,-2.719,-2.719,-2.719,-2.719,-2.719,-2.7649,-2.8666,-2.87,-2.9194,-3.0204,-3.0216,-3.0216,-3.0216,-3.0216,-3.0216,-0.7384,-0.8333,-0.9569,-0.9106,-1.023,-1.1654,-1.246,-1.2499,-1.2791,-1.4313,-1.553,-1.6126,-1.5446,-1.5755,0.0,-1.6052,-1.6426,-1.6903,-1.7267,-1.7481,0.0,0.0,0.0,0.0,0.0,0.0,0.0,0.0,0.0,0.0,0.0,-1.8541,-1.869,-1.869,-1.869,-1.9004,-1.9783,-1.9643,-2.0108,-2.104,-2.104,-2.1319,-2.1891,-2.1891,-2.2,-2.2249,-2.2162,-2.228,-2.254,-2.2338,-2.2399,-2.2684,-2.2684,-2.276,-2.2896,-2.2896,-2.2745,-2.2594,-2.2594,-2.2594,-2.2594,-2.2594,-2.2156,-2.1681,-2.2153,-2.2395,-2.2657,-2.3297,-2.472,-2.6172,-2.6641,-2.7685,-2.8666,-2.8969,-2.9464,-2.9542,-2.8245,-2.7862,-2.7656,-2.7259,-2.719,-2.719,-2.719,-2.719,-2.719,-2.719,-2.719,-2.719,-2.719,-2.719,-2.719,-2.719,-2.719,-2.719,-2.719,-2.719,-2.719,-2.719,-2.719,-2.719,-2.719,-2.719,-2.7529,-2.8184,-2.8528,-2.9033,-2.9711,-3.0055,-3.0216,-3.0204,-3.0437,-3.0428,-0.8069,-0.8912,-1.0069,-1.0352,-1.0996,-1.1732,-1.2351,-1.3149,-1.3861,-1.4139,-1.5396,-1.6164,-1.5296,-1.5849,0.0,-1.6126,-1.6573,-1.6969,-1.7113,0.0,0.0,0.0,0.0,0.0,0.0,0.0,0.0,0.0,0.0,0.0,0.0,-1.8288,-1.8481,-1.8481,-1.8658,-1.902,-1.9608,-1.96,-2.0011,-2.0826,-2.0826,-2.1118,-2.1631,-2.152,-2.1655,-2.1955,-2.2067,-2.2194,-2.2336,-2.2147,-2.2231,-2.2434,-2.2434,-2.2536,-2.2667,-2.2717,-2.262,-2.2488,-2.2593,-2.2594,-2.2594,-2.2594,-2.2285,-2.1956,-2.2426,-2.2697,-2.2944,-2.3617,-2.4692,-2.5675,-2.6141,-2.7216,-2.8311,-2.8879,-2.9317,-2.9348,-2.8479,-2.8115,-2.7828,-2.7282,-2.719,-2.719,-2.719,-2.719,-2.719,-2.719,-2.719,-2.719,-2.719,-2.719,-2.719,-2.719,-2.719,-2.719,-2.719,-2.719,-2.719,-2.719,-2.719,-2.719,-2.719,-2.7385,-2.7759,-2.8253,-2.8758,-2.9274,-2.9791,-3.0078,-3.0216,-3.0204,-3.0419,-3.0386,-0.9065,-0.9135,-0.9671,-1.1976,-1.1633,-1.0976,-1.1959,-1.3888,-1.5187,-1.4287,-1.5075,-1.5762,-1.5016,-1.5646,-1.6301,-1.6448,-1.6705,-1.691,-1.6939,0.0,0.0,0.0,0.0,0.0,0.0,0.0,0.0,0.0,0.0,0.0,0.0,-1.8241,-1.8481,-1.8481,-1.8974,-1.9333,-1.9671,-2.0073,-2.0555,-2.1042,-2.0997,-2.1141,-2.1347,-2.115,-2.1246,-2.1611,-2.1928,-2.2079,-2.2079,-2.2079,-2.2105,-2.2132,-2.2132,-2.2111,-2.2143,-2.2236,-2.227,-2.2273,-2.2421,-2.2491,-2.2491,-2.2491,-2.2474,-2.254,-2.293,-2.3206,-2.3512,-2.4405,-2.4794,-2.5,-2.5498,-2.6781,-2.8239,-2.9054,-2.9015,-2.8789,-2.8703,-2.833,-2.787,-2.7334,-2.719,-2.719,-2.719,-2.719,-2.719,-2.719,-2.719,-2.719,-2.719,-2.719,-2.719,-2.719,-2.719,-2.719,-2.719,-2.719,-2.719,-2.719,-2.719,-2.7213,-2.7259,-2.7736,-2.8184,-2.8632,-2.9194,-2.9711,-3.0147,-3.0193,-3.0216,-3.0216,-3.0216,-3.0216,-0.8735,-1.0125,-1.1721,-1.2116,-1.226,-1.2553,-1.3505,-1.3674,-1.3571,-1.3272,-1.3728,-1.4385,-1.4802,-1.5078,-1.5586,-1.6622,-1.6859,-1.6991,0.0,0.0,0.0,0.0,0.0,0.0,0.0,0.0,0.0,0.0,0.0,0.0,-1.804,-1.8334,-1.8481,-1.8481,-1.8974,-1.9517,-2.0164,-2.0246,-2.0654,0.0,-2.1096,-2.1042,-2.1096,-2.1248,-2.1428,-2.1689,-2.1735,-2.1771,-2.1771,-2.1771,-2.1953,-2.2271,-2.2271,-2.2331,-2.2393,-2.2274,-2.2109,-2.1878,-2.1724,-2.1653,-2.1653,-2.1653,-2.1465,-2.1281,-2.1376,-2.1706,-2.2208,-2.2806,-2.3207,-2.3686,-2.4502,-2.525,-2.6091,-2.7189,-2.8711,-2.959,-2.8588,-2.831,-2.8048,-2.7323,-2.719,-2.719,-2.719,-2.719,-2.719,-2.719,-2.719,-2.719,-2.719,-2.719,-2.719,-2.719,-2.719,-2.719,-2.719,-2.719,-2.719,-2.719,-2.719,-2.7415,-2.7805,-2.792,-2.8035,-2.8138,-2.9033,-2.955,-2.9653,-3.0032,-3.0216,-3.0216,-3.0216,-3.0216,-0.9309,-1.0507,-1.1561,-1.16,-1.2507,-1.3231,-1.2757,-1.2665,-1.2725,-1.2864,-1.3265,-1.358,-1.3698,-1.3993,-1.4579,-1.5599,-1.6088,-1.6376,0.0,0.0,0.0,0.0,0.0,0.0,0.0,0.0,0.0,0.0,0.0,-1.8234,-1.8087,-1.8334,-1.8481,-1.8481,-1.9158,-1.9745,-2.011,-2.0464,-2.088,-2.1392,-2.1248,-2.1239,-2.132,-2.1392,-2.1482,-2.1571,-2.1571,-2.1607,-2.1687,-2.1607,-2.1725,-2.1998,-2.1998,-2.2044,-2.2115,-2.2055,-2.1893,-2.1693,-2.164,-2.1509,-2.1413,-2.1413,-2.1285,-2.1131,-2.1131,-2.1377,-2.1789,-2.2465,-2.2875,-2.3415,-2.474,-2.5488,-2.62,-2.7096,-2.8323,-2.9069,-2.8444,-2.8282,-2.809,-2.7323,-2.719,-2.719,-2.719,-2.719,-2.719,-2.719,-2.719,-2.719,-2.719,-2.719,-2.719,-2.719,-2.719,-2.719,-2.719,-2.719,-2.719,-2.719,-2.719,-2.7305,-2.761,-2.7851,-2.8218,-2.87,-2.9458,-2.9848,-2.9848,-3.0089,-3.0216,-3.0216,-3.0216,-3.0216,-0.9702,-1.0409,-1.0722,-1.11,-1.2319,-1.3032,-1.1502,-1.1567,-1.2178,-1.2902,-1.3098,-1.3045,-1.2673,-1.3039,-1.3676,-1.4327,-1.5177,-1.5671,0.0,0.0,0.0,0.0,0.0,0.0,0.0,0.0,0.0,0.0,0.0,-1.8427,-1.8226,-1.8427,-1.8566,-1.8612,-1.9433,-1.9891,-1.9973,-2.0637,-2.1141,-2.1392,-2.1392,-2.1482,-2.1651,-2.1428,-2.1347,-2.1392,-2.1392,-2.1472,-2.1553,-2.1383,-2.1482,-2.1651,-2.1651,-2.1651,-2.1733,-2.1789,-2.1677,-2.1501,-2.1576,-2.1453,-2.1216,-2.1216,-2.1216,-2.1216,-2.1216,-2.1331,-2.1657,-2.2481,-2.2934,-2.3561,-2.5166,-2.6283,-2.7063,-2.7591,-2.7977,-2.8225,-2.8236,-2.8184,-2.7974,-2.7311,-2.719,-2.719,-2.719,-2.719,-2.719,-2.719,-2.719,-2.719,-2.719,-2.719,-2.719,-2.719,-2.719,-2.719,-2.719,-2.719,-2.719,-2.7149,-2.719,-2.7224,-2.7264,-2.7759,-2.8413,-2.9343,-2.9837,-3.0135,-3.0216,-3.0216,-3.0216,-3.0216,-3.0216,-3.0216,-0.8374,-0.9585,-1.085,-1.1442,-1.1377,-1.1296,-1.1955,-1.1566,-1.1546,-1.3223,-1.2859,-1.2445,-1.3225,-1.3285,-1.3477,-1.4199,-1.497,0.0,0.0,0.0,0.0,0.0,0.0,0.0,0.0,0.0,0.0,0.0,-1.8481,-1.8566,-1.8689,-1.8735,-1.8874,-1.9104,-1.9442,-1.9853,-2.0246,-2.0727,-2.1141,-2.1392,-2.1392,-2.1392,-2.1437,-2.1186,-2.1195,-2.1392,-2.1392,-2.1293,-2.1087,-2.1042,-2.1195,-2.1437,-2.1437,-2.1571,-2.1696,-2.1536,-2.132,-2.1041,-2.0921,-2.0666,-2.0446,-2.0446,-2.0446,-2.0446,-2.0446,-2.0759,-2.1176,-2.1698,-2.2767,-2.3858,-2.4492,-2.59,-2.7193,-2.7247,-2.7877,-2.8369,-2.8039,-2.776,-2.7534,-2.7242,-2.719,-2.719,-2.719,-2.719,-2.719,-2.719,-2.719,-2.719,-2.719,-2.719,-2.719,-2.719,-2.719,-2.719,-2.719,-2.719,-2.7149,-2.6933,-2.7097,-2.7291,-2.7535,-2.7847,-2.8241,-2.8792,-2.932,-2.9802,-3.0216,-3.0216,-3.0216,-3.0216,-3.0216,-3.0216,-0.829,-0.9783,-1.1045,-1.1115,-1.1252,-1.1403,-1.1491,-1.1355,-1.1552,-1.27,-1.2513,-1.2234,-1.2437,-1.23,-1.2387,-1.3159,-1.3656,0.0,0.0,0.0,0.0,0.0,0.0,0.0,0.0,0.0,0.0,0.0,-1.9128,-1.9166,-1.9258,-1.9258,-1.9296,-1.9433,-1.9799,-2.0073,-2.0292,-2.0772,-2.1051,-2.1195,-2.1347,-2.1392,-2.1392,-2.1293,-2.1195,-2.115,-2.1069,-2.1006,-2.0997,-2.0871,-2.106,-2.1392,-2.1392,-2.1526,-2.1696,-2.1607,-2.1329,-2.0997,-2.0916,-2.0781,-2.069,-2.069,-2.0871,-2.106,-2.106,-2.1239,-2.1499,-2.1954,-2.2896,-2.4006,-2.4988,-2.6216,-2.7307,-2.7805,-2.807,-2.8122,-2.7933,-2.78,-2.7626,-2.7272,-2.719,-2.719,-2.719,-2.719,-2.719,-2.719,-2.719,-2.719,-2.719,-2.719,-2.719,-2.719,-2.719,-2.719,-2.719,-2.719,-2.7149,-2.7056,-2.7149,-2.7241,-2.7364,-2.747,-2.7793,-2.8287,-2.9091,-2.9607,-2.9814,-3.0089,-3.0216,-3.0216,-3.0216,-3.0216,-0.8402,-0.9596,-1.0432,-1.0699,-1.1073,-1.1301,-1.0996,-1.1174,-1.1542,0.0,-1.2101,-1.1987,-1.1744,-1.1614,-1.1734,-1.2306,-1.2632,0.0,0.0,0.0,0.0,0.0,0.0,0.0,0.0,0.0,0.0,0.0,-1.9438,-1.9533,-1.9587,-1.9587,-1.9633,-1.9671,-2.0027,-2.0246,-2.0292,-2.069,-2.0952,-2.0997,-2.115,-2.1212,-2.1212,-2.1167,-2.1015,-2.0826,-2.0736,-2.0736,-2.0817,-2.0645,-2.0835,-2.1212,-2.1212,-2.1383,-2.1607,-2.1607,-2.1374,-2.0997,-2.0997,-2.0907,-2.0817,-2.0952,-2.123,-2.1553,-2.1651,-2.1696,-2.1776,-2.2264,-2.3236,-2.4382,-2.5526,-2.667,-2.7684,-2.8351,-2.8231,-2.7921,-2.776,-2.7719,-2.7598,-2.7272,-2.719,-2.719,-2.719,-2.719,-2.719,-2.719,-2.719,-2.719,-2.719,-2.719,-2.719,-2.719,-2.719,-2.719,-2.719,-2.719,-2.719,-2.7149,-2.7108,-2.7108,-2.7108,-2.7108,-2.7321,-2.7782,-2.8654,-2.924,-2.9504,-2.986,-3.0089,-3.0216,-3.0216,-3.0216,-0.8355,-0.8303,-0.8309,-1.0441,-1.049,-1.0183,-1.0855,-1.1065,-1.1214,-1.1492,-1.1525,-1.1531,-1.1594,-1.2004,-1.2258,-1.206,-1.2576,0.0,0.0,0.0,0.0,0.0,0.0,0.0,0.0,0.0,0.0,0.0,-1.9001,-1.9333,-1.9587,-1.9587,-1.9671,-1.9882,-1.9936,-2.0019,-2.0292,-2.0564,-2.0826,-2.0997,-2.0826,-2.0744,-2.0744,-2.0473,-2.0337,-2.0337,-2.0609,-2.0564,-2.0337,-2.0337,-2.0473,-2.0744,-2.0744,-2.1024,-2.1446,-2.1446,-2.1248,-2.0997,-2.0997,-2.069,-2.0428,-2.0862,-2.1042,-2.1132,-2.1553,-2.1696,-2.1776,-2.2264,-2.3651,-2.5168,-2.5652,-2.7121,-2.8431,-2.8471,-2.8339,-2.8018,-2.7383,-2.7231,-2.7231,-2.719,-2.719,-2.719,-2.719,-2.719,-2.719,-2.719,-2.719,-2.719,-2.719,-2.719,-2.719,-2.719,-2.719,-2.719,-2.719,-2.719,-2.7108,-2.6933,-2.6933,-2.6933,-2.6933,-2.6933,-2.7037,-2.7224,-2.7793,-2.854,-2.9504,-2.9527,-2.9768,-3.0216,-3.0216,-3.0216,-0.7898,-0.7909,-0.7979,-0.9565,-0.9937,-1.0031,-1.0555,-1.0906,-1.1141,-1.12,-1.1369,-1.1525,-1.1537,-1.1857,-1.208,-1.1786,-1.2093,0.0,0.0,0.0,0.0,0.0,0.0,0.0,0.0,0.0,0.0,0.0,0.0,-1.8677,-1.962,-1.9681,-1.9827,-2.0147,-2.0155,-2.0201,-2.0292,-2.0382,-2.0464,-2.0555,-2.0654,-2.0699,-2.0699,-2.0609,-2.0564,-2.0564,-2.0473,-2.0382,-2.0292,-2.0292,-2.0473,-2.0699,-2.0826,-2.1006,-2.115,-2.1347,-2.1159,-2.0826,-2.0826,-2.0781,-2.0781,-2.0952,-2.1401,-2.1945,-2.2087,-2.2353,-2.274,-2.3507,-2.4606,-2.5735,-2.6505,-2.751,-2.8259,-2.8163,-2.8042,-2.7869,-2.7493,-2.7301,-2.7219,-2.7371,-2.7301,-2.719,-2.719,-2.719,-2.719,-2.719,-2.719,-2.719,-2.719,-2.719,-2.719,-2.719,-2.719,-2.719,-2.719,-2.7067,-2.6985,-2.6891,-2.6768,-2.6768,-2.6891,-2.6891,-2.6974,-2.719,-2.7415,-2.7989,-2.8987,-2.9332,-2.9745,-3.0216,-3.0216,-3.0216,-0.7516,-0.7668,-0.7841,-0.8804,-0.9297,-0.9627,-1.015,-1.0577,-1.0863,-1.1075,-1.1224,-1.1351,-1.1351,-1.1633,-1.1793,-1.1711,-1.1838,-1.2272,0.0,0.0,0.0,0.0,0.0,0.0,0.0,0.0,0.0,0.0,0.0,0.0,-1.9451,-1.9591,-1.9806,-2.023,-2.0157,-2.0163,-2.0292,-2.0292,-2.0292,-2.0292,-2.0473,-2.0564,-2.0564,-2.0564,-2.0564,-2.0564,-2.0382,-2.0292,-2.0292,-2.0292,-2.0473,-2.0699,-2.0871,-2.1006,-2.115,-2.1347,-2.1159,-2.0781,-2.0781,-2.0781,-2.0772,-2.0952,-2.1401,-2.1989,-2.2299,-2.2828,-2.3517,-2.4284,-2.5326,-2.6423,-2.7051,-2.7765,-2.8219,-2.7962,-2.7962,-2.7909,-2.7563,-2.733,-2.7219,-2.7371,-2.7301,-2.719,-2.719,-2.719,-2.719,-2.719,-2.719,-2.719,-2.719,-2.719,-2.719,-2.719,-2.719,-2.719,-2.719,-2.7067,-2.6974,-2.6891,-2.6727,-2.6685,-2.6891,-2.685,-2.6933,-2.719,-2.719,-2.7633,-2.8459,-2.8815,-2.9332,-2.9975,-2.9791,-2.9711,0.0,0.0,0.0,-0.8246,-0.8537,-0.8878,-0.9636,0.0,-1.043,-1.0991,-1.1099,-1.1099,-1.1111,-1.1335,-1.1561,-1.182,-1.1874,-1.2292,0.0,0.0,0.0,0.0,0.0,0.0,0.0,0.0,0.0,0.0,-1.7568,-1.8156,-1.911,-1.9367,-1.9678,-2.007,-1.9815,-1.9862,-2.0275,-2.0275,-2.0283,-2.0292,-2.0292,-2.0292,-2.0292,-2.0292,-2.0292,-2.0292,-2.0292,-2.0292,-2.0292,-2.0292,-2.0473,-2.0699,-2.0699,-2.0979,-2.1392,-2.1392,-2.1239,-2.0997,-2.0997,-2.069,-2.0382,-2.0817,-2.0997,-2.1177,-2.2122,-2.3028,-2.3887,-2.4402,-2.5841,-2.7185,-2.7226,-2.7846,-2.8391,-2.8002,-2.807,-2.8099,-2.7644,-2.7383,-2.7231,-2.7231,-2.719,-2.719,-2.719,-2.719,-2.719,-2.719,-2.719,-2.719,-2.719,-2.719,-2.719,-2.719,-2.719,-2.719,-2.719,-2.719,-2.7108,-2.6891,-2.6727,-2.6685,-2.6891,-2.6727,-2.6809,-2.719,-2.719,-2.7472,-2.7966,-2.7977,-2.8494,-2.9458,-2.8941,-2.87,-0.7582,0.0,0.0,0.0,0.0,0.0,0.0,0.0,-1.0194,-1.0899,-1.09,-1.0918,-1.1261,-1.1247,-1.1212,-1.1323,-1.1667,-1.203,0.0,0.0,0.0,0.0,0.0,0.0,0.0,0.0,0.0,0.0,-1.6213,-1.7012,-1.8692,-1.922,-1.9462,-1.9462,-1.954,-1.9678,-1.9845,-1.9853,-2.0026,-2.0292,-2.0292,-2.0292,-2.0292,-2.0292,-2.0292,-2.0292,-2.0292,-2.0292,-2.0292,-2.0292,-2.0337,-2.0428,-2.0781,-2.0916,-2.0934,-2.1257,-2.1159,-2.0781,-2.0781,-2.0564,-2.0337,-2.0464,-2.0736,-2.1132,-2.1722,-2.2765,-2.4049,-2.5115,-2.6287,-2.7307,-2.7805,-2.8219,-2.8431,-2.8191,-2.8179,-2.8179,-2.8007,-2.7684,-2.74,-2.74,-2.7301,-2.719,-2.719,-2.719,-2.719,-2.719,-2.719,-2.719,-2.719,-2.719,-2.719,-2.719,-2.719,-2.719,-2.719,-2.7067,-2.6974,-2.6891,-2.6727,-2.6685,-2.6891,-2.685,-2.6933,-2.719,-2.719,-2.7259,-2.7438,-2.7805,-2.831,-2.8919,-2.8769,-2.87,-0.7629,-0.7542,-0.7359,-0.7554,0.0,0.0,-0.8651,-0.9239,-0.9922,0.0,-1.0845,-1.0967,-1.123,-1.1186,-1.1111,-1.1111,-1.1377,-1.1624,0.0,0.0,0.0,0.0,0.0,0.0,0.0,-1.4532,-1.522,-1.6157,-1.6157,-1.6827,-1.8422,-1.8861,-1.9061,-1.9057,-1.9184,-1.9324,-1.9504,-1.9623,-1.9811,-2.0061,-2.0215,-2.0292,-2.0292,-2.0292,-2.0292,-2.0292,-2.0292,-2.0292,-2.0292,-2.0292,-2.0419,-2.06,-2.0826,-2.0961,-2.115,-2.1195,-2.106,-2.0826,-2.0744,-2.0518,-2.0292,-2.0292,-2.051,-2.0826,-2.1275,-2.2648,-2.4265,-2.521,-2.6577,-2.7846,-2.8219,-2.8431,-2.8471,-2.8259,-2.8259,-2.8259,-2.7966,-2.7846,-2.7725,-2.7563,-2.733,-2.719,-2.719,-2.719,-2.719,-2.719,-2.719,-2.719,-2.719,-2.719,-2.719,-2.719,-2.719,-2.719,-2.719,-2.7097,-2.6974,-2.6903,-2.6809,-2.6768,-2.6891,-2.6891,-2.6974,-2.719,-2.719,-2.719,-2.719,-2.7518,-2.7816,-2.8092,-2.8299,-2.8287,-0.7528,-0.7545,-0.7392,-0.6964,-0.7281,0.0,-0.7757,-0.8537,-0.9468,0.0,-1.0601,-1.0863,-1.0967,-1.0973,-1.0936,-1.0936,-1.0985,-1.1129,-1.1405,0.0,0.0,0.0,0.0,0.0,-1.3655,-1.4784,-1.5921,-1.6854,-1.6887,-1.7277,-1.8313,-1.8402,-1.851,-1.8776,-1.8826,-1.8934,-1.9144,-1.9444,-1.9597,-1.964,-2.0052,-2.0232,-2.0232,-2.0275,-2.0292,-2.0292,-2.0292,-2.0292,-2.0292,-2.0292,-2.0555,-2.0907,-2.0736,-2.106,-2.1553,-2.1132,-2.0997,-2.0952,-2.0736,-2.0564,-2.0382,-2.0382,-2.0428,-2.0518,-2.0952,-2.2654,-2.4565,-2.5199,-2.6905,-2.851,-2.851,-2.851,-2.8471,-2.8259,-2.8391,-2.8351,-2.7725,-2.7886,-2.8018,-2.7603,-2.7371,-2.7231,-2.7231,-2.7231,-2.7231,-2.7231,-2.7231,-2.719,-2.719,-2.719,-2.719,-2.719,-2.719,-2.719,-2.719,-2.719,-2.7108,-2.6933,-2.6933,-2.6933,-2.6933,-2.6933,-2.7015,-2.719,-2.719,-2.719,-2.719,-2.719,-2.719,-2.7201,-2.769,-2.7656,-0.7507,-0.7233,-0.6915,0.0,0.0,0.0,-0.7414,-0.7605,-0.796,0.0,-0.921,-0.9371,-1.0104,-1.0147,-1.0015,-0.9832,-1.0256,-1.0748,-1.1123,0.0,0.0,0.0,0.0,0.0,-1.3498,-1.5175,-1.6349,-1.6596,-1.7299,-1.7829,-1.808,-1.8282,-1.8308,-1.8183,-1.8386,-1.8568,-1.8699,-1.8776,-1.8973,-1.929,-1.9667,-1.9802,-1.9811,-2.0155,-2.0292,-2.0292,-2.0292,-2.0292,-2.0292,-2.0292,-2.0337,-2.0464,-2.0654,-2.0789,-2.0916,-2.0952,-2.0916,-2.0736,-2.0699,-2.0781,-2.0862,-2.0862,-2.1141,-2.1419,-2.1553,-2.2911,-2.4872,-2.6805,-2.7898,-2.851,-2.851,-2.851,-2.8471,-2.8471,-2.8471,-2.8431,-2.8139,-2.803,-2.7869,-2.7563,-2.7482,-2.7441,-2.7441,-2.7301,-2.726,-2.74,-2.7301,-2.719,-2.719,-2.719,-2.719,-2.719,-2.719,-2.719,-2.719,-2.719,-2.719,-2.7149,-2.7149,-2.7149,-2.7149,-2.7149,-2.7149,-2.719,-2.719,-2.719,-2.719,-2.719,-2.719,-2.719,-2.7334,-2.7282,0.0,0.0,0.0,-0.6625,0.0,0.0,0.0,-0.7236,-0.7609,-0.8406,-0.8676,-0.8931,-0.9378,-0.9504,-0.9504,-0.9428,-0.9977,-1.0396,-1.0298,-1.0863,-1.1285,0.0,0.0,0.0,-1.3726,-1.5536,-1.6699,-1.6699,-1.7543,-1.7956,-1.7757,-1.8257,-1.8362,-1.7991,-1.8282,-1.8368,-1.8314,-1.8494,-1.8682,-1.893,-1.9273,-1.9555,-1.9708,-1.9888,-2.0121,-2.0292,-2.0292,-2.0292,-2.0292,-2.0292,-2.0382,-2.0518,-2.0518,-2.0645,-2.0826,-2.069,-2.069,-2.0699,-2.0564,-2.0736,-2.0997,-2.0997,-2.132,-2.1776,-2.2246,-2.3856,-2.5891,-2.7684,-2.8351,-2.851,-2.851,-2.851,-2.8471,-2.8379,-2.8339,-2.8259,-2.7926,-2.7869,-2.78,-2.7412,-2.7534,-2.7655,-2.7522,-2.733,-2.7301,-2.7667,-2.7423,-2.7219,-2.733,-2.726,-2.719,-2.719,-2.719,-2.719,-2.719,-2.719,-2.719,-2.719,-2.719,-2.719,-2.719,-2.719,-2.719,-2.719,-2.719,-2.719,-2.719,-2.719,-2.719,-2.719,-2.719,-2.719,0.0,0.0,0.0,0.0,0.0,-0.6653,0.0,0.0,0.0,-0.783,-0.8231,0.0,0.0,0.0,0.0,0.0,0.0,0.0,0.0,-1.0146,0.0,0.0,0.0,0.0,-1.3756,-1.547,-1.6641,-1.6863,-1.7369,-1.7593,-1.7394,-1.8088,-1.8297,-1.7929,-1.8198,-1.8241,-1.8,-1.8331,-1.8477,-1.8485,-1.887,-1.9222,-1.9477,-1.9554,-1.9795,-2.0078,-2.0155,-2.0189,-2.0189,-2.0266,-2.0428,-2.0609,-2.0382,-2.0555,-2.0907,-2.0464,-2.0428,-2.0609,-2.0382,-2.0772,-2.1392,-2.1392,-2.1837,-2.2545,-2.3477,-2.5041,-2.6771,-2.8007,-2.8431,-2.8471,-2.8391,-2.8391,-2.8311,-2.8139,-2.8059,-2.7966,-2.7603,-2.7655,-2.7719,-2.7272,-2.7516,-2.7719,-2.7615,-2.7423,-2.7476,-2.7841,-2.7516,-2.7301,-2.7441,-2.733,-2.7219,-2.719,-2.7231,-2.7219,-2.719,-2.719,-2.719,-2.719,-2.719,-2.719,-2.719,-2.719,-2.719,-2.719,-2.719,-2.719,-2.719,-2.719,-2.719,-2.719,-2.719,-2.719,0.0,0.0,0.0,0.0,-0.5954,0.0,0.0,0.0,-0.6312,-0.705,0.0,0.0,0.0,0.0,0.0,0.0,0.0,0.0,-0.8003,-0.9078,-0.9886,-0.969,-1.197,0.0,0.0,-1.4387,-1.5831,-1.6804,-1.6381,-1.6321,-1.6944,-1.7368,-1.7613,-1.7574,-1.786,-1.8031,-1.8,-1.8034,-1.8059,-1.8059,-1.8477,-1.8674,-1.8733,-1.9076,-1.9264,-1.9316,-1.9658,-1.9759,-1.9785,-2.0155,-2.0337,-2.0337,-2.0292,-2.0473,-2.0699,-2.0428,-2.0337,-2.0337,-2.0292,-2.1436,-2.2877,-2.2877,-2.3684,-2.4872,-2.583,-2.6287,-2.67,-2.7696,-2.8243,-2.8431,-2.8042,-2.7962,-2.7921,-2.7644,-2.7603,-2.7551,-2.751,-2.7522,-2.7493,-2.7219,-2.7231,-2.7394,-2.78,-2.7841,-2.7841,-2.7893,-2.7655,-2.7412,-2.726,-2.7371,-2.7412,-2.7231,-2.7371,-2.7412,-2.7231,-2.719,-2.719,-2.719,-2.719,-2.719,-2.719,-2.719,-2.719,-2.719,-2.719,-2.719,-2.719,-2.719,-2.719,-2.719,-2.719,-2.719,0.0,0.0,0.0,0.0,0.0,0.0,-0.6488,0.0,-0.602,0.0,0.0,0.0,0.0,0.0,0.0,0.0,-0.7703,0.0,0.0,0.0,-0.9487,0.0,0.0,0.0,0.0,0.0,0.0,0.0,-1.5426,-1.5418,-1.6533,-1.7058,-1.7398,-1.7497,-1.7629,-1.7817,-1.8,-1.8,-1.8,-1.8,-1.8153,-1.8382,-1.8588,-1.8759,-1.8998,-1.9239,-1.9529,-1.97,-1.9725,-2.0138,-2.0382,-2.0518,-2.0382,-2.0382,-2.0473,-2.0337,-2.0292,-2.0292,-2.0292,-2.1347,-2.2877,-2.3973,-2.5031,-2.6038,-2.6682,-2.7255,-2.7753,-2.8151,-2.8351,-2.8471,-2.8271,-2.8082,-2.7881,-2.7748,-2.7522,-2.7319,-2.733,-2.733,-2.7301,-2.7231,-2.7301,-2.7452,-2.7615,-2.7586,-2.7598,-2.7852,-2.7586,-2.7383,-2.7598,-2.7423,-2.733,-2.7371,-2.733,-2.7301,-2.7231,-2.719,-2.719,-2.719,-2.719,-2.719,-2.719,-2.719,-2.719,-2.719,-2.719,-2.719,-2.719,-2.719,-2.719,-2.719,-2.719,-2.719,-0.5889,0.0,0.0,0.0,0.0,0.0,0.0,0.0,0.0,0.0,0.0,0.0,0.0,0.0,-0.6799,-0.6399,0.0,-0.7593,0.0,-0.7851,0.0,0.0,0.0,0.0,0.0,0.0,0.0,-1.507,-1.432,-1.4513,-1.6167,-1.6698,-1.7064,-1.7188,-1.7402,-1.7603,-1.7837,-1.794,-1.8,-1.8,-1.8,-1.8136,-1.8434,-1.8434,-1.8588,-1.8879,-1.9264,-1.9443,-1.9571,-1.9992,-2.0333,-2.0564,-2.0382,-2.0292,-2.0292,-2.0292,-2.0292,-2.0292,-2.0292,-2.1463,-2.3284,-2.5295,-2.6445,-2.7103,-2.7429,-2.8018,-2.851,-2.851,-2.851,-2.8471,-2.8259,-2.799,-2.7667,-2.7557,-2.729,-2.7033,-2.7097,-2.7149,-2.719,-2.719,-2.7342,-2.74,-2.74,-2.7383,-2.7516,-2.7852,-2.7598,-2.7476,-2.776,-2.7598,-2.7464,-2.74,-2.7383,-2.7353,-2.7231,-2.719,-2.719,-2.719,-2.719,-2.719,-2.719,-2.719,-2.719,-2.719,-2.719,-2.719,-2.719,-2.719,-2.719,-2.719,-2.719,-2.719,0.0,0.0,0.0,-0.5927,0.0,0.0,0.0,0.0,-0.5963,0.0,0.0,0.0,0.0,-0.5932,-0.5906,-0.5501,-0.6017,0.0,0.0,0.0,0.0,0.0,0.0,0.0,0.0,0.0,-1.1602,-1.352,-1.2989,-1.3495,-1.5685,-1.6201,-1.6444,-1.6424,-1.7128,-1.7514,-1.7531,-1.7852,-1.8,-1.8,-1.8,-1.8,-1.8017,-1.8017,-1.8025,-1.8051,-1.8468,-1.8845,-1.9222,-1.9598,-1.9966,-2.0292,-2.0292,-2.0292,-2.0292,-2.0292,-2.0292,-2.0292,-2.0292,-2.2092,-2.4735,-2.7051,-2.8082,-2.8431,-2.8471,-2.8471,-2.851,-2.851,-2.851,-2.8339,-2.7684,-2.7389,-2.7103,-2.6715,-2.6644,-2.6685,-2.685,-2.7056,-2.719,-2.719,-2.7231,-2.7231,-2.7231,-2.7557,-2.7881,-2.7893,-2.7893,-2.78,-2.7522,-2.7886,-2.7938,-2.7272,-2.7598,-2.7679,-2.7231,-2.719,-2.719,-2.719,-2.719,-2.719,-2.719,-2.719,-2.719,-2.719,-2.719,-2.719,-2.719,-2.719,-2.719,-2.719,-2.719,-2.7108,0.0,0.0,-0.6816,-0.6149,0.0,0.0,0.0,0.0,0.0,0.0,0.0,0.0,0.0,-0.6162,-0.6036,-0.5775,-0.6224,-0.6456,0.0,0.0,0.0,0.0,0.0,0.0,0.0,0.0,0.0,-1.3771,-1.3418,-1.3898,-1.5693,-1.5925,-1.6132,-1.6381,-1.6879,-1.7227,-1.7505,-1.7843,-1.8,-1.8,-1.8,-1.8,-1.8,-1.8,-1.8,-1.8017,-1.8425,-1.8811,-1.9247,-1.9546,-1.9958,-2.0292,-2.0292,-2.0292,-2.0292,-2.0292,-2.0292,-2.0464,-2.1739,-2.277,-2.3965,-2.6588,-2.7522,-2.7765,-2.8351,-2.851,-2.851,-2.851,-2.851,-2.8431,-2.8047,-2.7684,-2.7307,-2.7074,-2.688,-2.6715,-2.6498,-2.6839,-2.7097,-2.6798,-2.7015,-2.7219,-2.7371,-2.7534,-2.7655,-2.7655,-2.7655,-2.7696,-2.7926,-2.7696,-2.7586,-2.7638,-2.7516,-2.7353,-2.7231,-2.719,-2.719,-2.719,-2.719,-2.719,-2.719,-2.719,-2.719,-2.719,-2.719,-2.719,-2.719,-2.719,-2.719,-2.719,-2.719,-2.7097,-0.5052,-0.6051,0.0,-0.63,-0.6976,0.0,-0.6832,0.0,0.0,0.0,0.0,0.0,0.0,0.0,-0.6055,-0.5854,-0.6149,-0.6236,0.0,-0.6043,0.0,0.0,0.0,0.0,0.0,-1.0052,-1.0954,-1.3164,-1.3023,-1.3542,0.0,0.0,-1.5908,-1.6184,-1.6524,-1.6893,-1.7269,-1.7646,-1.7863,-1.8,-1.8,-1.8,-1.8,-1.8,-1.8,-1.8008,-1.8288,-1.8691,-1.9239,-1.9436,-1.9838,-2.0292,-2.0292,-2.0292,-2.0292,-2.0292,-2.0292,-2.0555,-2.2438,-2.3173,-2.3717,-2.6163,-2.7185,-2.7534,-2.8111,-2.8391,-2.851,-2.851,-2.851,-2.8471,-2.8259,-2.7846,-2.7429,-2.7267,-2.691,-2.658,-2.6279,-2.6539,-2.6715,-2.6373,-2.6798,-2.7208,-2.729,-2.7522,-2.7725,-2.7655,-2.7684,-2.7805,-2.7926,-2.7696,-2.7586,-2.7638,-2.7423,-2.726,-2.7231,-2.719,-2.719,-2.719,-2.719,-2.719,-2.719,-2.719,-2.727,-2.7495,-2.7282,-2.7282,-2.7495,-2.7282,-2.719,-2.719,-2.719,-2.7097]}]]